GFSSGP_con_sbcape_000.txt.gz
CAPE
0 0 0 0 0 0 0 0 0 0 0 65 237 249 241 273 402 375 713 483 127 141 421 724 1082 1416 1804 2037 2182 2300 2568 2585 2448 2225 1952 1712 1426 1280 1198 1146 533 206 290 200 263 699 830 930 594
0 0 0 0 0 0 0 0 0 0 104 40 63 362 525 858 952 1029 980 436 235 362 733 914 1145 1528 1788 1860 2029 2103 2176 2181 2437 2189 2025 1866 1577 1516 1413 677 272 156 116 335 601 442 217 530 59
0 0 0 0 0 0 0 0 0 1 33 0 428 349 601 675 1010 1075 977 665 521 717 924 999 1020 1438 1852 1880 2020 2000 2029 2161 2398 2178 2071 1999 1743 1631 1285 479 361 245 281 389 526 742 353 200 37
0 0 0 0 0 0 0 0 0 0 108 241 424 603 696 629 994 1200 1096 704 681 785 902 1092 1184 1439 1916 2003 1894 1960 1984 1906 2133 2410 2188 1907 1696 1355 1331 572 438 463 592 652 744 490 800 171 126
0 0 0 0 0 0 0 0 0 54 141 232 213 326 876 795 1021 1192 1043 925 850 859 1130 1202 1258 1413 1631 1525 1648 1811 1913 1980 2053 2146 2244 1805 1504 1075 527 458 594 832 575 787 757 1195 555 410 415
0 0 0 0 0 0 0 0 0 1 74 155 313 551 645 965 878 1226 1152 1295 1164 1098 1298 1307 1446 1359 1319 1365 1345 1356 1541 1800 1980 1872 1769 1748 1540 1345 1180 1010 998 594 386 203 185 178 318 43 78
0 0 0 0 0 0 0 0 0 0 0 1 95 544 828 708 907 877 1287 1373 1532 1241 1277 1325 1262 1105 1021 946 873 849 1203 1523 1746 1540 1306 1105 1075 1160 809 618 547 437 569 716 771 300 238 383 450
0 0 0 0 0 0 0 0 0 0 0 0 65 213 202 886 691 804 504 1168 1508 1668 1361 1200 1060 743 328 310 686 785 846 1154 1515 1254 960 647 706 626 348 238 298 230 185 98 61 136 173 316 212
0 0 0 0 0 0 0 0 0 0 0 0 7 131 134 342 943 881 580 463 481 1133 1594 1285 1154 906 323 133 409 788 916 1001 1319 1415 767 369 95 97 94 9 115 70 11 0 0 0 1 0 0
0 0 0 0 0 0 0 0 0 0 0 0 353 72 182 1009 1098 1203 799 473 265 428 581 809 1060 1030 653 502 602 396 696 648 664 840 777 238 1 0 0 2 20 0 0 0 0 0 0 0 0
0 0 0 0 0 0 0 0 0 0 0 0 456 29 424 912 814 807 491 474 33 9 18 120 349 482 253 410 527 535 447 445 394 179 116 3 0 0 0 0 0 0 0 0 0 0 0 0 0
0 0 0 0 0 0 0 0 0 0 0 0 6 147 234 663 721 607 35 14 0 0 0 10 56 92 2 4 442 315 145 199 30 1 0 0 0 0 0 0 0 0 0 0 0 0 0 0 0
0 0 0 0 0 0 0 0 0 0 0 0 0 0 0 53 2 0 0 0 0 0 0 0 0 14 0 0 0 0 0 0 0 0 0 0 0 0 0 0 0 0 0 0 0 0 0 0 0
0 0 0 0 0 0 0 0 0 0 0 0 0 0 0 0 0 0 0 0 0 0 0 0 0 0 0 0 0 0 0 0 0 0 0 0 0 0 0 0 0 0 0 0 0 0 0 0 0
0 0 0 0 0 0 0 0 0 0 0 0 0 0 0 0 0 0 0 0 0 0 0 0 0 0 0 0 0 0 0 0 0 0 0 0 0 0 0 0 0 0 0 0 0 0 0 0 0
0 0 0 0 0 0 0 0 0 0 0 0 0 0 0 0 0 0 0 0 0 0 0 0 0 0 0 0 0 0 0 0 0 0 0 0 0 0 0 0 0 0 0 0 0 0 0 0 0
0 0 0 0 0 0 0 0 0 0 0 0 0 0 0 0 0 0 0 0 0 0 0 0 0 0 0 0 0 0 0 0 0 0 0 0 0 0 0 0 0 0 0 0 0 0 0 0 0
0 0 0 0 0 0 0 0 0 0 0 0 0 0 0 0 0 0 0 0 0 0 0 0 0 0 0 0 0 0 0 0 0 0 0 0 0 0 0 0 0 0 0 0 0 0 0 0 0
0 0 0 0 0 0 0 0 0 0 0 0 0 0 0 0 0 0 0 0 0 0 0 0 0 0 0 0 0 0 0 0 0 0 0 0 0 0 0 0 0 0 0 0 0 0 0 0 0
0 0 0 0 0 0 0 0 0 0 0 0 0 0 0 0 0 0 0 0 0 0 0 0 0 0 0 0 0 0 0 0 0 0 0 0 0 0 0 0 0 0 0 0 0 0 0 0 0
0 0 0 0 0 0 0 0 0 0 0 0 0 0 0 0 0 0 0 0 0 0 0 0 0 0 0 0 0 0 0 0 0 0 0 0 0 0 0 0 0 0 0 0 0 0 0 0 0
0 0 0 0 0 0 0 0 0 0 0 0 0 0 0 0 0 0 0 0 0 0 0 0 0 0 0 0 0 0 0 0 0 0 0 0 0 0 0 0 0 0 0 0 0 0 0 0 0
0 0 0 0 0 0 0 0 0 0 0 0 0 0 0 0 0 0 0 0 0 0 0 0 0 0 0 0 0 0 0 0 0 0 0 0 0 0 0 0 0 0 0 0 0 0 0 0 0
0 0 0 0 0 0 0 0 0 0 0 0 0 0 0 0 0 0 0 0 0 0 0 0 0 0 0 0 0 0 0 0 0 0 0 0 0 0 0 0 0 0 0 0 0 0 0 0 0
0 0 0 0 0 0 0 0 0 0 0 0 0 0 0 0 0 0 0 0 0 0 0 0 0 0 0 0 0 0 0 0 0 0 0 0 0 0 0 0 0 0 0 0 0 0 0 0 0
0 0 0 0 0 0 0 0 0 0 0 0 0 0 0 0 0 0 0 0 0 0 0 0 0 0 0 0 0 0 0 0 0 0 0 0 0 0 0 0 0 0 0 0 0 0 0 0 0
0 0 0 0 0 0 0 0 0 0 0 0 0 0 0 0 0 0 0 0 0 0 0 0 0 0 0 0 0 0 0 0 0 0 0 0 0 0 0 0 0 0 0 0 0 0 0 0 0
0 0 0 0 0 3 0 0 0 0 0 0 0 0 0 0 0 0 0 0 0 0 0 0 0 0 0 0 0 0 0 0 0 0 0 0 0 0 0 0 0 1 0 0 0 0 0 0 0
0 0 0 0 0 25 9 0 0 0 0 0 0 0 0 0 0 0 0 0 0 0 0 0 0 0 0 0 0 0 0 0 0 0 0 0 0 0 0 0 0 0 0 0 0 0 0 0 0
0 0 0 0 0 0 1 0 0 0 0 0 0 0 0 0 0 0 0 0 0 0 0 0 0 0 0 0 0 0 0 0 0 0 0 0 0 0 0 0 0 0 0 0 0 0 0 0 0

GFSSGP_con_sbcape_003.txt.gz
CAPE
0 0 0 0 0 0 0 0 0 0 118 126 116 126 163 235 200 47 473 70 46 195 481 740 1232 1757 2015 2096 2354 2645 2730 2363 2013 1966 1761 1574 1369 1354 1142 1122 494 315 307 246 910 943 1275 1241 868
0 0 0 0 0 0 0 0 0 0 226 208 273 374 549 733 661 723 482 133 104 377 600 818 1376 1672 1839 1932 2121 2459 2618 2493 2289 2148 2024 1822 1668 1499 1472 706 521 267 158 359 273 497 1020 1036 1200
0 0 0 0 0 0 0 0 0 11 11 0 461 475 569 805 851 839 410 272 466 548 556 840 1380 1582 1763 1920 1978 2101 2307 2572 2375 2280 2185 1981 1760 1596 1414 802 419 276 263 319 435 583 390 303 247
0 0 0 0 0 0 0 0 0 0 39 231 409 579 579 490 935 859 484 420 455 545 631 801 1256 1627 1824 1751 1765 1830 1987 2195 2422 2247 1995 1821 1636 1265 1243 585 411 486 468 446 502 566 1022 648 286
0 0 0 0 0 0 0 0 0 0 49 78 138 554 760 668 825 609 658 598 577 665 839 853 1077 1407 1789 1635 1662 1849 1940 1983 2190 2338 2113 1857 1562 1160 484 712 815 693 752 728 892 1269 872 703 394
0 0 0 0 0 0 0 0 0 2 16 76 191 378 598 592 1096 836 917 891 748 848 1023 1018 1206 1220 1382 1620 1678 1654 1809 1878 1799 1830 1940 1708 1285 1091 905 722 819 827 675 394 380 309 257 159 34
0 0 0 0 0 0 0 0 0 0 0 0 94 755 673 759 900 988 1194 1072 974 994 1042 942 943 937 1081 990 1071 1239 1532 1746 1654 1457 1404 1313 1169 1147 781 734 679 564 694 759 543 478 254 224 512
0 0 0 0 0 0 0 0 0 0 0 0 0 122 1032 975 660 808 1108 1211 1152 1003 977 811 733 602 400 493 775 797 1135 1400 1385 1121 884 641 765 751 402 237 274 182 150 3 0 6 72 53 38
0 0 0 0 0 0 0 0 0 0 0 0 2 0 23 582 509 397 621 716 1169 1388 961 799 770 479 135 0 272 732 904 1172 1326 956 686 357 88 13 0 21 87 124 23 0 0 0 0 0 0
0 0 0 0 0 0 0 0 0 0 0 101 199 16 94 507 546 418 563 847 798 1199 1363 985 836 656 237 211 280 174 318 532 809 896 292 21 0 0 0 0 5 0 0 0 0 0 0 0 0
0 0 0 0 0 0 0 0 0 0 0 17 64 78 500 795 680 567 376 658 475 1069 857 836 870 578 412 348 251 66 124 124 94 195 169 0 0 0 0 0 0 0 0 0 0 0 0 0 0
0 0 0 0 0 0 0 0 0 0 0 0 0 0 422 871 561 218 78 107 0 0 0 1 23 21 0 28 188 158 112 54 34 0 0 0 0 0 0 0 0 0 0 0 0 0 0 0 0
0 0 0 0 0 0 0 0 0 0 0 0 0 0 237 497 320 29 7 0 0 0 0 0 0 0 0 0 0 0 0 32 0 0 0 0 0 0 0 0 0 0 0 0 0 0 0 0 0
0 0 0 0 0 0 0 0 0 0 0 0 0 0 17 50 33 0 0 0 0 0 0 0 0 0 0 0 0 0 0 0 0 0 0 0 0 0 0 0 0 0 0 0 0 0 0 0 0
0 0 0 0 0 0 0 0 0 0 0 0 0 0 0 0 0 0 0 0 0 0 0 0 0 0 0 0 0 0 0 0 0 0 0 0 0 0 0 0 0 0 0 0 0 0 0 0 0
0 0 0 0 0 0 0 0 0 0 0 0 0 0 0 0 0 0 0 0 0 0 0 0 0 0 0 0 0 0 0 0 0 0 0 0 0 0 0 0 0 0 0 0 0 0 0 0 0
0 0 0 0 0 0 0 0 0 0 0 0 0 0 0 0 0 0 0 0 0 0 0 0 0 0 0 0 0 0 0 0 0 0 0 0 0 0 0 0 0 0 0 0 0 0 0 0 0
0 0 0 0 0 0 0 0 0 0 0 0 0 0 0 0 0 0 0 0 0 0 0 0 0 0 0 0 0 0 0 0 0 0 0 0 0 0 0 0 0 0 0 0 0 0 0 0 0
0 0 0 0 0 0 0 0 0 0 0 0 0 0 0 0 0 0 0 0 0 0 0 0 0 0 0 0 0 0 0 0 0 0 0 0 0 0 0 0 0 0 0 0 0 0 0 0 0
0 0 0 0 0 0 0 0 0 0 0 0 0 0 0 0 0 0 0 0 0 0 0 0 0 0 0 0 0 0 0 0 0 0 0 0 0 0 0 0 0 0 0 0 0 0 0 0 0
0 0 0 0 0 0 0 0 0 0 0 0 0 0 0 0 0 0 0 0 0 0 0 0 0 0 0 0 0 0 0 0 0 0 0 0 0 0 0 0 0 0 0 0 0 0 0 0 0
0 0 0 0 0 0 0 0 0 0 0 0 0 0 0 0 0 0 0 0 0 0 0 0 0 0 0 0 0 0 0 0 0 0 0 0 0 0 0 0 0 0 0 0 0 0 0 0 0
0 0 0 0 0 0 0 0 0 0 0 0 0 0 0 0 0 0 0 0 0 0 0 0 0 0 0 0 0 0 0 0 0 0 0 0 0 0 0 0 0 0 0 0 0 0 0 0 0
0 0 0 0 0 0 0 0 0 0 0 0 0 0 0 0 0 0 0 0 0 0 0 0 0 0 0 0 0 0 0 0 0 0 0 0 0 0 0 0 0 0 0 0 0 0 0 0 0
0 0 0 0 0 0 0 0 0 0 0 0 0 0 0 0 0 0 0 0 0 0 0 0 0 0 0 0 0 0 0 0 0 0 0 0 0 0 0 0 0 0 0 0 0 0 0 0 0
0 0 0 0 0 0 0 0 0 0 0 0 0 0 0 0 0 0 0 0 0 0 0 0 0 0 0 0 0 0 0 0 0 0 0 0 0 0 0 0 0 0 0 0 0 0 0 0 0
0 0 0 0 0 0 0 0 0 0 0 0 0 0 0 0 0 0 0 0 0 0 0 0 0 0 0 0 0 0 0 0 0 0 0 0 0 0 0 0 0 0 0 0 0 4 0 0 0
0 0 0 0 0 0 0 0 0 0 0 0 0 0 0 0 0 0 0 0 0 0 0 0 0 0 0 0 0 0 0 0 0 0 0 0 0 0 0 0 0 0 0 0 0 0 0 0 0
0 0 0 0 0 7 12 0 0 0 0 0 0 0 0 0 0 0 0 0 0 0 0 0 0 0 0 0 0 0 0 0 0 0 0 0 0 0 0 0 0 0 0 0 0 0 0 0 0
0 0 0 0 0 0 0 0 0 0 0 0 0 0 0 0 0 0 0 0 0 0 0 0 0 0 0 0 0 0 0 0 0 0 0 0 0 0 0 0 0 0 0 0 0 0 0 0 0

GFSSGP_con_sbcape_006.txt.gz
CAPE
0 0 0 0 0 0 0 0 0 0 43 38 37 16 162 273 142 37 171 53 94 286 509 812 1328 1609 1922 2226 2269 2204 2183 2171 2134 1985 1757 1596 1346 1351 1490 1045 677 425 297 398 775 1068 1429 1654 1435
0 0 0 0 0 0 0 0 0 0 151 125 163 200 379 555 533 438 156 47 165 316 464 856 1282 1532 1798 2028 2383 2537 2594 2362 2290 2168 2021 1857 1701 1653 1511 1106 852 398 347 466 648 521 1243 1347 932
0 0 0 0 0 0 0 0 7 59 91 16 377 336 443 695 653 546 181 134 371 406 463 1040 1242 1409 1711 1799 1931 2252 2557 2639 2563 2396 2267 2076 1844 1663 1633 976 397 426 538 451 606 872 843 975 686
0 0 0 0 0 0 0 0 0 52 27 205 371 512 399 439 785 458 209 379 305 283 369 1059 1211 1420 1700 1717 1629 1825 2078 2213 2199 2163 2140 1960 1688 1304 1221 865 590 727 765 793 887 888 1139 1238 720
0 0 0 0 0 0 0 0 0 0 14 9 106 519 609 665 494 321 366 332 276 334 412 796 1167 1466 1749 1638 1566 1771 1843 1989 2178 2241 2110 1922 1628 1224 469 471 850 777 993 868 711 748 557 686 471
0 0 0 0 0 0 0 0 0 0 0 81 236 391 549 660 547 452 454 348 367 481 576 614 979 1209 1519 1583 1492 1506 1589 1631 1673 1847 1992 1676 1316 1178 1040 950 945 865 940 933 838 736 401 265 255
0 0 0 0 0 0 0 0 0 0 0 0 165 508 643 676 681 588 637 378 506 538 586 530 631 741 909 978 1046 1174 1400 1498 1357 1237 1364 1248 1129 972 687 586 534 404 370 154 175 224 397 363 152
0 0 0 0 0 0 0 0 0 0 0 0 0 425 544 714 650 646 853 690 586 608 524 421 339 258 197 344 639 806 1060 1309 1154 884 643 528 646 535 305 57 201 146 99 53 24 3 0 0 0
0 0 0 0 0 0 0 0 0 0 0 0 0 47 7 581 380 624 791 934 950 799 554 337 296 116 0 0 199 556 844 1081 1071 767 497 168 0 0 0 2 25 83 9 0 0 0 0 0 0
0 0 0 0 0 0 0 0 0 0 0 7 29 3 107 312 357 677 925 1119 1016 1039 845 427 376 230 4 0 5 30 111 420 683 530 152 0 0 0 0 0 0 0 0 0 0 0 0 0 0
0 0 0 0 0 0 0 0 0 0 0 0 0 13 252 411 154 507 690 879 941 808 928 773 513 319 164 37 0 0 0 0 17 203 11 0 0 0 0 0 0 0 0 0 0 0 0 0 0
0 0 0 0 0 0 0 0 0 0 0 0 0 6 244 581 350 168 244 429 246 398 838 600 449 300 57 15 15 2 0 0 0 0 0 0 0 0 0 0 0 0 0 0 0 0 0 0 0
0 0 0 0 0 0 0 0 0 0 0 0 0 0 423 580 461 2 21 11 0 51 39 2 0 0 0 0 0 0 0 0 0 0 0 0 0 0 0 0 0 0 0 0 0 0 0 0 0
0 0 0 0 0 0 0 0 0 0 0 0 0 0 60 294 333 0 0 0 0 0 0 0 0 0 0 0 0 0 0 0 0 0 0 0 0 0 0 0 0 0 0 0 0 0 0 0 0
0 0 0 0 0 0 0 0 0 0 0 0 0 0 0 0 0 0 0 0 0 0 0 0 0 0 0 0 0 0 0 0 0 0 0 0 0 0 0 0 0 0 0 0 0 0 0 0 0
0 0 0 0 0 0 0 0 0 0 0 0 0 0 0 0 0 0 0 0 0 0 0 0 0 0 0 0 0 0 0 0 0 0 0 0 0 0 0 0 0 0 0 0 0 0 0 0 0
0 0 0 0 0 0 0 0 0 0 0 0 0 0 0 0 0 0 0 0 0 0 0 0 0 0 0 0 0 0 0 0 0 0 0 0 0 0 0 0 0 0 0 0 0 0 0 0 0
0 0 0 0 0 0 0 0 0 0 0 0 0 0 0 0 0 0 0 0 0 0 0 0 0 0 0 0 0 0 0 0 0 0 0 0 0 0 0 0 0 0 0 0 0 0 0 0 0
0 0 0 0 0 0 0 0 0 0 0 0 0 0 0 0 0 0 0 0 0 0 0 0 0 0 0 0 0 0 0 0 0 0 0 0 0 0 0 0 0 0 0 0 0 0 0 0 0
0 0 0 0 0 0 0 0 0 0 0 0 0 0 0 0 0 0 0 0 0 0 0 0 0 0 0 0 0 0 0 0 0 0 0 0 0 0 0 0 0 0 0 0 0 0 0 0 0
0 0 0 0 0 0 0 0 0 0 0 0 0 0 0 0 0 0 0 0 0 0 0 0 0 0 0 0 0 0 0 0 0 0 0 0 0 0 0 0 0 0 0 0 0 0 0 0 0
0 0 0 0 0 0 0 0 0 0 0 0 0 0 0 0 0 0 0 0 0 0 0 0 0 0 0 0 0 0 0 0 0 0 0 0 0 0 0 0 0 0 0 0 0 0 0 0 0
0 0 0 0 0 0 0 0 0 0 0 0 0 0 0 0 0 0 0 0 0 0 0 0 0 0 0 0 0 0 0 0 0 0 0 0 0 0 0 0 0 0 0 0 0 0 0 0 0
0 0 0 0 0 0 0 0 0 0 0 0 0 0 0 0 0 0 0 0 0 0 0 0 0 0 0 0 0 0 0 0 0 0 0 0 0 0 0 0 0 0 0 0 0 0 0 0 0
0 0 0 0 0 0 0 0 0 0 0 0 0 0 0 0 0 0 0 0 0 0 0 0 0 0 0 0 0 0 0 0 0 0 0 0 0 0 0 0 0 0 0 0 0 0 0 0 0
0 0 0 0 0 0 0 0 0 0 0 0 0 0 0 0 0 0 0 0 0 0 0 0 0 0 0 0 0 0 0 0 0 0 0 0 0 0 0 0 0 0 0 0 0 0 0 0 2
0 0 0 0 0 0 0 0 0 0 0 0 0 0 0 0 0 0 0 0 0 0 0 0 0 0 0 0 0 0 0 0 0 0 0 0 0 0 0 0 0 0 0 0 0 0 0 0 0
0 0 0 0 0 0 0 0 0 0 0 0 0 0 0 0 0 0 0 0 0 0 0 0 0 0 0 0 0 0 0 0 0 0 0 0 0 0 0 0 0 0 0 0 0 0 0 1 0
0 0 0 0 0 0 1 0 0 0 0 0 0 0 0 0 0 0 0 0 0 0 0 0 0 0 0 0 0 0 0 0 0 0 0 0 0 0 0 0 0 0 0 0 0 0 0 0 0
0 0 0 0 0 0 0 0 0 0 0 0 0 0 0 0 0 0 0 0 0 0 0 0 0 0 0 0 0 0 0 0 0 0 0 0 0 0 0 0 0 0 0 0 0 0 0 0 0

GFSSGP_con_sbcape_009.txt.gz
CAPE
0 0 0 0 0 0 0 0 0 0 73 56 51 44 155 249 87 82 220 133 178 478 707 986 1159 1489 1708 1869 1845 1813 2148 2044 1948 1872 1715 1556 1559 1455 1423 1154 957 670 508 549 725 690 1485 1864 1567
0 0 0 0 0 0 0 0 0 23 179 123 168 243 354 276 502 403 318 103 164 354 657 991 1154 1426 1753 2092 2152 2293 2295 2213 2136 1982 1806 1665 1609 1645 1448 1335 742 499 588 585 809 1089 936 1040 785
0 0 0 0 0 0 0 0 89 116 18 96 370 319 410 564 540 463 313 111 240 372 665 1054 1125 1275 1550 1841 2172 2433 2555 2521 2471 2259 2126 1961 1839 1677 1596 973 475 701 825 869 958 957 1170 1199 850
0 0 0 0 0 0 0 0 150 69 45 280 360 360 390 413 683 628 112 243 317 345 695 911 1024 1245 1423 1544 1671 1867 1971 1999 2036 2101 2029 1853 1616 1350 1051 868 803 869 974 1130 1025 1219 1078 1057 819
0 0 0 0 0 0 0 0 0 5 27 103 181 456 548 709 616 309 356 384 232 286 543 830 904 1148 1401 1354 1413 1545 1691 1844 1971 1978 1852 1741 1400 890 531 417 735 893 1023 995 1016 800 515 397 202
0 0 0 0 0 0 0 0 0 1 54 133 303 361 544 585 510 454 458 345 243 232 461 689 946 1139 1254 1311 1307 1311 1393 1420 1482 1615 1737 1499 1254 1079 946 907 761 662 454 381 494 593 641 632 560
0 0 0 0 0 0 0 0 0 0 0 0 173 265 541 774 696 624 546 352 404 456 462 599 645 732 858 812 840 973 1142 1102 1032 1083 1105 961 945 697 484 409 405 268 184 139 132 148 103 51 2
0 0 0 0 0 0 0 0 0 0 0 0 21 170 676 874 781 768 756 514 596 675 593 671 688 532 538 620 452 656 878 1019 823 652 404 322 393 235 137 0 45 84 57 23 6 0 0 0 0
0 0 0 0 0 0 0 0 0 0 0 0 0 180 35 963 816 1013 1161 832 819 743 768 726 668 450 295 292 382 402 644 877 806 579 256 146 228 92 4 0 0 3 0 0 0 0 0 0 0
0 0 0 0 0 0 0 0 0 0 0 0 0 1 334 836 1047 1251 1411 1281 1184 1128 1119 850 824 747 315 26 337 492 428 763 1041 934 644 329 179 30 2 0 0 0 0 0 0 0 0 0 0
0 0 0 0 0 0 0 0 0 0 0 0 0 78 616 957 1182 1374 1575 1493 1466 1402 1367 997 1058 996 680 286 353 347 308 465 627 924 796 338 116 63 27 0 0 0 0 0 0 0 0 0 0
0 0 0 0 0 0 0 0 0 0 0 0 0 261 694 808 996 1395 1553 1634 1448 1416 1622 1567 1210 1093 1124 883 736 483 411 384 505 490 515 518 324 110 3 0 0 0 0 0 0 0 0 0 0
0 0 0 0 0 0 0 0 0 0 0 0 0 168 756 905 854 1020 1323 1382 1130 1188 1345 1580 1261 968 579 234 412 540 556 554 573 495 347 201 183 131 0 0 0 0 0 0 0 0 0 0 0
0 0 0 0 0 0 0 0 0 0 0 0 0 27 598 945 1008 540 267 625 508 614 829 576 232 122 19 13 97 192 255 376 357 424 368 134 90 68 0 0 0 0 0 0 0 0 0 0 0
0 0 0 0 0 0 0 0 0 0 0 0 0 0 135 588 641 620 94 16 5 83 24 7 1 0 8 0 0 0 0 0 20 125 75 39 33 30 17 25 29 32 18 0 0 0 0 0 0
0 0 0 0 0 0 0 0 0 0 0 0 0 0 0 0 0 0 0 0 0 0 0 0 0 0 0 0 0 0 0 0 0 0 0 0 0 5 27 22 26 39 44 11 0 0 0 0 0
0 0 0 0 0 0 0 0 0 0 0 0 0 0 0 0 0 0 0 0 0 0 0 0 0 0 0 0 0 0 0 0 0 0 0 0 0 0 16 6 0 0 0 0 0 0 0 0 0
0 0 0 0 0 0 0 0 0 0 0 0 0 0 0 0 0 0 0 0 0 0 0 0 0 0 0 0 0 0 0 0 0 0 0 0 0 0 0 0 0 0 0 0 0 0 0 0 0
0 0 0 0 0 0 0 0 0 0 0 0 0 0 0 0 0 0 0 0 0 0 0 0 0 0 0 0 0 0 0 0 0 0 0 0 0 0 0 0 0 0 0 0 0 0 0 0 0
0 0 0 0 0 0 0 0 0 0 0 0 0 0 0 0 0 0 0 0 0 0 0 0 0 0 0 0 0 0 0 0 0 0 0 0 0 0 0 0 0 0 0 0 0 0 0 0 0
0 0 0 0 0 0 0 0 0 0 0 0 0 0 0 0 0 0 0 0 0 0 0 0 0 0 0 0 0 0 0 0 0 0 0 0 0 0 0 0 0 0 0 0 0 0 0 0 0
0 0 0 0 0 0 0 0 0 0 0 0 0 0 0 0 0 0 0 0 0 0 0 0 0 0 0 0 0 0 0 0 0 0 0 0 0 0 0 0 0 0 0 0 0 0 0 0 0
0 0 0 0 0 0 0 0 0 0 0 0 0 0 0 0 0 0 0 0 0 0 0 0 0 0 0 0 0 0 0 0 0 0 0 0 0 0 0 0 0 0 0 0 0 0 0 0 0
0 0 0 0 0 0 0 0 0 0 0 0 0 0 0 0 0 0 0 0 0 0 0 0 0 0 0 0 0 0 0 0 0 0 0 0 0 0 0 0 0 0 0 0 0 0 0 1 0
0 0 0 0 0 0 0 0 0 0 0 0 0 0 0 0 0 0 0 0 0 0 0 0 0 0 0 0 0 0 0 0 0 0 0 0 0 0 0 0 0 0 0 1 2 11 16 15 11
0 0 0 0 0 0 0 0 0 0 0 0 0 0 0 0 0 0 0 0 0 0 0 0 0 0 0 0 0 0 0 0 0 0 0 0 0 0 0 0 0 0 0 0 1 2 0 0 4
0 0 0 0 0 0 0 0 0 0 0 0 0 0 0 0 0 0 0 0 0 0 0 0 0 0 0 0 0 0 0 0 0 0 0 0 0 0 0 0 0 0 1 5 0 0 0 0 2
0 0 0 0 0 0 0 0 0 0 0 0 0 0 0 0 0 0 0 0 0 0 0 0 0 0 0 0 0 0 0 0 0 0 0 0 0 0 1 0 0 0 0 2 10 27 19 8 11
0 0 0 0 0 0 0 0 0 0 0 0 0 0 0 0 0 0 0 0 0 0 0 0 0 0 0 0 0 0 0 0 0 0 0 0 0 0 0 0 0 0 1 3 21 25 22 6 0
0 0 0 0 0 0 0 0 0 0 0 0 0 0 0 0 0 0 0 0 0 0 0 0 0 0 0 0 0 0 0 0 0 0 0 0 0 0 0 0 0 2 2 10 1 0 0 0 0

GFSSGP_con_sbcape_012.txt.gz
CAPE
0 0 0 0 0 0 0 0 0 71 70 113 80 54 160 303 237 352 445 301 92 378 838 1062 1099 1503 1673 1731 1687 1788 1781 1801 1876 1798 1532 1472 1605 1479 1298 1209 981 745 737 715 914 1048 1627 1480 1077
0 0 0 0 0 0 0 0 0 51 120 122 134 172 103 119 285 401 410 190 104 385 784 1083 1038 1465 1952 1909 2006 2143 2038 1965 1845 1747 1655 1589 1618 1568 1516 1002 643 741 827 864 914 1206 1376 1324 1002
0 0 0 0 0 0 0 0 67 141 98 191 230 298 296 189 326 384 288 83 48 289 583 949 996 1270 1651 1840 2010 2170 2174 2150 2071 2067 2009 1887 1689 1439 1232 849 760 962 1092 1239 1320 1488 1473 1200 901
0 0 0 0 0 0 0 6 21 96 231 239 71 132 329 548 520 496 335 166 20 107 342 674 871 1109 1304 1348 1552 1685 1751 1781 1867 1912 1872 1727 1476 1154 520 608 858 900 1113 1049 1061 936 691 636 516
0 0 0 0 0 0 0 40 80 59 141 266 212 225 335 727 779 536 518 285 108 131 300 366 730 919 1151 1128 1182 1325 1483 1592 1694 1707 1593 1536 1042 850 837 705 896 962 973 846 925 765 554 457 747
0 0 0 0 0 0 0 4 0 0 29 118 122 129 339 804 610 577 491 241 100 173 330 295 555 862 1081 1097 1060 1153 1145 1133 1239 1430 1501 1261 1063 875 811 688 573 486 332 366 420 677 635 398 187
0 0 0 0 0 0 0 0 0 0 0 0 50 57 376 696 540 546 289 172 164 111 205 405 441 602 697 618 714 854 957 875 810 879 860 792 739 475 334 272 247 179 115 62 48 57 39 4 0
0 0 0 0 0 0 0 0 0 0 0 113 71 4 147 450 727 652 374 258 290 420 405 638 799 663 696 619 303 484 661 769 597 462 245 213 311 111 13 0 5 21 2 0 0 0 0 0 0
0 0 0 0 0 0 0 0 0 0 0 0 0 17 122 613 904 881 744 565 631 767 996 1096 1049 953 764 507 462 162 373 667 555 470 155 234 458 426 99 0 0 0 0 0 0 0 0 0 0
0 0 0 0 0 0 0 0 0 0 0 0 0 70 459 962 1107 1172 1115 808 1055 1124 1309 1472 1559 1379 1040 227 695 709 621 692 961 1047 1167 830 852 641 53 0 0 0 0 0 0 0 0 0 0
0 0 0 0 0 0 0 0 0 0 0 0 0 24 586 1005 1178 1160 966 317 632 1034 1393 1550 1892 1819 1431 562 536 409 401 539 769 1329 1438 1038 975 734 522 382 39 2 0 0 0 0 0 0 0
0 0 0 0 0 0 0 0 0 0 0 0 0 0 304 699 732 522 498 303 311 834 1398 1770 1906 2023 1883 951 508 442 493 486 654 759 1419 1261 932 677 572 217 12 0 0 0 0 0 0 0 0
0 0 0 0 0 0 0 0 0 0 0 0 0 3 12 185 237 384 327 271 626 1282 1694 2094 2236 2192 1469 1160 506 780 859 526 790 777 669 1192 751 501 286 54 0 0 0 0 0 0 0 0 0
0 0 0 0 0 0 0 0 0 0 0 0 0 0 13 43 12 168 522 676 1120 1363 1616 2143 2386 2123 729 434 614 454 473 384 485 229 196 720 824 229 60 3 0 0 0 0 0 0 0 0 0
0 0 0 0 0 0 0 0 0 0 0 0 0 0 0 35 32 71 204 672 1016 1022 1169 1836 2001 1026 516 279 138 27 8 33 7 13 77 224 322 96 87 29 1 0 0 0 0 0 0 0 0
0 0 0 0 0 0 0 0 0 0 0 0 0 0 0 26 170 413 792 644 252 241 562 1163 895 398 325 67 35 8 4 15 10 12 23 38 56 79 83 43 28 25 31 0 0 0 0 0 0
0 0 0 0 0 0 0 0 0 0 0 0 0 0 0 0 337 152 0 0 4 1 132 704 709 195 75 38 27 33 47 51 11 14 3 1 19 31 64 28 23 59 46 4 0 0 0 0 0
0 0 0 0 0 0 0 0 0 0 0 0 0 0 0 0 14 0 0 0 0 3 142 461 244 54 29 3 0 0 0 0 0 0 0 0 0 0 0 0 6 29 37 20 2 7 0 0 0
0 0 0 0 0 0 0 0 0 0 0 0 0 0 0 0 0 0 0 0 0 0 14 16 2 0 0 0 0 0 0 0 0 0 0 0 0 0 0 0 0 2 2 15 31 24 19 12 5
0 0 0 0 0 0 0 0 0 0 0 0 0 0 0 0 0 0 0 0 0 0 0 0 0 0 0 0 0 0 0 0 0 0 0 0 0 0 0 0 0 0 0 0 16 35 49 37 16
0 0 0 0 0 0 0 0 0 0 0 0 0 0 0 0 0 0 0 0 0 0 0 0 0 0 0 0 0 0 0 0 0 0 0 0 0 0 0 0 0 0 0 0 0 0 13 34 60
0 0 0 0 0 0 0 0 0 0 0 0 0 0 0 0 0 0 0 0 0 0 0 0 0 0 0 0 0 0 0 0 0 0 0 0 0 0 0 0 0 0 0 0 0 0 3 14 21
0 0 0 0 0 0 0 0 0 0 0 0 0 0 0 0 0 0 0 0 0 0 0 0 0 0 0 0 0 0 0 0 0 0 0 0 0 0 0 0 0 0 0 0 0 0 3 12 30
0 0 0 0 0 0 0 0 1 0 0 0 0 0 0 0 0 0 0 0 0 0 0 0 0 0 0 0 0 0 0 0 0 0 0 0 0 0 0 0 0 0 0 1 2 6 12 12 8
0 0 0 1 1 0 0 0 0 0 0 0 0 0 0 0 0 0 0 0 0 0 0 0 0 0 0 0 0 0 0 0 0 0 0 0 0 0 0 0 2 4 6 6 9 6 3 3 2
0 0 0 0 0 0 0 0 0 0 0 0 0 0 0 0 0 0 0 0 0 0 0 0 0 0 0 0 0 0 0 0 0 0 0 0 0 0 0 6 12 15 15 17 27 28 16 5 6
0 0 0 0 0 0 0 0 0 0 0 0 0 0 0 0 0 0 0 0 0 0 0 0 0 0 0 0 0 0 0 0 0 0 0 0 0 0 7 17 27 25 19 9 11 16 17 24 20
0 0 0 0 0 0 0 0 1 0 0 0 0 0 0 0 0 0 0 0 0 2 0 0 0 0 2 0 0 0 0 0 0 0 0 0 5 19 15 15 13 15 14 10 9 15 13 23 30
0 0 0 0 0 0 0 0 0 0 0 0 0 0 0 0 0 0 0 0 0 0 2 6 5 2 0 0 0 0 0 0 0 0 1 9 16 5 8 8 13 18 14 13 18 26 21 12 11
0 0 0 0 0 2 1 0 0 0 0 0 0 0 0 2 11 4 0 0 3 2 0 0 0 0 0 0 0 0 0 1 13 18 16 25 30 35 36 34 24 15 18 28 9 11 9 4 3

GFSSGP_con_sbcape_015.txt.gz
CAPE
0 0 0 0 0 0 0 8 23 14 11 1 0 7 10 130 304 327 156 35 273 722 772 972 1237 1565 1446 1409 1422 1595 1540 1579 1594 1437 1431 1529 1386 1347 1274 1018 821 883 881 897 1016 1308 1499 1396 1135
0 0 0 0 0 0 5 0 37 45 1 0 0 13 13 65 200 240 69 64 304 663 870 1067 1128 1674 1828 1887 1896 1861 1739 1583 1495 1497 1498 1507 1485 1510 1198 800 807 925 1055 1242 1275 1200 1445 1168 915
0 0 0 0 0 4 2 1 43 7 0 39 11 31 79 89 125 148 44 61 202 395 736 900 1001 1355 1727 1862 1958 2002 1904 1815 1840 1839 1778 1690 1506 1317 956 746 873 987 1156 1178 1204 1289 1280 1234 1029
0 0 0 0 5 0 4 39 28 0 29 44 0 29 265 225 193 144 27 17 92 177 418 634 916 1141 1330 1354 1450 1536 1523 1642 1730 1746 1685 1593 1337 692 461 697 848 1026 1068 1048 1000 769 546 416 414
0 0 0 0 0 3 31 23 20 74 57 21 1 0 268 490 322 145 49 0 1 11 86 406 689 949 955 891 997 1142 1234 1352 1438 1448 1466 1206 902 872 786 818 815 619 483 552 714 839 812 781 636
0 0 2 4 3 1 0 1 1 14 5 0 16 63 358 446 249 204 60 0 0 36 90 70 438 739 839 751 815 861 846 894 1035 1264 1241 994 750 605 539 492 380 310 219 203 261 340 259 174 67
0 0 7 3 0 0 0 0 0 0 0 0 0 22 220 234 229 85 1 0 0 24 92 145 195 351 592 578 659 728 675 611 577 588 595 622 454 265 162 135 126 103 60 25 5 7 3 0 0
0 0 0 0 0 0 0 0 0 0 0 0 0 0 152 217 145 13 0 0 15 66 310 402 413 354 544 643 415 515 582 566 404 288 145 179 324 157 30 5 15 1 0 0 0 0 0 0 0
0 0 0 0 0 0 0 0 0 0 0 0 0 1 76 276 216 79 32 37 283 345 616 562 572 409 241 85 325 104 403 586 482 441 226 266 524 366 257 0 0 0 0 0 0 0 0 0 0
0 0 0 0 0 0 0 0 0 0 0 0 0 0 205 334 254 188 119 181 328 534 622 812 1071 725 353 2 213 261 170 430 511 633 827 582 650 514 188 3 0 0 0 0 0 0 0 0 0
0 0 0 0 0 0 0 0 0 0 0 0 0 0 211 309 398 375 300 165 215 541 379 707 1768 1324 610 221 51 117 136 211 363 682 882 622 681 565 380 237 118 81 4 13 2 5 6 1 0
0 0 0 0 0 0 0 0 0 0 0 0 0 0 101 236 343 374 341 39 75 281 396 657 1683 1855 1119 354 81 119 121 284 235 536 519 439 326 295 214 21 2 4 4 1 4 2 5 4 0
0 0 0 0 0 0 0 0 0 0 0 0 0 0 13 161 181 84 168 167 103 271 446 648 1351 2323 1024 537 133 206 300 296 441 290 192 219 182 135 7 0 0 0 2 4 2 0 0 0 0
0 0 0 0 0 0 0 0 0 0 0 0 0 0 0 1 19 59 162 216 301 412 519 695 1240 2282 998 107 166 215 270 224 179 27 29 58 141 127 61 37 16 1 0 0 0 0 0 0 0
0 0 0 0 0 0 0 0 0 0 0 0 0 0 0 0 0 24 82 226 245 366 465 909 1516 2047 788 161 79 34 4 1 0 0 10 29 71 74 92 57 65 47 66 114 36 6 7 6 2
0 0 1 0 0 0 0 3 0 0 0 0 0 0 0 0 0 6 1 114 230 218 209 497 1439 1682 722 41 27 15 4 5 14 19 20 24 50 52 82 45 59 117 127 44 62 6 6 9 7
0 22 0 0 0 0 0 18 0 0 0 0 0 0 0 0 2 65 284 142 27 13 20 297 1397 1161 363 71 39 50 46 66 35 36 11 0 4 0 23 31 62 197 106 175 126 91 96 43 22
2 0 0 0 0 0 0 0 0 0 0 0 0 0 0 0 9 149 0 0 0 3 129 493 1135 557 154 56 29 2 0 0 2 0 0 0 1 0 0 2 58 60 7 44 86 225 119 199 147
0 0 0 0 0 0 0 0 0 0 0 0 0 0 0 0 0 0 0 0 0 82 286 460 212 4 0 0 0 0 0 1 1 10 4 3 0 0 0 0 0 1 0 21 95 113 149 125 240
0 0 0 0 0 0 0 0 0 0 0 0 0 0 0 0 0 0 0 0 0 0 0 0 0 0 0 0 0 0 0 1 3 16 0 0 0 0 0 0 0 0 0 5 37 90 81 118 200
0 0 0 0 0 0 0 0 0 0 0 0 0 0 0 0 0 0 0 0 0 0 0 0 0 0 0 0 0 0 0 0 0 0 0 0 0 0 0 0 0 0 0 0 21 32 63 47 72
0 0 0 0 0 8 0 106 0 0 0 0 0 0 0 0 0 0 0 0 0 0 0 0 0 0 0 0 0 0 0 0 0 0 0 0 0 0 0 0 0 2 1 6 15 11 93 107 58
0 0 0 0 0 0 0 0 1 0 0 0 0 0 0 0 0 0 0 0 0 0 0 0 0 0 0 0 0 0 0 0 0 0 0 0 0 0 0 0 0 0 0 3 9 8 19 21 27
0 0 0 0 27 27 29 12 150 11 0 0 0 0 0 0 0 0 0 0 0 0 0 0 0 0 0 0 0 0 0 0 0 0 0 0 0 0 0 0 0 6 10 22 23 16 5 9 8
0 1 163 186 148 207 0 0 74 0 0 0 0 0 0 0 0 0 0 0 0 0 0 0 0 1 1 1 0 1 1 0 1 0 0 0 0 0 0 0 4 12 27 43 34 12 6 6 6
0 1 113 1 48 49 0 0 29 0 0 0 0 0 0 0 0 0 0 0 1 2 1 0 0 0 1 7 8 5 2 0 0 0 0 0 0 1 2 12 33 32 43 14 5 0 0 1 6
3 0 0 0 0 2 0 5 0 0 0 0 0 0 0 0 0 1 2 12 4 2 3 0 0 0 0 1 8 9 5 3 1 0 0 0 0 1 19 17 26 28 0 4 20 14 25 25 21
0 0 21 1 0 0 10 0 80 18 16 2 12 12 10 5 10 15 17 19 11 1 0 1 1 9 14 10 20 15 15 8 0 0 3 7 15 24 24 43 54 17 10 5 11 17 26 52 74
2 4 0 0 0 2 0 0 2 9 3 0 0 1 8 21 25 29 28 20 18 27 21 16 15 15 12 9 7 8 7 2 5 12 24 31 29 29 40 34 40 30 12 26 41 39 45 22 21
0 0 0 0 0 4 1 0 0 0 1 0 0 22 4 17 33 20 19 12 18 15 11 4 3 1 3 7 3 2 6 13 30 24 22 23 32 39 62 65 21 42 58 48 37 45 41 31 36

GFSSGP_con_sbcape_018.txt.gz
CAPE
0 0 0 0 0 0 0 6 31 0 0 0 0 0 0 42 223 85 20 304 609 577 758 929 1276 1428 1450 1570 1665 1547 1611 1557 1490 1565 1566 1425 1282 1226 989 861 895 992 1152 1252 1179 1399 1504 1247 996
0 0 0 0 0 0 0 7 8 0 0 0 1 16 1 28 53 4 69 373 583 813 843 1067 1255 1491 1644 1781 1792 1627 1510 1425 1573 1510 1365 1316 1344 1168 869 761 919 1019 1131 1174 1259 1400 1353 1210 1049
0 0 0 0 0 0 0 14 3 0 0 25 1 40 19 35 2 0 55 252 411 664 736 881 1076 1327 1580 1684 1767 1740 1739 1767 1790 1769 1574 1410 1231 742 560 684 820 963 979 972 879 737 582 564 511
0 0 0 0 0 0 0 29 0 0 0 28 22 61 61 20 0 0 12 89 146 380 523 553 799 1068 1278 1395 1490 1451 1465 1575 1616 1625 1384 1152 700 465 564 774 824 648 566 656 729 687 626 660 617
0 0 0 0 1 14 27 3 0 4 7 0 24 79 151 55 0 0 0 0 3 151 326 387 626 887 1002 1046 972 1158 1229 1295 1341 1327 1044 821 709 645 594 490 359 296 237 293 504 537 415 273 135
0 0 0 0 3 0 1 0 4 57 2 0 42 90 218 66 4 0 0 0 0 34 38 68 668 830 810 901 907 873 887 972 1191 1213 911 651 467 385 363 291 223 131 77 49 47 61 70 40 2
0 0 0 1 0 0 0 0 0 1 0 0 2 74 153 79 27 0 0 0 0 0 0 24 49 379 541 543 616 633 648 611 666 663 588 507 372 279 172 120 82 33 2 0 0 0 0 0 0
0 0 0 0 0 0 0 0 0 0 0 0 0 48 103 116 0 0 0 0 0 34 116 203 288 267 271 123 417 513 530 449 390 297 204 269 278 215 77 114 20 0 0 0 0 0 0 0 0
0 0 0 0 0 0 0 0 0 0 0 0 0 0 135 87 0 0 0 0 10 113 491 394 279 311 451 340 243 434 605 491 360 350 186 111 297 222 105 0 0 0 0 0 0 0 0 0 0
0 0 0 0 0 0 0 0 0 0 0 0 0 197 221 94 46 0 0 0 168 455 473 730 727 518 235 1 193 586 580 442 557 727 792 715 672 489 148 59 0 2 0 4 0 0 0 0 0
0 0 0 0 0 0 0 0 0 0 0 0 0 196 263 171 68 18 0 20 154 307 414 873 1496 1031 588 507 13 414 417 482 1032 1340 684 864 550 869 409 308 99 0 8 16 0 2 0 17 0
0 0 0 0 0 0 0 0 0 0 0 0 0 24 230 144 91 129 114 60 82 389 245 1236 1579 1606 898 522 267 315 433 342 585 534 697 533 367 418 165 58 0 0 0 1 8 0 20 3 13
0 0 0 0 0 0 0 0 0 0 0 0 0 0 93 53 129 176 225 52 68 165 409 577 1640 2033 1398 682 646 629 578 804 497 486 454 369 250 352 222 81 25 0 0 0 0 0 0 0 0
0 0 0 0 0 0 0 0 0 0 0 0 0 0 8 88 158 113 196 268 262 345 652 1068 1402 2334 1289 318 325 529 711 743 634 182 46 96 160 271 184 77 65 21 0 0 0 0 0 0 0
0 0 0 0 0 0 0 0 0 0 0 0 0 0 0 3 36 81 193 456 409 390 405 853 355 2083 1113 256 201 196 95 1 35 60 37 42 71 89 129 93 69 78 96 77 26 1 0 0 0
0 0 0 0 0 0 0 0 0 0 0 0 0 0 0 8 12 63 240 227 204 290 70 421 1029 1903 1087 507 145 79 81 63 44 53 85 32 37 87 100 92 97 119 130 86 79 59 21 0 0
0 0 5 0 0 0 0 0 0 0 0 0 0 0 0 0 19 54 87 272 148 38 92 160 1705 1583 1060 283 85 109 79 68 99 27 30 9 2 61 15 14 41 81 37 27 27 3 6 11 0
0 1 0 0 0 0 0 0 1 0 0 0 0 0 0 0 28 325 25 0 0 206 210 487 707 501 313 131 49 32 21 15 23 9 4 3 0 2 0 0 11 57 0 0 0 4 3 11 16
0 0 0 1 0 0 0 0 0 0 0 0 0 0 0 17 0 0 0 0 123 390 131 258 22 4 0 0 0 0 0 0 8 5 38 0 0 0 0 0 0 0 0 0 0 0 0 0 0
0 0 0 0 0 0 0 0 0 0 0 0 0 0 0 0 0 0 0 0 0 0 0 0 0 0 0 0 0 0 0 7 2 9 1 3 0 0 0 0 0 0 0 0 0 0 0 0 1
0 0 1 0 0 0 0 0 0 0 0 0 0 0 0 0 0 0 0 0 0 0 0 0 0 0 0 0 0 0 0 0 0 0 0 0 0 0 0 0 0 0 0 0 0 0 0 0 0
0 0 0 0 0 1 0 2 0 0 0 0 0 0 0 0 0 0 0 0 0 0 0 0 0 0 0 0 0 0 0 0 0 0 0 0 0 0 0 0 0 0 0 0 0 3 3 4 0
0 0 0 0 0 0 0 35 58 0 0 0 0 0 0 0 0 0 0 0 0 0 0 0 0 0 0 0 0 0 0 0 0 0 0 0 0 0 0 0 0 0 0 0 20 5 0 0 0
0 2 0 0 10 310 19 77 52 0 0 0 0 0 0 0 0 0 0 0 0 0 0 0 0 0 0 0 0 0 1 0 0 0 0 0 0 0 0 0 0 2 11 0 0 0 0 0 0
0 13 426 433 571 510 63 3 96 0 0 0 0 0 0 0 0 1 1 0 3 3 1 0 0 0 0 11 8 12 0 0 0 0 0 0 0 0 0 3 3 4 0 0 0 0 0 0 0
0 0 451 62 149 79 0 5 0 0 0 0 0 0 0 0 0 0 0 0 3 12 10 18 1 0 0 0 0 0 0 0 0 0 0 0 0 0 5 3 26 0 0 3 8 4 0 0 1
4 3 0 12 2 21 3 101 12 0 0 0 0 0 2 5 16 32 21 22 14 0 3 7 0 0 0 0 0 0 0 0 0 0 0 0 2 0 0 4 13 3 15 9 7 2 0 1 29
0 0 9 205 38 0 0 5 47 20 4 0 0 2 0 1 24 14 9 10 6 1 15 19 2 0 0 0 0 0 0 0 0 0 2 0 0 0 0 12 19 17 13 7 8 13 2 13 20
0 4 0 0 11 12 0 0 0 0 15 1 6 0 11 12 0 0 0 0 0 0 1 0 0 0 0 0 0 0 0 0 5 5 0 0 0 0 5 28 27 27 16 21 27 28 11 24 9
0 0 0 32 0 83 25 0 0 0 0 2 0 1 6 3 0 0 0 0 4 3 0 0 0 0 0 0 0 0 0 4 11 0 0 0 3 5 21 28 26 21 40 43 45 39 49 35 30

GFSSGP_con_sbcape_021.txt.gz
CAPE
0 0 0 0 0 0 0 0 0 0 0 0 0 35 3 0 4 0 300 400 486 600 848 940 961 1185 1364 1338 1379 1409 1394 1241 1224 1164 1360 1328 951 777 726 771 951 972 1018 1121 1193 1285 1331 1167 1052
0 0 0 0 0 0 0 0 0 0 0 12 0 0 0 0 7 42 243 520 624 743 870 937 1045 1257 1429 1360 1314 1300 1322 1278 1433 1328 1155 1102 949 720 627 672 844 811 833 912 795 750 638 606 544
0 0 0 0 0 0 0 0 0 0 0 18 10 0 0 0 0 74 493 546 582 696 854 938 1035 1201 1367 1406 1449 1472 1530 1531 1517 1520 1249 896 551 467 500 671 932 650 615 556 522 446 422 490 535
0 0 0 0 0 0 0 0 0 0 0 2 0 0 0 0 1 48 281 273 311 315 469 715 832 993 1201 1277 1272 1305 1349 1332 1345 1312 893 615 520 535 612 515 325 300 293 385 450 479 387 243 153
0 0 0 0 0 0 0 0 0 0 0 12 1 0 0 0 0 0 99 140 169 174 270 446 619 801 968 1009 924 1098 1132 1108 1173 1069 966 621 548 437 332 264 165 102 76 85 88 77 74 43 20
0 0 0 0 0 0 0 0 19 1 0 48 35 0 0 0 0 0 5 7 63 32 77 277 568 617 681 751 717 702 768 939 985 942 855 459 446 441 243 148 66 19 2 0 0 0 0 0 0
0 0 0 0 0 0 0 0 0 0 0 30 35 11 0 0 0 0 0 0 0 0 0 52 183 313 344 355 359 368 423 532 572 543 534 359 301 262 286 139 31 4 0 0 0 0 0 0 0
0 0 0 0 0 0 0 0 0 0 0 0 17 85 9 0 0 0 0 0 0 0 0 0 0 6 21 58 185 172 176 188 131 168 246 194 181 129 107 98 60 1 0 0 0 0 0 0 0
0 0 0 0 0 0 0 0 0 0 0 5 0 67 0 0 0 0 0 0 0 0 0 0 0 0 0 0 106 248 259 225 147 122 102 37 26 57 0 22 41 25 0 0 0 0 0 0 0
0 0 0 0 0 0 0 0 0 0 0 42 68 46 0 0 0 0 0 0 2 40 31 0 0 12 17 1 23 17 98 130 92 87 82 27 24 40 53 0 0 4 0 0 0 0 0 0 0
0 0 0 0 0 0 0 0 0 0 0 13 110 29 0 0 0 0 0 0 2 81 176 101 0 0 0 4 0 28 57 83 155 211 38 3 97 13 0 0 0 0 3 0 0 0 0 0 0
0 0 0 0 0 0 0 0 0 0 0 0 135 70 9 2 0 0 0 0 1 53 303 355 143 65 29 0 0 0 0 3 124 125 3 0 0 0 0 0 0 0 0 0 0 0 0 0 0
0 0 0 0 0 0 0 0 0 0 0 0 124 113 36 0 0 0 0 0 0 22 474 700 468 214 194 4 0 13 68 8 1 13 0 0 1 0 0 0 0 0 0 0 0 0 0 0 0
0 0 0 0 0 0 0 0 0 0 0 0 20 27 2 0 2 0 0 0 48 3 422 881 706 938 267 66 10 72 55 22 17 0 0 0 0 0 0 0 0 0 0 0 0 0 0 0 0
0 0 0 0 0 0 0 0 0 0 0 0 0 0 0 0 1 11 3 3 8 2 831 371 11 0 552 8 2 1 26 0 0 0 0 0 0 0 0 0 0 0 0 0 0 0 0 0 0
0 0 0 0 0 0 0 0 0 0 0 0 0 0 0 0 0 0 1 0 6 150 277 498 568 0 133 1 0 0 0 0 0 0 0 0 0 0 0 0 0 0 0 0 0 0 0 0 0
0 0 0 0 0 0 0 0 0 0 0 0 0 0 0 0 0 8 0 0 0 0 59 231 638 230 78 0 0 0 0 0 0 0 0 0 0 0 0 0 0 0 0 0 0 0 0 0 0
0 0 0 0 0 0 0 0 0 0 0 0 0 0 0 0 0 0 0 0 0 0 0 0 0 0 0 0 0 0 0 0 0 0 0 0 0 0 0 0 0 0 0 0 0 0 0 0 0
0 0 0 0 0 0 0 0 0 0 0 0 0 0 0 0 0 0 0 0 0 0 0 0 0 0 0 0 0 0 0 0 0 0 0 0 0 0 0 0 0 0 0 0 0 0 0 0 0
0 0 0 0 0 0 0 0 0 0 0 0 0 0 0 0 0 0 0 0 0 0 0 0 0 0 0 0 0 0 0 0 0 0 0 0 0 0 0 0 0 0 0 0 0 0 0 0 0
0 0 0 0 0 0 0 0 0 0 0 0 0 0 0 0 0 0 0 0 0 0 0 0 0 0 0 0 0 0 0 0 0 0 0 0 0 0 0 0 0 0 0 0 0 0 0 0 0
0 0 0 0 0 0 0 0 0 0 0 0 0 0 0 0 0 0 0 0 0 0 0 0 0 0 0 0 0 0 0 0 0 0 0 0 0 0 0 0 0 0 0 0 0 0 0 0 0
0 0 0 0 0 0 0 0 0 0 0 0 0 0 0 0 0 0 0 0 0 0 0 0 0 0 0 0 0 0 0 0 0 0 0 0 0 0 0 0 0 0 0 0 0 0 0 0 0
0 0 0 0 0 0 11 0 0 0 0 0 0 0 0 0 0 0 0 0 0 0 0 0 0 0 0 0 0 0 0 0 0 0 0 0 0 0 0 0 0 0 0 0 0 0 0 0 0
0 0 3 8 5 34 3 14 0 0 0 0 0 0 0 0 0 0 0 0 0 0 0 0 0 0 0 0 0 0 0 0 0 0 0 0 0 0 0 0 0 0 0 0 0 0 4 0 0
0 0 0 0 0 0 0 2 0 0 0 0 0 0 0 0 0 0 0 0 0 0 0 0 0 0 0 0 0 0 0 0 0 0 0 0 0 0 0 0 0 2 4 0 0 0 0 0 0
0 0 0 0 0 0 0 0 0 0 0 0 0 0 0 0 0 0 0 0 0 0 0 0 0 0 0 0 0 0 0 0 0 0 0 0 0 0 0 0 0 9 11 4 0 0 0 0 0
0 0 0 0 0 0 0 5 0 0 0 0 0 0 0 0 0 0 0 0 0 0 0 0 0 0 0 0 0 0 0 0 0 0 0 0 0 0 0 0 0 9 14 6 2 2 5 7 5
0 0 0 0 0 0 0 0 0 15 21 3 0 0 0 0 0 0 0 0 0 0 0 0 0 0 0 0 0 0 0 0 0 0 0 0 0 0 0 0 0 4 18 23 22 14 18 25 18
0 0 0 0 0 0 0 0 0 0 0 0 0 0 0 0 0 0 0 0 0 0 0 0 0 0 0 0 0 0 0 0 0 0 0 0 0 0 0 0 0 0 0 0 0 0 0 0 0

GFSSGP_con_sbcape_024.txt.gz
CAPE
0 0 0 0 0 0 0 0 0 0 0 3 1 0 0 0 10 61 282 410 591 689 654 717 945 1150 1254 1270 1337 1354 1315 1031 959 978 909 784 669 634 660 686 699 700 749 751 683 616 626 583 487
0 0 0 0 0 0 0 0 0 0 0 0 0 23 34 157 209 306 362 454 628 698 667 825 1020 1076 1131 1165 1236 1204 1113 1046 1012 978 895 745 575 476 456 635 723 637 486 337 290 287 308 351 395
0 0 0 0 0 0 0 0 0 0 0 0 0 0 0 14 176 305 429 601 651 644 745 936 995 1040 1142 1196 1239 1253 1291 1302 1335 1203 746 500 410 438 525 462 360 264 255 261 284 290 290 192 135
0 0 0 0 0 0 1 0 1 0 0 0 0 0 0 31 100 472 505 482 447 507 619 732 883 1012 1141 1201 1183 1241 1229 1187 1178 956 614 435 457 427 258 213 147 81 74 78 75 68 48 32 22
0 0 0 0 0 0 0 0 6 0 1 0 0 0 0 97 346 269 310 349 348 238 402 532 709 848 982 937 922 1022 1038 1051 948 930 817 500 337 261 180 90 37 14 4 2 0 0 0 0 3
0 0 0 0 0 0 0 0 53 9 0 0 0 0 0 0 58 47 97 147 174 157 238 383 581 678 741 803 800 764 776 763 781 824 743 419 369 276 147 66 21 0 0 0 0 0 0 0 0
0 0 0 0 0 0 0 0 0 14 12 1 0 0 0 0 0 0 0 0 0 4 44 126 256 363 343 325 350 402 590 702 697 642 505 403 299 303 240 75 8 0 0 0 0 0 0 0 0
0 0 0 0 0 0 0 0 0 0 0 1 0 0 0 0 0 0 0 0 0 0 0 0 5 5 6 48 189 217 279 287 322 322 222 128 105 128 143 85 29 0 0 0 0 0 0 0 0
0 0 0 0 0 0 0 0 0 0 0 0 0 0 0 0 0 0 0 0 0 0 0 0 0 0 0 0 66 203 266 181 136 144 161 76 42 24 0 23 0 36 0 0 0 0 0 0 0
0 0 0 0 0 0 0 0 0 0 32 15 0 0 0 0 0 0 0 0 0 0 0 0 0 0 0 0 49 11 44 26 3 23 28 0 0 6 2 0 75 97 16 6 9 9 0 0 0
0 0 0 0 0 0 0 0 0 0 23 43 13 0 0 0 0 0 0 0 0 0 0 0 0 0 0 1 0 0 2 0 11 34 79 12 25 21 36 0 0 0 0 0 0 0 0 0 0
0 0 0 0 0 0 0 0 0 0 3 26 0 0 0 0 0 0 0 0 0 15 5 0 0 0 0 0 0 0 4 29 74 38 0 0 0 0 0 0 0 0 0 0 0 0 0 0 0
0 0 0 0 0 0 0 0 0 0 34 71 0 0 0 0 0 0 0 0 0 99 10 0 0 0 0 0 0 0 0 9 31 0 0 0 0 0 0 0 0 0 0 0 0 0 0 0 0
0 0 0 0 0 0 0 0 0 0 30 72 28 0 0 0 0 0 0 0 0 257 316 201 320 329 28 0 0 0 0 0 0 0 0 0 0 0 0 0 0 0 0 0 0 0 0 0 0
0 0 0 0 0 0 0 0 0 0 81 116 95 31 1 2 0 0 0 0 0 453 614 519 398 113 220 3 0 0 1 0 0 0 0 0 0 0 0 0 0 0 0 0 0 0 0 0 0
0 0 0 0 0 0 0 0 0 0 0 102 61 18 8 0 0 0 0 0 9 812 710 412 304 34 50 139 0 0 0 0 0 0 0 0 0 0 0 0 0 0 0 0 0 0 0 0 0
0 0 0 0 0 0 0 0 0 0 0 0 0 0 0 0 0 0 0 0 0 329 428 216 31 0 81 3 0 0 0 0 0 0 0 0 0 0 0 0 0 0 0 0 0 0 0 0 0
0 0 0 0 0 0 0 0 0 0 0 0 0 0 0 0 0 0 0 0 0 0 21 17 3 14 24 0 0 0 0 0 0 0 0 0 0 0 0 0 0 0 0 0 0 0 0 0 0
0 0 0 0 0 0 0 0 0 0 0 0 0 0 0 0 0 0 0 0 0 0 0 0 0 0 0 0 0 0 0 0 0 0 0 0 0 0 0 0 0 0 0 0 0 0 0 0 0
0 0 0 0 0 0 0 0 0 0 0 0 0 0 0 0 0 0 0 0 0 0 0 0 0 0 0 0 0 0 0 0 0 0 0 0 0 0 0 0 0 0 0 0 0 0 0 0 0
0 0 0 0 0 0 0 0 0 0 0 0 0 0 0 0 0 0 0 0 0 0 0 0 0 0 0 0 0 0 0 0 0 0 0 0 0 0 0 0 0 0 0 0 0 0 0 0 0
0 0 0 0 0 0 0 0 0 0 0 0 0 0 0 0 0 0 0 0 0 0 0 0 0 0 0 0 0 0 0 0 0 0 0 0 0 0 0 0 0 0 0 0 0 0 1 7 3
0 0 0 0 0 0 0 0 0 0 0 0 0 0 0 0 0 0 0 0 0 0 0 0 0 0 0 0 0 0 0 0 0 0 0 0 0 0 0 0 0 0 0 0 0 0 0 0 0
0 0 0 0 0 0 0 0 0 0 0 0 0 0 0 0 0 0 0 0 0 0 0 0 0 0 0 0 0 0 0 0 0 0 0 0 0 0 0 0 0 0 0 0 0 0 0 0 0
0 0 0 0 12 1 0 0 0 0 0 0 0 0 0 0 0 0 0 0 0 0 0 0 0 0 0 0 0 0 0 0 0 0 0 0 0 0 0 0 0 0 0 0 4 2 0 0 0
0 0 0 0 0 0 0 0 0 0 0 0 0 0 0 0 0 0 0 0 0 0 0 0 0 0 0 0 0 0 0 0 0 0 0 0 0 0 0 0 0 0 0 0 0 0 0 0 0
0 0 0 0 0 0 0 0 0 0 0 0 0 0 0 0 0 0 0 0 0 0 0 0 0 0 0 0 0 0 0 0 0 0 0 0 0 0 0 0 0 0 0 0 0 0 0 0 0
0 0 0 0 0 0 0 0 0 0 0 0 0 0 0 0 0 0 0 0 0 0 0 0 0 0 0 0 0 0 0 0 0 0 0 0 0 0 0 0 0 0 0 0 0 0 0 0 1
0 0 0 0 0 0 0 0 0 0 0 0 0 0 0 0 0 0 0 0 0 0 0 0 0 0 0 0 0 0 0 0 0 0 0 0 0 0 0 0 0 0 0 0 0 0 0 0 0
0 0 0 0 0 0 0 0 0 0 0 0 0 0 0 0 0 0 0 0 0 0 0 0 0 0 0 0 0 0 0 0 0 0 0 0 0 0 0 0 0 0 0 0 0 0 0 0 0

GFSSGP_con_sbcape_027.txt.gz
CAPE
0 0 0 0 0 0 0 0 0 0 0 0 0 0 7 46 11 29 129 250 544 529 518 724 890 1108 1205 1198 1110 1161 894 814 826 734 660 616 590 525 450 499 525 442 284 203 190 208 196 218 250
0 0 0 0 0 0 0 0 10 10 0 0 0 0 88 353 300 530 354 579 569 489 551 748 967 1091 1222 1227 1199 1139 923 841 826 751 687 595 443 402 474 470 319 160 132 127 127 148 140 91 34
0 0 0 0 0 0 0 0 4 1 0 0 0 0 7 447 339 284 334 635 594 490 667 805 809 939 1125 1119 1122 1113 1103 1089 954 775 532 383 411 420 301 256 169 100 74 66 48 30 21 14 0
0 0 0 0 0 0 0 0 3 3 0 0 0 4 0 97 396 419 545 650 421 563 629 654 787 922 1084 1156 1127 1135 1140 1111 950 731 426 447 388 219 173 130 58 31 16 6 0 0 0 0 0
0 0 0 0 0 0 0 0 31 23 4 0 0 0 0 396 495 490 399 387 346 405 523 619 753 893 1049 978 981 1006 989 907 840 800 701 392 277 178 99 47 16 7 0 0 0 0 0 0 0
0 0 0 0 0 0 0 42 13 2 0 2 28 19 0 292 370 333 364 324 408 426 378 517 691 770 849 927 911 825 830 739 753 786 732 402 335 257 96 34 3 0 0 0 0 0 0 0 0
0 0 0 0 0 0 0 0 4 0 3 2 2 0 7 21 82 124 147 92 180 163 153 269 367 487 541 515 498 473 520 542 577 592 593 467 374 237 169 45 14 0 0 0 0 0 0 0 0
0 0 0 0 0 0 0 0 2 77 32 0 0 0 103 0 5 0 0 0 0 0 5 0 32 64 28 96 235 289 360 383 397 347 226 88 102 109 109 49 40 2 0 0 0 0 0 0 0
0 0 0 0 0 0 0 0 0 0 2 0 0 0 30 0 0 0 0 0 0 0 0 0 0 0 0 0 27 170 265 252 233 183 120 43 0 0 0 35 29 62 21 1 4 9 0 0 0
0 0 0 0 0 0 0 0 9 37 6 0 0 0 0 0 0 0 0 0 0 0 0 0 0 0 0 0 2 0 21 3 1 9 5 0 0 0 0 0 60 185 172 146 97 42 19 0 0
0 0 0 0 0 0 0 0 0 19 14 0 0 0 0 0 0 0 0 0 0 0 0 0 0 0 0 0 0 0 0 0 0 13 11 10 5 0 0 0 0 0 0 0 0 0 0 0 0
0 0 0 0 0 0 0 0 4 0 45 0 0 0 0 0 0 0 0 0 0 0 0 0 0 0 0 0 0 0 0 1 2 2 1 0 0 0 0 0 0 0 0 0 0 0 0 0 0
0 0 0 0 0 0 0 0 0 0 3 0 0 0 0 0 0 0 0 0 0 0 0 0 0 0 0 0 0 0 6 14 23 26 0 0 0 0 0 0 0 0 0 0 0 0 0 0 0
0 0 0 0 0 0 0 0 0 0 6 0 0 0 0 0 0 0 0 0 0 1 1 0 0 0 0 0 0 0 0 0 0 0 0 0 0 0 0 0 0 0 0 0 0 0 0 0 0
0 0 0 0 0 0 0 0 0 0 24 2 0 0 0 0 0 0 0 0 11 69 48 0 16 0 0 0 0 0 0 0 0 0 0 0 0 0 0 0 0 0 0 0 0 0 0 0 0
0 0 0 0 0 0 0 0 0 5 61 37 0 0 0 0 0 0 0 0 1 215 145 146 86 0 1 0 0 0 0 0 0 0 0 0 0 0 0 0 0 0 0 0 0 0 0 0 0
0 0 0 0 0 0 0 0 0 0 78 44 5 0 0 0 0 0 0 0 29 360 104 0 0 0 0 0 0 0 0 0 0 0 0 0 0 0 0 0 0 0 0 0 0 0 0 0 0
0 0 0 0 0 0 0 0 0 0 2 0 0 0 0 0 0 0 0 0 0 0 0 0 0 0 0 0 0 0 0 0 0 0 0 0 0 0 0 0 0 0 0 0 0 0 0 0 0
0 0 0 0 0 0 0 0 0 0 0 0 0 0 0 0 0 0 0 0 0 0 0 0 0 0 0 0 0 0 0 0 0 0 0 0 0 0 0 0 0 0 0 0 0 0 0 0 0
0 0 0 0 0 0 0 0 0 0 0 0 0 0 0 0 0 0 0 0 0 0 0 0 0 0 0 0 0 0 0 0 0 0 0 0 0 0 0 0 0 0 0 0 0 0 0 0 0
0 0 0 0 0 0 0 0 0 0 0 0 0 0 0 0 0 0 0 0 0 0 0 0 0 0 0 0 0 0 0 0 0 0 0 0 0 0 0 0 0 0 0 0 0 0 0 0 0
0 0 0 0 0 0 0 0 0 0 0 0 0 0 0 0 0 0 0 0 0 0 0 0 0 0 0 0 0 0 0 0 0 0 0 0 0 0 0 0 0 0 0 0 0 0 0 0 0
0 0 0 0 0 0 0 0 0 0 0 0 0 0 0 0 0 0 0 0 0 0 0 0 0 0 0 0 0 0 0 0 0 0 0 0 0 0 0 0 0 0 0 0 0 0 0 0 0
0 0 0 0 0 0 0 0 0 0 0 0 0 0 0 0 0 0 0 0 0 0 0 0 0 0 0 0 0 0 0 0 0 0 0 0 0 0 0 0 0 0 0 0 0 0 0 0 0
0 0 0 0 0 0 0 0 0 0 0 0 0 0 0 0 0 0 0 0 0 0 0 0 0 0 0 0 0 0 0 0 0 0 0 0 0 0 0 0 0 0 0 0 0 0 0 0 0
0 0 0 0 0 0 0 0 0 0 0 0 0 0 0 0 0 0 0 0 0 0 0 0 0 0 0 0 0 0 0 0 0 0 0 0 0 0 0 0 0 0 0 0 0 0 0 0 0
0 0 0 0 0 0 0 0 0 0 0 0 0 0 0 0 0 0 0 0 0 0 0 0 0 0 0 0 0 0 0 0 0 0 0 0 0 0 0 0 0 0 0 0 0 0 0 0 0
0 0 0 0 0 0 0 0 0 0 0 0 0 0 0 0 0 0 0 0 0 0 0 0 0 0 0 0 0 0 0 0 0 0 0 0 0 0 0 0 0 0 0 0 0 0 0 0 0
0 0 0 0 0 0 0 0 0 0 0 0 0 0 0 0 0 0 0 0 0 0 0 0 0 0 0 0 0 0 0 0 0 0 0 0 0 0 0 0 0 0 0 0 0 0 0 0 0
0 0 0 0 0 0 0 0 0 0 0 0 0 0 0 0 0 0 0 0 0 0 0 0 0 0 0 0 0 0 0 0 0 0 0 0 0 0 0 0 0 0 0 0 0 0 0 0 0

GFSSGP_con_sbcape_030.txt.gz
CAPE
0 0 0 0 0 0 0 0 0 0 0 0 7 49 106 193 60 14 127 311 499 445 525 721 920 1094 1093 1048 977 998 794 711 636 578 544 532 438 353 410 371 186 103 88 63 78 60 15 1 0
0 0 0 0 0 0 0 0 16 4 15 21 17 18 126 395 411 286 367 710 462 461 581 734 984 1076 1140 1108 1060 886 778 719 637 581 546 394 362 353 252 158 134 81 20 7 0 0 0 0 0
0 0 0 0 0 0 0 1 47 14 1 0 0 0 43 422 489 275 453 649 469 518 611 840 913 1001 1092 1052 1013 966 951 851 724 592 384 361 332 190 125 86 83 24 3 0 0 0 0 0 0
0 0 0 0 0 0 0 0 15 1 0 0 0 0 0 106 332 411 676 567 508 634 602 636 760 870 1029 1069 1024 958 956 902 730 578 377 323 198 112 54 43 23 4 0 0 0 0 0 0 0
0 0 0 0 0 0 0 24 5 2 0 3 0 0 7 396 483 595 630 563 465 452 517 542 679 843 1016 963 920 980 899 786 696 657 584 271 148 80 31 14 0 0 0 0 0 0 0 0 0
0 0 0 0 0 0 24 72 27 0 0 4 59 3 17 417 479 427 421 367 392 415 473 527 701 841 926 977 950 834 737 685 715 742 646 365 297 194 31 0 0 0 0 0 0 0 0 0 0
0 0 0 0 0 0 0 15 10 0 0 0 0 32 165 298 278 374 330 319 393 281 311 383 538 662 730 706 598 566 528 533 574 577 499 439 251 147 59 27 12 0 0 21 76 64 33 58 11
0 0 0 0 3 0 0 0 0 0 39 0 27 310 401 81 166 87 131 82 74 89 96 143 228 243 176 257 318 328 348 340 376 383 256 118 49 15 19 0 15 80 118 130 216 176 131 105 64
0 0 0 0 0 0 0 0 0 0 10 0 0 92 168 35 0 16 0 0 0 0 0 0 0 0 0 0 116 308 360 299 285 224 102 18 0 0 0 0 76 164 256 208 173 199 64 27 0
0 0 0 0 0 1 0 0 0 18 22 0 0 0 10 6 42 13 0 0 0 0 0 0 0 0 0 0 1 0 22 26 19 18 13 0 0 0 0 0 12 30 0 0 0 0 0 0 0
0 0 0 0 0 0 0 0 0 35 52 0 0 0 5 7 0 0 0 0 0 0 0 0 0 0 0 0 0 0 0 0 0 0 0 0 0 0 0 0 0 0 0 0 0 0 0 0 0
0 0 0 0 0 0 0 0 13 3 26 0 0 0 0 0 0 0 0 0 0 0 0 0 0 0 0 0 0 0 0 0 0 5 27 0 0 0 0 0 0 0 0 0 0 0 0 0 0
0 0 0 0 0 0 0 0 20 0 0 0 0 0 0 0 0 0 0 0 0 0 0 0 0 0 0 0 0 0 0 5 0 13 0 0 0 0 0 0 0 0 0 0 0 0 0 0 0
0 0 0 0 0 0 0 0 0 0 0 0 0 0 0 0 0 0 0 0 0 0 0 0 0 0 0 0 0 0 0 0 0 0 0 0 0 0 0 0 0 0 0 0 0 0 0 0 0
0 0 0 0 0 0 0 0 0 0 0 0 0 0 0 0 0 0 0 0 0 0 0 0 0 0 0 0 0 0 0 0 0 0 0 0 0 0 0 0 0 0 0 0 0 0 0 0 0
0 0 0 0 0 0 0 0 0 0 0 0 0 0 0 0 0 0 0 0 0 0 5 16 0 0 0 0 0 0 0 0 0 0 0 0 0 0 0 0 0 0 0 0 0 0 0 0 0
0 0 0 0 0 0 0 0 0 0 0 0 0 0 0 0 0 0 0 0 0 7 0 0 0 0 0 0 0 0 0 0 0 0 0 0 0 0 0 0 0 0 0 0 0 0 0 0 0
0 0 0 0 0 0 0 0 0 0 3 0 0 0 0 0 0 0 0 0 0 0 0 0 1 0 0 0 0 0 0 0 0 0 0 0 0 0 0 0 0 0 0 0 0 0 0 0 0
0 0 0 0 0 0 0 0 0 0 0 0 0 0 0 0 0 0 0 0 0 0 0 0 0 0 0 0 0 0 0 0 0 0 0 0 0 0 0 0 0 0 0 0 0 0 0 0 0
0 0 0 0 0 0 0 0 0 0 0 0 0 0 0 0 0 0 0 0 0 0 0 0 0 0 0 0 0 0 0 0 0 0 0 0 0 0 0 0 0 0 0 0 0 0 0 0 0
0 0 0 0 0 0 0 0 0 0 0 0 0 0 0 0 0 0 0 0 0 0 0 0 0 0 0 0 0 0 0 0 0 0 0 0 0 0 0 0 0 0 0 0 0 0 0 0 0
0 0 0 0 0 0 0 0 0 0 0 0 0 0 0 0 0 0 0 0 0 0 0 0 0 0 0 0 0 0 0 0 0 0 0 0 0 0 0 0 0 0 0 0 0 0 0 0 0
0 0 0 0 0 0 0 0 0 0 0 0 0 0 0 0 0 0 0 0 0 0 0 0 0 0 0 0 0 0 0 0 0 0 0 0 0 0 0 0 0 0 0 0 0 0 0 0 0
0 0 0 0 0 0 0 0 0 0 0 0 0 0 0 0 0 0 0 0 0 0 0 0 0 0 0 0 0 0 0 0 0 0 0 0 0 0 0 0 0 0 0 0 0 0 0 0 0
0 0 0 0 0 0 0 0 0 0 0 0 0 0 0 0 0 0 0 0 0 0 0 0 0 0 0 0 0 0 0 0 0 0 0 0 0 0 0 0 0 0 0 0 0 0 0 0 0
0 0 0 0 0 0 0 0 0 0 0 0 0 0 0 0 0 0 0 0 0 0 0 0 0 0 0 0 0 0 0 0 0 0 0 0 0 0 0 0 0 0 0 0 0 0 0 0 0
0 0 0 0 0 0 0 0 0 0 0 0 0 0 0 0 0 0 0 0 0 0 0 0 0 0 0 0 0 0 0 0 0 0 0 0 0 0 0 0 0 0 0 0 0 0 0 0 0
0 0 0 0 0 0 0 0 0 0 0 0 0 0 0 0 0 0 0 0 0 0 0 0 0 0 0 0 0 0 0 0 0 0 0 0 0 0 0 0 0 0 0 0 0 0 0 0 0
0 0 0 0 0 0 0 0 0 0 0 0 0 0 0 0 0 0 0 0 0 0 0 0 0 0 0 0 0 0 0 0 0 0 0 0 0 0 0 0 0 0 0 0 0 0 0 0 0
0 0 0 0 0 0 0 0 0 0 0 0 0 0 0 0 0 0 0 0 0 0 0 0 0 0 0 0 0 0 0 0 0 0 0 0 0 0 0 0 0 0 0 0 0 0 0 0 0

GFSSGP_con_sbcape_033.txt.gz
CAPE
0 0 0 0 0 0 0 0 0 24 14 20 85 73 68 130 91 44 241 454 671 651 815 763 782 1139 1147 1048 1043 1044 827 608 542 513 500 391 323 355 235 107 233 54 0 0 0 0 0 0 0
0 0 0 0 0 0 0 0 0 47 64 91 64 87 0 0 414 386 446 723 685 721 852 826 847 1100 1155 1114 1086 1019 735 620 564 536 376 312 307 208 120 102 243 84 0 0 0 0 0 0 0
0 0 0 0 0 0 0 45 147 90 69 0 0 11 22 0 447 331 696 743 785 882 923 994 967 1055 1188 1110 962 969 885 800 734 584 357 332 202 96 74 58 147 14 0 0 0 0 0 0 0
0 0 0 0 0 0 0 101 96 1 0 0 0 0 67 295 405 467 875 803 801 909 982 889 919 1027 1164 1142 1079 1008 921 809 705 586 446 229 109 23 29 23 28 0 0 0 0 0 0 0 0
0 0 0 0 0 0 0 79 64 36 0 0 15 22 131 542 604 829 852 790 783 779 1011 1089 804 961 1141 1025 928 989 880 729 689 683 563 325 48 12 0 0 0 0 0 0 0 0 0 0 5
0 0 0 0 0 0 73 103 32 51 7 0 8 100 179 820 918 780 848 818 743 627 901 929 748 857 968 1051 1037 860 699 671 697 712 588 396 225 143 0 0 0 0 0 0 0 0 0 3 0
0 0 0 7 1 0 105 75 42 51 19 34 50 257 411 873 440 443 385 534 562 547 683 790 779 844 838 872 709 559 538 565 610 601 528 370 225 164 163 144 90 37 55 59 39 36 56 25 7
0 0 0 15 40 6 7 54 21 14 16 15 153 351 444 362 533 390 450 545 429 455 722 747 775 760 788 693 470 392 388 395 395 396 247 88 49 58 138 1 141 193 167 133 106 122 52 0 0
0 0 0 0 46 5 31 24 3 0 9 10 0 377 410 402 394 267 241 279 400 463 489 431 488 501 439 378 382 306 341 303 291 261 58 31 98 90 69 22 113 132 7 3 0 0 0 0 0
0 0 0 0 16 14 8 29 30 51 9 0 26 198 394 323 400 408 387 476 492 425 249 165 210 185 102 47 301 327 284 247 278 240 279 173 171 153 118 32 0 0 0 0 0 0 0 0 0
0 0 0 0 0 0 17 0 83 53 51 5 66 334 444 336 361 468 482 305 186 117 66 27 55 22 2 12 110 74 189 172 168 200 166 193 158 170 224 20 0 0 0 0 0 0 0 0 0
0 0 0 0 0 0 0 12 159 137 21 0 135 382 379 418 397 348 149 24 0 0 0 0 0 0 0 0 0 0 64 130 236 300 370 291 97 0 0 0 0 0 0 0 0 0 0 0 0
0 0 0 0 0 0 0 57 150 5 0 54 172 269 339 355 184 65 0 0 0 0 0 1 0 0 0 0 0 2 40 161 184 261 20 0 0 0 0 0 0 0 0 0 0 0 0 0 0
0 0 0 0 0 0 0 0 11 0 0 78 158 127 132 100 20 0 0 0 0 0 0 0 3 0 0 0 1 11 72 119 144 1 0 0 0 0 0 0 0 0 0 0 0 0 0 0 0
0 0 0 0 0 0 0 0 0 0 0 60 107 6 0 0 0 0 0 0 0 0 0 39 8 0 0 0 0 0 0 0 0 0 0 0 0 0 0 0 0 0 0 0 0 0 0 0 0
0 0 0 0 0 0 0 0 0 0 0 8 12 0 0 0 0 0 0 0 0 45 236 68 0 0 0 0 0 0 0 0 0 0 0 0 0 0 0 0 0 0 0 0 0 0 0 0 0
0 0 0 0 0 0 0 0 0 0 0 0 0 0 0 0 0 0 6 1 7 246 92 1 0 0 0 0 0 0 0 0 0 0 0 0 0 0 0 0 0 0 0 0 0 0 0 0 0
0 0 0 0 0 0 0 0 0 0 4 0 0 0 0 0 0 0 0 1 85 113 16 2 4 1 0 1 0 0 0 0 0 0 0 0 0 0 0 0 0 0 0 0 0 0 0 0 0
0 0 0 0 0 0 0 0 0 0 0 0 0 0 0 0 0 0 0 4 3 5 0 0 0 1 0 0 0 0 0 0 0 0 0 0 0 0 0 0 0 0 0 0 0 0 0 0 0
0 0 0 0 0 0 0 0 0 0 0 0 0 0 0 0 0 0 0 0 45 1 0 0 0 0 0 0 0 0 0 0 0 0 0 0 0 0 0 0 0 0 0 0 0 0 0 0 0
0 0 0 0 0 0 0 0 0 0 0 0 0 0 0 0 0 0 0 0 1 0 0 0 0 0 0 0 0 0 0 0 0 0 0 0 0 0 0 0 0 0 0 0 0 0 0 0 0
0 0 0 0 0 0 0 0 0 0 0 0 0 0 0 0 0 0 0 0 0 0 0 0 0 0 0 0 0 0 0 0 0 0 0 0 0 0 0 0 0 0 0 0 0 0 0 0 0
0 0 0 0 0 0 0 0 0 0 0 0 0 0 0 0 0 0 0 0 0 0 0 0 0 0 0 0 0 0 0 0 0 0 0 0 0 0 0 0 0 0 0 0 0 0 2 4 3
0 0 0 0 0 0 0 0 0 0 0 0 0 0 0 0 0 0 0 0 0 0 0 0 0 0 0 0 0 0 0 0 0 0 0 0 0 0 0 0 0 0 0 0 0 12 24 37 23
0 0 0 12 0 0 0 0 0 0 0 0 0 0 0 0 0 0 0 0 0 0 0 0 0 0 0 0 0 0 0 0 0 0 0 0 0 0 0 0 0 0 0 0 0 15 37 64 32
0 0 0 0 0 0 0 0 0 0 0 0 0 0 0 0 0 0 0 0 0 0 0 0 0 0 0 0 0 0 0 0 0 0 0 0 0 0 0 0 0 0 0 3 20 25 43 91 102
0 0 0 0 0 0 0 0 0 0 0 0 0 0 0 0 0 0 0 0 0 0 0 0 0 0 0 0 0 0 0 0 0 0 0 0 0 0 0 0 0 0 0 11 32 36 41 60 85
0 0 0 0 0 0 0 0 0 0 0 0 0 0 0 0 0 0 0 0 0 0 0 0 0 0 0 0 0 0 0 0 0 0 0 0 0 0 0 0 0 0 1 7 1 2 10 10 28
0 0 0 0 0 0 0 0 0 0 0 0 0 0 0 0 0 0 0 0 0 0 0 0 0 0 0 0 0 0 0 0 0 0 0 0 0 0 0 0 0 0 0 2 10 7 0 0 1
0 0 0 0 0 0 0 0 0 0 0 0 0 0 0 0 0 0 0 0 0 0 0 0 0 0 0 0 0 0 0 0 0 0 0 0 0 0 0 0 0 0 4 2 0 0 0 0 0

GFSSGP_con_sbcape_036.txt.gz
CAPE
0 0 0 0 0 0 0 0 0 187 403 211 121 171 306 445 294 356 577 595 663 796 668 687 912 1124 1116 1018 943 1004 707 592 548 517 448 326 328 181 103 134 204 8 0 0 0 0 0 0 0
0 0 0 0 0 0 2 0 14 435 421 76 21 5 19 77 582 612 507 738 728 698 763 729 789 1023 1178 1135 1148 1024 714 588 542 426 303 278 137 84 61 34 146 30 0 0 0 0 0 0 0
0 0 0 0 0 0 7 36 467 47 6 2 3 25 3 32 422 418 779 789 758 795 862 1079 964 1110 1222 1219 1169 1026 896 842 727 526 280 156 56 21 14 10 68 26 0 0 0 0 0 0 0
0 0 0 0 0 0 61 553 287 97 54 9 0 0 127 212 219 519 891 769 747 956 955 859 954 1056 1233 1242 1168 1002 892 841 656 614 370 113 12 0 0 13 97 4 0 0 0 0 0 0 0
0 0 0 0 0 0 57 447 253 186 23 7 18 27 191 679 376 595 981 647 909 897 1219 1269 784 1064 1122 1199 994 909 806 743 737 637 496 227 3 0 0 1 0 0 0 0 0 0 0 0 0
0 0 0 0 10 72 183 378 363 197 41 1 12 50 542 938 880 757 549 722 966 1099 1039 1129 871 1060 1113 1138 1067 833 703 715 732 673 566 289 144 120 0 0 0 0 0 0 0 0 19 0 0
0 0 0 26 138 293 459 374 205 116 27 0 22 164 790 968 1144 909 909 915 972 1035 1113 993 1024 929 876 861 725 576 578 638 656 631 559 398 292 258 173 134 70 78 81 69 42 0 0 0 0
0 0 4 158 256 474 464 119 47 14 24 83 146 350 649 1076 993 992 1072 921 971 1187 980 636 640 628 623 639 543 433 447 475 487 473 289 169 169 193 51 212 164 115 44 42 0 0 0 0 0
0 0 25 259 482 313 209 131 30 9 29 93 123 541 994 1009 829 766 906 756 813 987 592 536 509 501 365 234 367 287 348 367 330 267 142 97 244 221 130 23 52 0 0 0 0 0 0 0 0
0 0 0 0 86 63 82 33 35 46 106 112 195 1057 1144 881 901 890 817 843 1163 573 514 531 452 376 285 47 176 156 87 304 512 461 481 460 606 506 285 36 0 0 0 0 0 0 0 0 0
0 0 0 0 8 39 85 70 128 147 209 270 234 1307 812 1009 948 893 1196 800 340 331 233 213 305 228 70 30 153 197 480 642 716 743 711 829 800 857 686 111 18 5 0 0 0 0 0 0 0
0 0 0 0 16 25 59 110 152 278 183 195 241 1350 1312 1063 1352 1173 387 158 140 173 109 74 93 173 136 83 201 409 508 666 786 913 1030 1072 882 445 169 31 0 0 0 0 0 0 0 0 0
0 0 0 0 0 46 76 120 148 254 207 287 866 1291 1044 917 621 146 48 54 91 88 139 143 87 48 114 190 300 431 639 756 885 960 745 519 407 236 25 0 0 0 0 0 0 0 0 0 0
0 0 0 0 0 10 59 131 281 195 369 730 1168 923 379 178 58 18 0 0 63 118 212 322 250 238 181 363 515 574 586 637 747 471 224 80 212 95 0 0 0 0 0 0 0 0 0 0 0
0 0 0 0 0 0 38 38 0 136 380 684 602 410 228 9 0 0 0 0 41 194 319 436 548 476 340 141 118 191 64 54 89 28 1 4 4 0 0 0 0 0 0 0 0 0 0 0 0
0 0 0 0 0 0 1 2 0 100 319 452 395 321 218 82 4 0 0 0 16 318 518 447 176 82 22 9 2 1 0 0 0 0 0 0 0 0 0 0 0 0 0 0 0 0 0 0 0
0 0 0 0 0 0 0 0 0 173 228 438 445 345 220 75 12 32 93 48 41 358 690 397 289 77 25 2 0 0 0 0 0 0 0 0 0 0 0 0 0 0 0 0 0 0 0 0 0
2 0 0 0 0 0 0 0 0 251 202 222 350 370 287 205 154 87 300 238 302 677 649 433 451 20 1 0 0 0 0 0 0 0 0 0 0 0 0 0 0 0 0 0 0 0 0 0 0
0 3 0 0 0 0 0 0 0 49 317 262 249 301 315 254 55 240 484 558 675 689 494 535 114 2 0 1 0 0 0 0 0 0 0 0 0 0 0 0 0 0 0 0 0 0 0 0 0
0 8 34 0 0 2 20 34 0 4 308 351 320 312 307 178 262 396 648 662 594 572 681 340 222 95 13 10 0 0 0 0 0 0 0 0 0 0 0 0 0 0 0 0 0 0 0 0 1
50 64 39 12 0 0 18 66 37 0 4 51 146 307 274 354 497 583 848 1024 686 612 621 583 664 405 48 0 0 0 0 0 0 0 0 0 0 0 0 0 0 0 0 0 0 0 1 2 0
102 11 0 1 25 76 1 124 124 66 0 1 67 163 349 487 583 822 668 743 845 744 734 542 207 38 1 0 0 0 3 3 0 0 0 0 0 0 0 0 0 0 0 1 5 3 7 16 24
78 0 8 8 43 57 23 33 198 31 92 3 10 225 466 507 437 204 54 106 119 157 120 6 0 0 0 0 0 0 0 0 0 0 0 0 0 0 0 0 0 0 9 22 33 30 44 42 40
17 85 97 87 69 64 54 46 3 38 38 73 10 308 317 139 44 0 0 0 0 0 0 0 0 0 0 0 0 0 0 0 0 0 0 0 0 0 1 8 10 28 47 66 83 81 60 66 72
73 68 8 28 64 17 4 2 0 0 0 34 88 249 41 0 0 0 0 0 0 0 0 0 0 0 0 0 0 0 0 0 0 0 0 0 0 10 20 22 25 39 63 84 79 80 70 76 77
27 14 0 0 0 0 0 22 65 0 0 3 75 111 0 0 0 0 0 0 0 0 0 0 0 0 0 0 0 0 0 0 0 0 0 0 1 0 0 0 0 2 9 35 72 74 75 71 76
0 0 0 4 0 2 0 4 4 0 0 5 82 43 1 0 0 0 0 0 0 0 0 0 0 0 0 0 0 0 0 0 0 0 0 0 0 0 0 0 0 1 10 33 66 72 83 79 75
3 0 0 0 0 0 0 0 0 0 0 0 48 41 0 0 0 0 0 0 0 0 0 0 0 0 0 0 0 0 0 0 0 0 0 0 0 0 0 0 0 0 10 36 73 60 53 67 43
0 0 0 0 0 0 0 0 0 0 0 0 30 13 0 0 0 0 0 0 0 0 0 0 0 0 0 0 0 0 0 0 0 0 0 0 0 0 0 0 1 7 21 40 40 25 50 30 19
0 0 0 0 0 0 0 0 0 0 0 0 0 0 0 0 0 0 0 0 0 0 0 0 0 0 0 0 0 0 0 0 0 0 0 0 0 0 0 7 14 24 10 23 32 27 24 14 23

GFSSGP_con_sbcape_039.txt.gz
CAPE
0 0 0 0 0 0 0 14 59 451 519 458 317 431 666 791 805 707 487 547 692 616 476 495 892 1029 973 880 878 924 671 596 530 446 357 318 168 129 131 212 174 5 0 0 0 0 0 0 0
0 0 0 0 0 3 65 33 264 631 286 69 86 106 50 686 796 774 625 702 864 654 544 646 744 1026 1117 1104 996 840 610 540 459 342 314 165 107 68 19 5 119 13 0 0 0 0 0 0 0
0 0 0 0 0 10 56 451 701 221 195 73 12 44 16 475 377 536 594 663 701 678 653 895 804 1015 1198 1171 1039 918 802 707 493 465 171 71 20 0 0 21 154 45 0 0 0 0 0 0 0
0 0 0 0 4 16 0 471 169 339 193 42 30 7 29 84 26 414 862 799 727 710 910 582 757 990 1173 1179 1009 731 671 647 614 465 249 15 0 0 0 131 178 0 0 0 0 0 0 0 0
0 0 0 1 2 2 1 578 289 364 270 61 28 36 1 20 3 258 915 810 767 653 839 920 691 963 1117 1136 840 738 656 701 658 529 322 88 0 0 0 11 34 0 0 0 0 0 0 0 0
0 0 1 20 23 52 154 432 288 317 265 72 40 45 465 495 74 14 466 439 493 478 793 875 824 1008 1175 1123 870 737 684 731 677 563 349 107 64 85 11 20 23 23 18 13 0 0 0 0 0
0 0 0 23 105 233 296 237 324 132 29 5 50 245 840 950 560 556 235 22 221 750 877 841 1006 941 822 716 575 497 589 631 658 634 450 337 340 352 311 208 115 94 126 64 5 0 0 0 0
0 0 4 34 198 329 349 372 182 220 129 81 122 126 667 830 1039 330 257 296 541 1043 873 753 663 603 611 573 412 413 468 491 500 374 253 180 141 95 266 339 93 26 29 0 0 0 0 0 0
0 0 20 134 320 352 252 193 66 40 49 67 345 539 1099 1206 1067 802 597 603 859 641 465 432 385 440 323 215 313 335 480 450 340 155 131 47 70 123 200 20 0 0 0 0 0 0 0 0 0
0 0 23 381 153 0 376 135 44 3 0 0 236 959 1456 1318 1116 1036 957 1081 889 382 369 428 426 406 258 25 77 88 129 148 305 269 284 560 371 498 237 17 0 0 0 0 0 0 0 0 0
0 0 7 0 118 0 36 19 13 0 10 61 190 1407 1228 1301 1233 1133 1096 1093 424 356 340 308 336 286 107 178 91 135 315 556 641 653 704 884 580 612 554 302 93 94 0 18 0 0 0 0 0
0 0 0 0 0 30 9 62 93 35 90 169 324 1510 1390 1385 1237 1135 1094 379 158 221 147 137 148 163 86 70 179 327 505 611 701 831 895 838 765 718 492 180 88 57 9 6 0 1 0 0 0
0 0 0 0 0 2 1 74 90 125 122 47 947 1546 1512 1382 1271 884 159 104 199 145 65 11 29 128 313 346 577 580 766 1180 964 1002 1007 893 676 672 327 158 38 8 0 0 0 0 0 0 0
0 0 0 0 11 45 68 125 115 181 132 337 1211 1166 958 998 537 104 74 156 180 97 190 104 99 230 336 687 722 967 1192 1048 879 697 452 328 425 635 212 53 0 0 0 0 0 0 0 0 0
0 0 0 0 3 47 62 137 148 257 238 494 952 687 407 307 67 25 99 207 286 214 404 498 551 566 593 526 423 178 119 132 247 161 106 142 162 70 3 0 0 0 0 0 0 0 0 0 0
0 0 0 1 44 58 64 38 55 181 260 293 282 212 39 5 0 19 59 201 375 568 577 648 596 488 232 68 19 6 4 1 0 1 4 0 0 0 0 0 0 0 0 0 0 0 0 0 0
0 1 2 24 42 17 58 2 41 162 269 294 266 195 73 8 0 4 2 31 364 727 808 592 513 213 0 0 0 1 2 0 0 0 0 0 0 0 0 0 0 0 0 0 0 0 0 0 0
0 2 10 8 0 0 0 3 2 163 244 372 323 241 223 108 25 120 244 149 155 778 808 710 514 337 4 0 0 0 0 0 0 0 0 0 0 0 0 0 0 0 0 0 0 0 0 0 0
0 0 1 3 0 0 0 2 0 164 162 264 404 425 363 311 293 371 512 426 410 1092 842 636 450 184 19 0 0 0 0 0 0 0 0 0 0 0 0 0 0 0 0 0 0 0 0 0 0
0 9 2 6 0 2 0 21 8 71 155 186 263 420 483 503 476 521 770 761 789 1082 863 822 535 171 449 0 20 16 0 0 0 0 0 0 0 0 0 0 0 0 0 0 0 0 1 1 1
3 4 10 66 6 0 74 108 97 70 247 330 338 353 423 553 551 682 909 1015 987 863 721 948 586 601 279 204 7 1 0 0 0 0 0 0 0 0 0 0 0 0 0 0 3 9 12 11 15
40 61 54 56 63 51 64 98 35 149 198 286 370 500 481 512 631 859 1117 1089 1072 952 1039 724 463 351 91 1 0 0 2 8 9 4 10 0 0 0 0 0 0 1 3 9 18 20 31 45 31
29 54 105 84 67 20 102 52 94 212 172 156 236 435 560 649 844 1122 1238 1255 1145 930 726 469 309 45 1 0 0 1 20 23 12 1 12 3 5 4 0 1 5 7 16 27 66 93 78 79 59
128 149 138 101 87 181 133 98 110 190 187 191 184 309 578 798 902 644 688 442 304 413 324 49 6 7 0 0 2 13 18 1 6 17 3 2 1 1 5 8 13 18 18 36 49 63 50 60 70
146 199 277 183 158 167 145 89 61 79 75 103 210 326 613 610 488 208 104 24 20 26 4 0 0 2 3 11 19 10 1 0 0 1 0 0 0 0 0 1 0 0 0 2 21 54 93 67 98
168 141 187 40 50 69 134 2 206 131 29 85 230 373 430 375 275 15 0 0 0 0 0 0 4 11 17 11 5 0 0 0 0 0 0 0 0 0 0 0 0 0 0 5 21 57 110 80 122
144 40 114 87 168 26 0 57 157 37 18 116 287 418 356 276 87 0 0 0 0 0 3 1 14 8 6 0 0 0 0 0 0 0 0 0 0 0 0 0 0 0 0 1 12 48 89 102 84
58 59 39 6 0 0 25 0 131 15 0 52 274 390 277 179 30 0 0 0 0 1 6 9 4 2 0 0 0 0 0 0 0 0 0 0 0 0 0 0 0 0 1 5 18 42 56 60 90
100 22 2 9 13 0 0 23 0 0 0 3 154 301 302 134 16 0 0 1 3 7 8 5 0 0 0 0 0 0 0 0 0 0 0 0 0 0 0 0 0 1 6 12 11 36 43 33 30
6 35 42 8 0 0 7 0 0 0 0 0 13 167 242 112 41 13 2 4 4 3 4 1 0 0 0 0 0 0 0 0 0 0 0 0 0 0 0 0 2 6 6 12 15 15 7 19 12

GFSSGP_con_sbcape_042.txt.gz
CAPE
0 0 0 0 0 0 0 0 125 447 575 439 362 515 762 736 864 520 475 434 307 289 391 557 759 881 911 984 967 897 791 492 351 306 353 295 273 263 245 172 109 18 0 0 0 0 0 0 0
0 0 0 0 0 0 0 139 805 554 426 305 241 255 494 709 790 606 636 565 431 402 287 416 753 978 1134 1037 945 821 644 435 451 295 223 256 148 56 0 154 167 19 0 0 0 0 0 0 0
0 0 0 0 0 0 86 535 434 325 288 256 182 90 183 395 445 592 684 561 593 309 491 567 665 862 1087 1024 967 805 663 532 441 265 162 17 0 0 0 225 149 130 0 0 0 0 0 0 0
0 0 0 0 0 0 470 768 345 435 270 183 54 44 119 1 19 637 628 547 507 722 520 388 575 787 1021 967 998 818 616 502 355 235 184 16 0 39 60 239 205 39 0 0 0 0 0 0 0
0 0 0 0 0 0 18 576 498 276 218 183 49 1 0 0 232 793 754 578 492 365 320 351 510 742 937 972 827 690 636 522 386 273 181 150 32 27 55 219 185 59 0 0 0 0 0 0 14
0 0 0 0 0 27 7 566 585 341 140 24 123 122 95 0 1 300 600 398 260 140 249 383 698 791 907 870 725 621 565 497 426 300 223 240 150 173 177 256 250 141 43 0 0 0 0 0 0
0 0 0 0 0 5 361 417 146 6 6 81 5 514 661 48 146 510 125 54 0 144 266 526 670 782 576 425 417 473 495 506 483 386 328 334 338 301 379 361 224 154 108 0 0 0 0 0 0
0 0 0 0 0 280 1 0 184 9 3 5 0 19 433 796 481 0 54 85 2 194 229 451 698 590 438 277 324 348 374 382 337 258 192 142 132 236 377 220 108 51 0 0 0 0 0 0 0
0 0 0 6 164 162 4 0 21 134 15 284 238 778 884 990 355 0 2 118 145 186 384 463 480 445 346 283 310 362 433 358 228 162 145 30 4 43 153 33 8 0 0 0 0 0 0 0 0
0 0 0 101 309 58 0 0 25 0 3 35 511 1303 1304 1011 373 506 168 130 67 185 261 349 397 389 151 44 142 113 140 61 42 72 41 65 421 127 71 0 0 0 0 0 0 0 0 0 0
0 0 0 53 72 25 0 0 161 43 28 29 620 1321 1473 1200 1106 851 640 253 223 237 239 222 309 250 54 33 65 56 75 185 540 559 511 698 739 439 168 0 0 1 0 11 0 7 0 0 0
0 0 0 26 157 78 48 135 1 6 0 0 20 1396 1220 1194 1063 934 605 336 168 172 196 218 172 276 230 86 143 303 492 680 722 776 687 714 690 718 411 171 177 64 9 0 0 0 0 0 0
0 0 2 0 0 31 26 29 1 5 0 0 7 1282 1270 952 1006 928 462 111 118 49 80 81 136 332 315 581 675 543 520 621 560 857 523 349 602 589 357 127 16 0 0 0 0 0 0 0 0
0 0 0 0 0 2 8 12 18 50 35 1250 1386 1341 1140 903 830 223 12 156 125 41 56 50 124 400 578 695 642 507 567 624 501 381 320 361 396 496 223 0 0 0 0 0 0 0 0 0 0
0 0 0 0 0 3 0 6 10 115 150 729 941 816 659 580 237 23 154 149 48 29 10 101 291 644 428 299 53 9 11 29 30 43 82 62 86 0 0 0 0 0 0 0 0 0 0 0 0
0 0 0 0 0 16 45 36 15 122 217 555 641 488 415 253 69 56 172 163 72 210 200 323 516 449 229 49 0 0 0 0 11 2 0 0 0 0 0 0 0 0 0 0 0 0 0 0 0
0 0 0 0 0 13 21 3 37 61 153 204 201 188 177 71 4 63 166 307 330 357 551 620 351 41 0 0 0 0 1 0 0 0 0 0 0 0 0 0 0 0 0 0 0 0 0 0 0
0 0 0 10 11 11 41 10 0 62 184 194 136 52 0 0 0 9 27 217 508 653 534 406 99 1 0 1 2 1 0 0 0 0 0 0 0 0 0 0 0 0 0 0 0 0 0 0 0
0 0 4 2 0 0 0 1 0 25 143 246 191 129 54 12 9 94 182 187 628 803 438 339 164 44 0 0 0 0 0 0 0 0 0 0 0 0 0 0 0 0 0 0 0 0 0 0 0
0 4 40 0 0 0 0 0 0 2 72 268 291 210 203 123 43 347 434 521 920 999 794 413 260 104 20 0 0 0 0 0 0 0 0 0 0 0 0 0 0 0 0 0 0 0 0 0 0
0 26 44 8 1 0 1 0 0 2 12 82 227 343 341 287 375 494 598 724 992 1149 635 534 308 118 171 0 27 0 0 0 0 0 0 0 0 0 0 0 0 0 0 0 0 0 2 0 0
35 30 17 21 19 0 8 35 9 0 10 61 124 192 372 455 595 570 779 893 1241 1127 639 730 545 354 405 149 0 0 0 0 0 0 0 0 0 0 0 0 0 0 0 0 0 0 0 2 1
14 35 65 62 30 75 0 2 16 0 1 73 314 372 408 466 565 631 867 1035 760 702 854 884 688 217 39 0 0 0 15 7 3 0 0 0 0 0 0 0 2 3 3 1 1 7 5 11 21
75 67 88 57 113 85 3 29 30 0 9 5 146 308 449 576 577 830 1013 1104 787 942 991 696 309 50 0 0 7 4 14 1 0 0 0 0 0 0 0 0 0 0 0 0 0 0 0 0 17
24 42 230 9 73 264 42 82 67 20 84 176 123 271 451 634 850 997 945 924 722 557 602 351 63 1 0 0 1 3 0 0 0 0 0 0 0 0 0 0 0 0 0 0 0 0 0 14 36
49 84 155 87 56 255 78 71 164 107 56 102 219 200 547 769 824 541 584 306 286 319 122 10 0 0 0 9 9 1 0 0 0 0 0 0 0 0 0 0 0 0 0 0 0 0 0 7 26
24 105 94 76 315 476 1 0 167 42 38 90 185 331 589 545 421 218 168 64 41 6 0 0 0 0 0 1 0 0 0 0 0 0 0 0 0 0 0 0 0 0 0 0 0 0 11 5 10
0 3 135 44 11 0 0 9 168 18 9 59 289 476 520 401 313 101 1 0 0 0 0 0 8 0 0 0 0 0 0 0 0 0 0 0 0 0 0 0 0 0 0 1 0 0 0 0 1
82 57 0 0 191 199 192 17 0 0 0 4 218 443 524 402 266 80 0 0 0 1 9 1 4 0 0 0 0 0 0 0 0 0 0 0 0 0 0 0 0 0 0 0 0 0 0 1 1
3 23 52 590 32 125 327 11 0 0 0 0 13 248 415 405 259 36 0 0 0 8 7 0 0 0 0 0 0 0 0 0 0 0 0 0 0 0 0 0 0 0 0 0 0 0 6 0 4

GFSSGP_con_sbcape_045.txt.gz
CAPE
0 0 0 0 0 0 0 0 617 694 587 182 932 891 871 836 786 457 360 206 213 596 701 796 704 837 924 988 946 819 655 367 155 200 286 194 137 67 42 53 50 57 0 0 0 0 0 0 0
0 0 0 0 0 0 0 111 637 578 509 266 182 889 841 861 873 687 503 307 309 565 597 623 664 862 990 919 822 656 451 256 266 248 181 117 34 1 2 68 112 68 0 0 0 0 0 0 0
0 0 0 0 0 0 0 474 628 567 434 259 144 193 573 430 821 786 470 397 196 347 488 688 748 805 864 877 785 564 450 321 235 161 83 0 9 16 18 183 130 90 0 0 0 0 0 0 0
0 0 0 0 0 0 0 69 294 258 174 96 169 231 66 0 181 618 482 300 238 354 437 482 635 639 957 975 682 542 358 220 163 127 127 23 54 48 43 188 146 15 0 0 0 0 0 0 0
0 0 0 0 0 0 198 189 107 110 79 3 0 20 0 0 503 562 617 535 318 261 314 269 362 565 957 829 657 451 331 231 181 200 205 169 53 42 55 222 166 58 3 0 0 0 0 0 0
0 0 0 0 0 102 284 5 95 10 6 7 0 10 0 33 416 397 291 27 41 139 170 150 310 624 764 660 545 401 300 221 201 249 236 229 192 216 154 233 209 108 38 0 0 0 0 0 0
0 0 0 0 0 162 244 62 18 29 26 3 51 479 7 115 233 66 7 0 1 8 93 130 298 444 455 370 313 262 285 238 241 242 239 238 243 299 363 346 208 87 3 0 0 0 0 0 0
0 0 0 0 0 212 125 74 0 0 0 5 15 410 54 304 34 0 0 11 13 70 106 174 293 317 239 227 234 219 230 209 188 173 165 156 201 254 161 81 128 62 0 0 0 0 0 0 0
0 0 0 0 347 345 76 8 1 0 0 260 805 535 468 0 29 4 0 5 45 101 181 171 255 230 174 174 236 204 228 128 100 99 73 21 6 9 39 0 0 0 0 0 0 0 0 0 0
0 0 0 0 262 88 20 17 22 49 28 347 1083 632 48 0 4 29 0 0 6 106 158 203 294 125 86 139 71 80 77 4 0 0 0 0 0 1 0 0 0 0 0 0 0 0 0 0 0
0 0 0 18 96 15 0 0 4 2 4 0 452 552 131 20 5 43 0 0 99 160 92 296 285 67 0 7 0 0 0 0 0 0 0 0 47 3 0 0 0 0 0 0 0 0 0 0 0
0 0 0 116 102 21 0 2 5 0 5 7 71 328 557 597 341 124 6 13 72 175 79 35 10 0 0 0 0 0 0 35 124 254 175 182 185 21 17 0 3 0 0 0 0 0 0 0 0
0 0 0 233 70 30 1 0 35 31 0 0 14 0 335 885 452 248 51 133 161 82 38 0 0 0 0 9 70 177 232 229 253 101 40 43 92 7 0 0 0 0 0 0 0 0 0 0 0
0 0 0 0 15 53 27 0 19 6 0 0 4 0 43 781 409 425 143 35 38 9 0 0 0 0 187 131 131 208 162 86 13 9 7 7 0 0 0 0 0 0 0 0 0 0 0 0 0
0 0 0 0 24 16 0 0 1 8 0 70 132 619 723 278 391 151 123 5 0 0 0 0 66 175 5 0 0 0 0 0 0 0 0 0 0 0 0 0 0 0 0 0 0 0 0 0 0
0 0 0 0 0 2 0 1 4 27 505 669 963 685 401 25 4 2 0 0 0 0 0 33 214 1 0 0 0 0 0 0 0 0 0 0 0 0 0 0 0 0 0 0 0 0 0 0 0
0 0 0 0 0 12 6 0 0 52 539 500 346 337 48 0 8 6 1 7 0 2 115 118 0 0 0 0 0 0 0 0 0 0 0 0 0 0 0 0 0 0 0 0 0 0 0 0 0
0 0 0 0 0 10 0 0 0 21 350 336 190 140 14 0 1 10 0 49 23 177 75 0 0 0 0 0 0 0 0 0 0 0 0 0 0 0 0 0 0 0 0 0 0 0 0 0 0
0 0 0 0 0 0 0 0 0 0 24 3 0 0 0 0 0 0 0 100 226 200 36 0 0 0 0 0 0 0 0 0 0 0 0 0 0 0 0 0 0 0 0 0 0 0 0 0 0
0 0 0 0 0 0 0 0 0 0 3 0 0 0 0 0 0 0 0 368 345 255 67 0 0 0 0 0 0 0 0 0 0 0 0 0 0 0 0 0 0 0 0 0 0 0 0 0 0
21 19 3 3 2 0 0 0 0 0 0 14 0 0 0 0 0 11 45 477 306 275 179 5 0 0 0 0 0 0 0 0 0 0 0 0 0 0 0 0 0 0 0 0 0 0 0 0 0
65 14 4 5 7 0 0 0 2 0 0 54 65 6 3 0 69 147 226 396 494 314 200 81 22 0 0 0 0 0 0 0 0 0 0 0 0 0 0 0 0 0 0 0 0 0 0 0 0
1 8 3 9 6 5 4 0 0 0 0 0 0 0 0 0 72 166 282 452 579 329 230 165 61 12 10 2 0 0 0 0 0 0 0 0 0 0 0 0 0 0 0 0 0 0 0 0 0
27 1 28 6 6 0 8 0 0 0 0 3 31 37 28 1 93 273 448 587 657 454 320 259 165 107 0 0 0 0 0 0 0 0 0 0 0 0 0 0 0 0 0 0 0 0 0 0 0
10 24 20 3 0 4 24 0 1 2 0 2 0 0 9 74 117 452 712 565 457 387 340 294 269 4 0 0 0 0 0 0 0 0 0 0 0 0 0 0 0 0 0 0 0 0 0 0 0
4 46 0 6 0 0 12 6 8 0 0 0 0 0 32 270 356 670 674 493 528 449 284 217 2 0 0 0 0 0 0 0 0 0 0 0 0 0 0 0 0 0 0 0 0 0 0 0 0
35 40 37 6 0 11 0 0 0 0 5 6 0 9 356 495 244 280 252 221 163 22 0 0 0 0 0 0 0 0 0 0 0 0 0 0 0 0 0 0 0 0 0 0 0 0 0 0 0
3 0 11 3 0 0 0 0 0 0 24 67 103 327 371 265 96 58 0 0 0 0 0 0 0 0 0 0 0 0 0 0 0 0 0 0 0 0 0 0 0 0 0 0 0 0 0 0 0
18 7 1 0 0 0 2 0 0 0 0 80 119 312 325 239 52 0 0 0 0 0 0 0 0 0 0 0 0 0 0 0 0 0 0 0 0 0 0 0 0 0 0 0 0 0 0 0 0
13 11 24 0 0 0 0 0 0 0 0 0 3 173 144 75 10 0 0 0 0 0 0 0 0 0 0 0 0 0 0 0 0 0 0 0 0 0 0 0 0 0 0 0 0 0 0 0 0

GFSSGP_con_sbcape_048.txt.gz
CAPE
1 0 0 0 0 0 0 0 514 709 519 734 944 958 983 915 789 339 368 256 626 775 700 757 784 863 916 968 880 702 413 176 83 100 135 135 81 43 126 125 93 13 0 0 0 0 0 0 0
0 0 0 0 0 0 0 0 254 619 484 804 695 898 734 1000 974 688 523 493 675 782 656 604 667 809 902 896 793 576 240 136 214 143 58 133 37 21 32 71 71 44 0 0 0 0 0 0 0
0 0 0 0 0 0 0 321 760 601 424 268 270 351 508 787 1014 794 493 674 622 576 497 580 611 749 903 809 651 434 317 271 221 162 82 40 29 36 21 133 104 69 0 0 0 0 0 0 0
0 0 0 0 0 0 0 0 392 227 179 232 291 166 0 57 345 806 501 590 551 583 529 522 615 769 797 755 581 391 273 211 169 225 237 122 76 56 57 203 126 32 0 0 0 0 0 0 0
0 0 0 0 0 42 265 279 204 142 48 33 25 11 0 557 755 802 517 313 467 539 454 387 530 659 723 728 487 329 260 190 230 277 260 228 61 60 92 232 167 77 0 0 0 0 0 0 0
0 0 0 0 0 176 226 156 172 10 5 0 0 1 12 682 595 249 22 164 144 70 206 315 316 376 456 494 381 287 256 204 246 271 240 231 214 180 168 199 179 75 0 0 0 0 0 0 0
0 0 0 0 0 0 388 151 94 104 0 0 1 64 48 256 317 66 2 11 29 108 42 12 50 271 389 330 278 229 228 206 237 238 215 232 237 272 322 302 176 43 1 0 0 0 0 0 0
0 0 0 0 0 9 213 36 15 53 16 3 17 15 65 176 8 2 1 0 4 37 8 0 53 237 341 326 257 209 215 182 186 164 151 167 190 201 196 183 144 48 0 0 0 0 0 0 0
0 0 0 0 1 207 71 51 35 0 63 207 654 338 140 2 1 15 7 5 11 1 0 2 115 118 185 183 179 192 182 146 142 149 111 25 18 5 0 2 23 4 0 0 0 0 0 0 0
0 0 0 0 22 204 25 5 0 3 0 126 18 85 29 0 17 12 23 31 41 24 12 88 126 160 106 121 89 39 31 8 0 3 0 0 0 6 0 0 14 0 0 0 0 0 0 0 0
0 0 0 0 61 10 0 0 0 0 0 4 27 0 31 9 0 2 21 57 29 37 169 147 141 36 0 16 6 0 0 0 0 0 0 0 0 0 0 0 0 0 0 0 0 0 0 0 0
0 0 0 0 92 0 0 0 0 0 0 48 228 1 27 80 0 4 51 55 78 112 172 265 81 4 0 0 0 0 0 0 2 9 13 2 0 0 0 0 0 0 0 0 0 0 0 0 0
0 0 0 17 12 12 11 9 2 0 23 209 329 52 69 131 5 6 30 58 119 139 149 266 53 0 1 0 0 0 7 118 74 2 5 18 0 0 0 0 0 0 0 0 0 0 0 0 0
0 0 4 33 57 3 0 0 0 0 21 108 143 352 114 74 42 26 9 6 93 93 35 93 1 0 0 2 26 70 119 32 0 0 0 0 0 0 0 0 0 0 0 0 0 0 0 0 0
0 0 0 15 29 48 1 16 5 0 6 21 6 25 41 320 179 89 31 86 160 35 2 0 0 32 18 21 56 2 0 0 0 0 0 0 0 0 0 0 0 0 0 0 0 0 0 0 0
1 0 0 0 0 5 0 0 0 0 18 5 54 152 216 513 371 168 203 195 57 13 0 107 89 0 0 0 0 0 0 0 0 0 0 0 0 0 0 0 0 0 0 0 0 0 0 0 0
0 0 0 0 0 22 0 0 4 0 112 408 639 676 380 543 354 297 98 61 9 0 25 51 0 0 0 0 0 0 0 0 0 0 0 0 0 0 0 0 0 0 0 0 0 0 0 0 0
0 0 0 0 0 10 11 0 0 141 499 732 673 201 48 393 137 257 5 7 0 0 120 1 0 0 0 0 0 0 0 0 0 0 0 0 0 0 0 0 0 0 0 0 0 0 0 0 0
0 0 0 0 0 1 25 1 0 195 525 313 201 31 0 35 57 3 0 0 0 53 26 0 0 0 0 0 0 0 0 0 0 0 0 0 0 0 0 0 0 0 0 0 0 0 0 0 0
0 0 0 0 0 0 0 0 0 83 376 327 244 32 0 0 0 4 4 0 154 74 22 0 0 0 0 0 0 0 0 0 0 0 0 0 0 0 0 0 0 0 0 0 0 0 0 0 0
0 0 0 0 0 0 0 0 0 0 7 87 112 55 0 0 0 0 40 184 194 94 6 0 0 0 0 0 0 0 0 0 0 0 0 0 0 0 0 0 0 0 0 0 0 0 0 0 0
0 0 0 2 0 0 0 0 0 0 0 0 0 0 0 0 0 0 135 273 187 74 11 0 0 0 0 0 0 0 0 0 0 0 0 0 0 0 0 0 0 0 0 0 0 0 0 0 0
0 0 0 0 0 0 0 0 0 0 0 0 0 0 0 0 0 19 290 298 240 30 0 0 0 0 0 0 0 0 0 0 0 0 0 0 0 0 0 0 0 0 0 0 0 0 0 0 0
0 0 0 0 0 0 0 0 0 0 0 0 0 0 0 0 0 1 346 333 254 91 2 0 0 0 0 0 0 0 0 0 0 0 0 0 0 0 0 0 0 0 0 0 0 0 0 0 0
0 0 1 1 0 0 0 0 0 0 0 0 0 0 0 0 0 17 410 492 297 150 62 8 4 13 0 0 0 0 0 0 0 0 0 0 0 0 0 0 0 0 0 0 0 0 0 0 0
1 6 1 0 0 0 0 1 0 0 0 0 0 0 0 0 2 83 462 533 384 277 184 148 90 51 0 0 0 0 0 0 0 0 0 0 0 0 0 0 0 0 0 0 0 0 0 0 0
2 10 3 0 0 4 0 0 0 0 0 0 0 0 0 0 51 269 327 333 378 329 205 160 128 5 0 0 0 0 0 0 0 0 0 0 0 0 0 0 0 0 0 0 0 0 0 0 0
0 0 9 5 0 0 0 0 0 0 24 5 0 0 76 30 196 298 214 129 197 68 6 0 0 0 0 0 0 0 0 0 0 0 0 0 0 0 0 0 0 0 0 0 0 0 0 0 0
0 0 0 0 0 0 0 0 0 0 0 35 0 21 197 51 60 78 50 26 3 0 0 0 0 0 0 0 0 0 0 0 0 0 0 0 0 0 0 0 0 0 0 0 0 0 0 0 0
0 0 0 0 0 0 0 0 0 0 0 0 0 50 123 43 0 0 0 0 0 0 0 0 0 0 0 0 0 0 0 0 0 0 0 0 0 0 0 0 0 0 0 0 0 0 0 0 0

GFSSGP_con_sbcape_051.txt.gz
CAPE
0 0 0 0 0 0 0 0 2 747 729 935 982 1008 1003 867 575 338 254 268 777 834 945 923 792 812 848 851 686 452 229 46 16 13 111 148 202 146 139 86 45 38 0 0 0 0 1 73 185
0 0 0 0 0 0 0 0 4 68 957 1039 628 825 819 933 1068 626 447 750 880 929 903 782 702 757 840 740 557 354 146 82 79 113 66 146 106 61 84 142 98 66 22 0 0 0 0 0 44
0 0 0 0 0 0 0 0 525 416 623 278 462 356 498 508 982 696 693 964 863 908 720 544 570 709 795 673 442 306 248 208 208 230 121 86 51 34 58 183 113 69 17 0 0 0 0 0 0
0 0 0 0 0 0 0 180 0 288 105 55 99 48 93 631 775 868 1061 1061 894 795 587 354 405 653 764 635 493 408 266 209 235 255 252 124 63 74 104 180 122 88 0 0 0 0 0 0 0
0 0 0 0 0 1 476 271 249 64 39 1 0 0 106 930 674 748 735 803 574 536 532 228 374 614 708 631 499 355 256 277 320 326 289 254 179 93 169 217 166 99 14 0 0 0 0 0 0
0 0 0 0 0 43 404 217 312 98 1 0 31 0 211 600 427 662 514 62 1 7 278 199 328 364 281 439 373 292 284 351 355 319 290 262 244 230 226 236 181 105 40 5 0 0 0 0 0
0 0 0 0 0 0 294 264 259 194 0 6 5 24 270 551 396 239 102 5 5 4 2 3 38 184 353 291 289 301 320 346 339 304 282 279 250 262 273 271 193 101 44 0 0 0 0 0 0
0 0 0 0 0 0 242 151 55 68 4 0 39 3 111 388 167 2 6 4 3 2 7 10 95 118 155 185 251 282 328 354 320 319 281 238 255 280 279 217 161 79 2 0 3 0 0 0 0
0 0 0 0 0 0 222 179 42 1 66 270 454 135 173 155 3 1 3 2 2 2 0 0 9 108 107 148 222 268 320 266 224 205 183 76 23 17 0 45 81 1 0 3 0 0 0 0 0
0 0 0 0 0 114 139 56 22 0 299 134 58 92 51 112 24 5 5 5 0 0 0 0 0 49 129 184 157 80 108 70 54 30 17 0 1 0 0 11 23 1 0 0 0 0 0 0 0
0 0 0 0 0 10 43 0 6 1 137 101 432 79 45 92 43 14 1 5 0 0 0 0 0 45 117 120 64 19 20 14 8 7 0 6 8 0 0 0 0 0 0 0 0 0 0 0 0
0 0 0 0 19 1 2 0 0 0 0 125 154 29 0 20 28 39 48 11 2 4 18 104 95 78 19 11 8 2 1 0 0 0 0 0 0 0 0 0 0 0 0 0 0 0 0 0 0
0 0 0 0 5 0 7 40 0 25 284 153 76 23 32 32 58 70 40 4 16 58 141 183 56 27 0 0 0 0 0 0 9 17 20 0 0 0 0 0 0 0 0 0 0 0 0 0 0
0 0 14 32 47 51 21 0 0 41 303 82 154 92 48 77 81 79 51 59 97 120 146 192 35 1 0 0 0 0 9 30 0 0 2 0 0 0 0 0 0 0 0 0 0 0 0 0 0
0 0 39 51 67 79 0 8 0 39 397 229 65 96 98 47 62 85 38 64 151 168 133 241 45 0 0 0 0 5 7 0 0 0 0 0 0 0 0 0 0 0 0 0 0 0 0 0 0
4 0 51 13 49 44 0 0 0 40 256 139 71 229 125 66 69 57 49 34 158 84 94 89 6 6 0 0 0 0 0 0 0 0 0 0 0 0 0 0 0 0 0 0 0 0 0 0 0
0 0 0 7 1 2 0 0 0 17 136 58 18 71 278 143 73 17 27 1 178 2 1 15 0 0 0 0 0 0 0 0 0 0 0 0 0 0 0 0 0 0 0 0 0 0 0 0 0
1 0 0 0 0 11 15 5 34 9 70 95 244 320 467 376 316 180 121 85 172 0 59 20 0 0 0 0 0 0 0 0 0 0 0 0 0 0 0 0 0 0 0 0 0 0 0 0 0
0 0 0 0 0 0 0 1 0 108 598 641 556 356 403 503 458 288 200 124 0 0 4 0 0 0 0 0 0 0 0 0 0 0 0 0 0 0 0 0 0 0 0 0 0 0 0 0 0
0 0 0 0 0 0 0 0 0 55 536 533 449 217 91 514 349 287 53 0 0 0 0 0 0 0 0 0 0 0 0 0 0 0 0 0 0 0 0 0 0 0 0 0 0 0 0 0 0
0 0 0 0 0 0 0 0 0 4 277 394 345 199 0 160 260 214 0 0 0 4 3 0 0 0 0 0 0 0 0 0 0 0 0 0 0 0 0 0 0 0 0 0 0 0 0 0 0
0 0 0 0 0 0 0 0 0 0 53 210 241 50 0 8 110 39 0 0 7 21 24 20 0 0 0 0 0 0 0 0 0 0 0 0 0 0 0 0 0 0 0 0 0 0 0 0 0
0 0 0 0 0 0 0 0 0 0 0 0 134 17 0 0 1 20 20 1 34 25 2 0 0 0 0 0 0 0 0 0 0 0 0 0 0 0 0 0 0 0 0 0 0 0 0 0 0
0 0 0 0 0 0 0 0 0 0 0 0 0 8 0 0 0 0 3 21 55 3 0 0 0 0 0 0 0 0 0 0 0 0 0 0 0 0 0 0 0 0 0 0 0 0 0 0 0
0 0 0 0 0 0 0 0 0 0 0 0 0 0 0 0 0 0 10 140 89 2 0 0 0 0 0 0 0 0 0 0 0 0 0 0 0 0 0 0 0 0 0 0 0 0 0 0 0
0 0 0 0 0 0 0 0 0 0 0 0 0 0 0 0 0 0 199 221 176 61 9 4 0 0 0 0 0 0 0 0 0 0 0 0 0 0 0 0 0 0 0 0 0 0 0 0 0
0 0 0 0 0 0 0 0 0 0 0 0 0 0 0 0 0 0 229 312 209 130 99 52 0 0 0 0 0 0 0 0 0 0 0 0 0 0 0 0 0 0 0 0 0 0 0 0 0
0 0 0 0 0 0 0 0 0 0 0 0 0 0 0 0 0 0 238 371 258 194 148 62 41 39 0 0 0 0 0 0 0 0 0 0 0 0 0 0 0 0 0 0 0 0 0 0 0
0 0 0 0 0 0 0 0 0 0 0 0 0 0 0 0 32 98 143 219 280 180 87 48 20 6 0 0 0 0 0 0 0 0 0 0 0 0 0 0 0 0 0 0 0 0 0 0 0
0 0 0 0 0 0 0 0 0 0 0 0 0 0 31 2 55 140 109 63 58 29 0 0 0 0 0 0 0 0 0 0 0 0 0 0 0 0 0 0 0 0 0 0 0 0 0 0 0

GFSSGP_con_sbcape_057.txt.gz
CAPE
0 0 0 0 0 0 0 0 0 0 84 1080 1268 1184 1023 940 740 619 507 538 1062 970 765 810 875 890 748 654 413 252 176 138 136 241 229 153 129 145 130 152 235 656 461 428 231 465 342 0 0
0 0 0 0 0 0 0 0 0 165 354 697 698 720 593 674 928 614 543 1031 1128 946 803 783 843 779 674 459 280 226 182 220 282 314 244 206 192 171 154 125 197 657 753 491 366 564 52 0 25
0 0 0 0 0 0 0 0 3 449 516 659 496 138 412 746 907 875 852 1107 1157 955 759 748 682 601 504 323 226 204 250 293 328 293 276 301 227 184 173 108 100 245 467 339 352 96 0 5 36
0 0 0 0 0 0 0 0 653 388 375 219 318 417 685 992 1226 1058 1144 1096 928 757 736 432 486 470 396 318 281 263 269 291 294 226 270 310 276 201 153 114 113 127 168 31 0 0 0 0 0
0 0 0 0 0 0 0 514 573 588 421 460 385 497 886 911 557 527 428 619 573 60 510 522 395 410 456 453 334 284 261 304 305 273 286 289 269 236 174 150 133 80 64 66 4 2 0 0 0
0 0 0 0 0 0 195 709 654 440 405 378 505 657 896 976 614 273 166 104 39 1 25 122 365 268 98 272 343 241 282 319 317 324 325 342 337 254 208 168 144 116 53 10 0 0 0 0 0
0 0 0 0 0 0 18 613 753 513 311 219 377 569 671 734 321 84 8 4 4 1 0 3 21 23 30 206 391 293 336 357 326 325 320 349 287 205 175 149 150 102 48 13 0 0 0 0 0
0 0 0 0 0 0 244 628 367 652 470 297 665 524 509 535 115 10 4 3 3 9 11 7 4 1 0 126 459 366 334 353 344 309 282 258 266 262 227 135 153 143 94 9 0 0 0 0 0
0 0 0 0 0 0 463 548 360 298 605 796 684 574 685 341 24 5 7 7 6 10 4 8 1 0 2 90 270 456 411 328 303 273 217 105 46 33 1 110 112 25 0 0 0 0 0 0 0
0 0 0 0 0 0 334 497 251 435 812 594 409 740 375 93 38 3 7 6 10 14 10 3 2 0 0 0 19 247 283 231 213 159 120 63 59 37 2 45 6 0 0 0 0 0 0 0 0
0 0 0 0 0 0 33 421 108 371 785 725 589 356 319 92 19 8 8 7 6 5 0 0 0 0 23 21 90 201 176 140 133 81 83 53 92 44 11 0 0 0 0 0 0 0 0 0 0
0 0 0 0 0 9 16 161 178 238 239 311 654 460 354 199 8 1 4 4 6 4 0 1 29 64 59 96 138 150 129 96 68 80 108 46 16 1 0 0 0 0 0 0 0 0 0 0 0
0 0 0 0 0 17 42 80 76 473 661 720 827 559 399 48 10 2 0 0 1 0 0 0 25 131 115 92 99 96 89 64 79 81 137 19 0 0 0 0 0 0 0 0 0 0 0 0 0
0 0 12 67 15 48 109 96 113 417 656 471 363 265 228 21 52 4 0 0 0 0 0 2 32 127 166 88 64 46 41 34 18 25 119 51 0 0 0 0 0 0 0 0 0 0 0 0 0
0 0 20 118 72 110 60 106 30 544 559 315 209 119 86 85 73 7 0 0 0 0 0 0 18 144 173 60 18 11 9 12 17 29 81 143 0 0 0 0 0 0 0 0 0 0 0 0 0
0 0 20 39 144 27 25 140 103 397 543 545 260 285 254 188 213 157 100 8 1 0 2 100 144 149 156 48 14 6 6 17 100 106 188 67 0 0 0 0 0 0 0 0 0 0 0 0 0
0 0 0 22 59 86 24 21 111 283 487 430 321 228 253 139 183 166 139 74 42 25 70 241 311 207 103 16 0 5 26 125 126 15 4 0 0 0 0 0 0 0 0 0 0 0 0 0 0
10 1 0 0 0 55 89 81 129 437 587 530 213 147 233 270 166 160 97 105 148 95 167 323 300 175 26 0 0 9 33 55 1 0 0 0 0 0 0 0 0 0 0 0 0 0 0 0 0
0 0 0 0 0 56 77 36 2 630 647 491 365 195 196 286 253 145 138 116 162 230 215 285 232 95 1 0 3 2 2 4 1 0 0 0 0 0 0 0 0 0 0 0 0 0 0 0 0
0 1 3 0 0 0 0 0 0 245 568 421 345 238 165 301 353 236 176 149 160 204 266 217 213 76 42 27 7 1 1 3 0 0 0 0 0 0 0 0 0 0 0 0 0 0 0 0 0
0 0 0 1 0 0 0 0 0 14 149 314 243 284 269 402 537 467 255 201 204 190 248 236 203 87 30 17 0 0 0 0 0 0 0 0 0 0 0 0 0 0 0 0 0 0 0 0 0
0 0 0 0 0 1 0 26 0 0 87 214 261 329 278 322 388 628 561 377 287 220 183 244 203 94 23 0 0 0 3 6 0 0 0 0 0 0 0 0 0 0 0 0 0 0 0 0 0
0 0 0 0 0 0 0 2 0 0 0 76 393 550 593 505 481 635 773 700 428 255 124 194 180 87 24 0 0 0 0 2 0 0 0 0 0 0 0 0 0 0 0 0 0 0 0 0 0
0 0 0 0 0 0 0 0 13 0 0 0 0 325 595 605 426 534 723 712 510 240 155 188 153 90 33 1 1 0 0 0 0 0 0 0 0 0 0 0 0 0 0 0 0 0 0 0 0
0 0 0 0 0 0 0 0 6 0 0 0 0 2 341 474 383 318 568 562 465 165 175 219 235 220 40 2 2 0 0 0 0 0 0 0 0 0 0 0 0 0 0 0 0 0 0 0 0
0 0 3 0 0 0 0 0 0 0 0 0 0 0 0 258 376 237 332 504 433 238 222 230 226 258 74 3 2 0 0 0 0 0 0 0 0 0 0 0 0 0 0 0 0 0 0 0 0
0 0 0 0 0 0 0 0 0 0 0 0 0 0 0 0 104 83 124 231 260 159 220 239 278 189 110 21 10 1 2 1 0 0 0 0 0 0 0 0 0 0 0 0 0 0 0 0 0
0 0 0 1 0 0 0 0 0 0 0 0 0 0 0 0 0 0 0 27 105 144 200 170 191 174 141 54 7 4 3 2 0 0 0 0 0 0 0 0 0 0 0 0 0 0 0 0 0
0 0 0 0 0 0 0 0 0 0 0 0 0 0 0 0 0 0 0 1 102 225 243 194 168 173 150 62 4 4 5 5 0 0 0 0 0 0 0 0 0 1 0 0 0 0 0 0 0
0 0 0 0 0 0 0 0 0 0 0 0 0 0 0 0 0 0 0 70 261 331 327 297 258 280 200 29 1 5 5 1 0 0 0 0 0 0 0 0 0 0 0 0 0 0 0 0 0

GFSSGP_con_sbcape_060.txt.gz
CAPE
0 0 0 0 0 0 0 0 0 0 287 890 1068 463 748 1261 1220 770 1111 1208 1158 1186 716 908 875 927 937 776 559 369 294 286 267 207 164 169 216 261 322 587 757 737 684 545 248 0 0 0 0
0 0 0 0 0 0 5 0 0 37 466 1306 1373 1298 1026 959 1259 1128 1150 1096 1447 1180 758 529 831 826 755 544 370 300 340 320 281 241 220 240 298 326 579 809 711 951 860 707 62 0 0 0 4
0 0 0 0 0 1 21 0 0 532 899 1308 1247 1227 794 520 839 1270 1411 1280 1526 1319 721 700 714 697 603 456 328 302 324 322 273 278 308 319 327 315 561 771 715 762 1082 611 13 0 0 0 28
0 0 0 0 4 0 0 0 103 400 893 1063 1242 1209 1231 1156 1347 1542 1493 1286 1343 1048 826 426 503 579 550 483 380 395 365 283 284 298 329 336 345 302 332 409 645 932 848 107 0 0 0 0 0
0 0 0 0 0 0 0 5 333 642 1063 1059 1066 1228 1340 1372 973 1304 1464 1283 430 80 532 530 300 431 516 543 517 464 368 263 294 317 284 296 316 299 258 218 296 280 207 48 0 0 0 0 0
0 0 0 10 0 0 0 252 701 935 1098 1046 1200 1370 1489 1444 949 924 482 180 5 2 2 51 118 152 90 99 167 299 342 293 298 287 288 282 286 248 255 195 158 186 199 145 29 2 0 0 0
0 0 1 0 0 0 5 743 909 1039 936 1000 928 952 1324 928 496 330 92 98 11 5 6 6 3 4 4 50 114 154 391 425 373 334 321 269 218 211 233 191 135 108 60 14 0 0 0 0 0
0 0 0 0 0 40 76 674 783 981 1100 753 939 1027 939 606 245 108 76 6 5 9 5 10 0 0 0 0 23 310 435 375 365 372 283 210 217 219 216 164 152 142 79 0 0 0 0 0 0
0 0 9 0 1 72 227 344 705 797 1014 1027 1135 1037 1248 407 183 76 7 17 12 8 7 7 2 1 2 4 41 197 361 309 287 306 228 81 40 31 10 78 176 89 9 0 0 0 0 0 0
0 0 4 0 0 0 3 287 401 887 1104 1072 1018 855 584 200 131 48 12 15 11 14 12 12 14 10 2 5 5 180 203 253 237 178 144 48 51 38 40 10 5 0 0 0 0 0 0 0 0
0 5 1 0 2 0 1 19 184 518 683 955 1155 674 387 323 213 18 12 12 17 13 6 15 8 1 7 33 22 41 191 235 230 223 117 120 95 50 7 0 0 0 0 0 0 0 0 0 0
0 0 5 2 0 0 1 44 482 639 774 861 1190 682 425 275 61 10 6 14 4 2 5 0 0 1 0 0 1 14 51 111 109 142 171 171 124 102 28 0 0 0 0 0 0 0 0 0 0
0 1 11 28 110 7 73 319 694 798 1117 1314 1029 595 428 197 268 172 27 12 10 0 4 9 81 98 42 53 96 134 130 119 119 174 162 122 107 82 11 0 0 0 0 0 0 0 0 0 0
1 6 32 153 101 121 460 638 572 977 1261 1224 788 601 550 211 224 76 11 4 3 2 19 10 48 100 100 106 203 143 64 61 144 122 151 144 89 92 4 0 0 0 0 0 0 0 0 0 0
6 26 54 334 318 487 548 639 541 877 1169 848 720 538 643 275 262 180 38 23 6 2 4 41 76 158 164 92 160 91 27 50 20 167 389 111 69 71 0 0 0 0 0 0 0 0 0 0 0
0 13 73 266 403 387 421 140 378 904 1200 943 728 760 490 347 263 177 200 113 33 8 18 45 20 128 212 111 84 65 61 34 43 227 505 615 203 115 0 0 0 0 0 0 0 0 0 0 0
1 73 43 177 388 380 471 202 551 898 1067 855 772 760 685 700 541 230 183 118 45 14 2 6 0 28 435 340 122 112 109 84 141 390 594 758 647 122 4 0 0 0 0 0 0 0 0 0 0
5 40 51 43 168 260 259 153 299 923 958 902 516 620 522 576 602 475 361 207 44 29 35 85 84 203 603 501 282 111 223 189 309 529 685 717 437 111 10 0 0 0 0 0 0 0 0 0 0
17 28 44 50 30 175 130 122 63 689 957 1026 595 395 571 578 532 589 384 422 256 128 201 318 355 484 728 569 220 83 113 142 255 464 615 335 229 62 4 0 0 0 0 0 0 0 0 0 0
33 19 20 14 4 24 63 54 27 154 821 922 864 395 350 468 670 583 557 406 475 272 267 335 504 801 690 495 186 32 40 164 194 419 353 280 61 8 0 0 0 0 0 0 0 0 0 0 0
34 60 35 40 19 24 18 42 31 76 381 681 729 744 406 372 528 710 615 643 556 534 478 411 509 753 633 600 278 102 79 186 275 300 191 50 7 0 0 0 0 0 0 0 0 0 0 0 0
12 12 14 12 23 66 16 32 31 43 186 356 649 920 865 541 515 788 884 789 816 655 566 537 578 704 705 741 438 196 66 61 156 340 226 164 4 0 0 0 0 0 0 0 0 0 0 0 0
5 0 20 31 46 49 38 68 79 1 22 155 452 632 866 869 680 725 1007 1017 960 874 851 739 581 651 733 716 606 416 209 17 180 392 222 33 2 0 0 0 0 0 0 0 0 0 0 0 0
0 13 27 77 76 91 55 50 79 58 30 39 47 374 608 840 923 760 663 1163 1213 1182 1126 1003 857 772 809 826 723 730 577 339 343 127 90 23 5 0 0 0 0 0 0 0 0 0 0 0 0
1 17 129 111 101 104 9 41 68 35 39 29 45 78 147 580 1018 1103 852 1021 1314 1419 1373 1194 1116 963 883 1028 931 908 849 655 194 46 82 21 1 0 0 0 0 0 0 0 0 0 0 0 0
13 53 91 21 31 39 0 20 62 5 0 34 89 71 10 43 709 1073 1071 1112 1246 1437 1473 1353 1140 1219 1021 1046 920 849 707 536 63 15 46 33 0 0 0 0 0 0 0 0 0 0 0 0 0
35 36 24 115 11 92 4 3 4 0 0 47 22 39 103 23 285 711 962 1080 1367 1447 1472 1448 1196 1135 1138 1080 1038 753 367 132 1 4 2 3 0 0 0 0 0 0 0 0 0 0 0 0 0
43 15 59 96 21 9 19 0 18 0 27 0 0 0 40 129 81 234 505 898 1099 1285 1360 1453 1408 1364 1306 1196 882 377 152 74 17 6 12 1 0 1 0 0 0 0 0 0 0 0 0 0 0
22 50 30 49 39 61 16 19 0 0 0 41 75 18 53 154 222 175 199 318 588 916 1009 1086 1118 1126 1148 1064 916 331 162 71 30 9 4 0 0 0 0 0 0 0 4 0 0 0 0 0 0
26 72 85 60 20 31 51 28 0 5 0 0 0 1 57 206 320 291 261 288 417 626 805 913 915 902 896 926 754 251 152 5 4 5 0 0 0 0 0 0 1 3 0 0 0 0 0 1 2

GFSSGP_con_sbcape_063.txt.gz
CAPE
0 0 0 0 0 0 0 9 32 13 9 276 532 603 231 5 497 343 113 1627 1707 1477 914 1199 1192 1296 1285 1166 900 644 552 525 486 399 313 367 407 507 592 694 849 946 599 13 0 0 0 0 0
0 0 0 0 0 8 28 19 29 8 337 334 450 809 591 404 1127 990 1253 1796 1769 1370 852 1144 980 1080 1177 935 674 577 600 543 450 360 407 490 606 872 964 848 852 933 486 0 0 0 0 0 0
0 0 0 1 9 27 23 2 14 43 379 650 848 1219 1018 601 759 1324 1700 1871 1825 1309 550 1203 772 872 884 663 555 535 536 431 383 410 561 626 1014 1110 1130 1017 872 859 325 26 29 1 0 0 0
0 0 0 0 0 11 7 3 7 55 295 829 979 1083 1273 1582 1691 1693 1817 1736 1901 1417 457 435 513 549 563 550 587 550 486 371 374 460 592 741 1071 1106 997 916 789 776 315 44 0 0 0 0 0
0 0 0 8 18 37 6 11 285 563 451 699 1022 741 998 1747 1360 1343 1475 1510 776 160 0 193 331 339 428 561 594 553 469 463 463 512 490 582 663 768 883 918 713 351 229 10 0 0 0 0 0
0 0 1 35 12 8 1 189 168 722 865 1185 1015 813 1557 1547 1126 738 422 84 225 34 2 33 58 31 100 204 277 347 435 472 479 451 413 432 371 395 488 381 276 244 175 82 0 0 0 0 0
0 2 21 42 37 16 86 416 646 630 896 923 951 879 1754 1263 585 94 7 22 11 6 4 1 4 0 0 20 66 178 281 381 452 416 349 325 284 262 290 340 326 256 188 92 0 0 0 0 0
0 0 2 34 31 63 65 310 445 127 442 1037 952 922 1057 857 406 5 5 7 9 4 4 1 2 0 0 0 0 65 296 425 374 337 309 252 257 228 236 230 231 168 80 3 0 0 0 0 0
0 0 26 38 39 90 101 96 739 631 650 1133 1229 1303 1132 442 134 8 7 7 9 14 7 9 1 1 0 1 3 50 226 269 274 291 246 159 124 59 77 180 213 192 60 0 0 0 0 0 0
0 43 45 7 23 11 21 39 189 177 0 1037 1324 1380 853 311 239 71 8 9 16 8 15 9 7 10 5 1 1 46 105 201 190 187 188 148 148 133 128 129 129 43 0 0 0 0 0 0 0
0 1 20 18 27 19 57 58 1 98 0 590 1010 1175 712 485 353 177 15 9 12 11 10 8 15 10 6 11 0 62 106 146 171 238 235 246 221 182 155 38 0 0 0 0 0 0 0 0 0
0 0 5 29 10 5 10 38 74 381 974 1037 1569 1150 685 637 224 55 20 15 6 8 5 7 10 10 0 7 62 82 151 198 212 186 388 402 279 327 160 4 0 0 0 0 0 0 0 0 0
0 0 14 11 19 69 29 18 251 672 1171 1602 1021 792 504 353 217 37 6 10 8 7 7 3 0 7 26 16 2 10 95 146 216 179 328 392 381 446 155 136 0 0 0 0 0 0 0 0 0
11 3 3 23 28 40 19 160 656 1023 1442 1249 801 644 410 333 256 223 29 3 3 3 1 6 21 10 1 14 66 110 118 78 185 182 280 500 420 432 112 132 1 0 0 0 0 0 0 0 0
0 3 11 20 72 25 90 118 10 1166 1271 1273 1127 969 624 421 315 156 27 6 0 0 13 27 45 99 121 127 201 168 131 81 135 128 287 294 360 385 275 77 10 0 0 0 0 0 0 0 0
0 2 30 7 49 65 108 9 6 924 1071 1057 999 887 849 501 397 158 63 98 7 10 0 2 13 122 178 211 226 110 58 106 195 183 202 323 214 222 169 87 27 5 0 0 0 0 0 0 0
21 22 5 65 49 68 87 40 44 374 753 999 723 712 787 517 273 476 231 123 21 6 10 40 63 89 79 65 107 128 378 137 25 99 290 492 242 288 179 60 12 0 0 0 0 0 0 0 0
27 22 61 42 53 32 38 72 162 503 558 755 676 643 780 562 303 205 111 84 57 65 66 37 17 59 100 265 112 10 66 14 61 131 248 524 696 532 286 101 17 0 0 0 0 0 0 0 0
18 50 46 70 38 23 48 124 77 633 544 718 626 622 611 659 434 326 215 89 72 69 48 26 12 14 149 163 63 23 32 41 54 209 384 579 656 581 474 293 54 0 0 0 0 0 0 0 0
17 69 40 51 15 22 27 100 5 100 575 576 716 423 588 715 580 297 309 156 90 63 61 59 9 18 235 290 212 5 0 1 26 80 412 599 640 475 372 332 45 0 0 0 0 0 0 0 0
26 59 47 51 58 23 17 56 39 14 302 609 740 527 286 556 664 567 333 411 234 168 176 246 277 242 298 291 238 26 5 26 78 123 332 700 656 344 304 270 32 0 0 0 0 0 0 0 0
51 24 2 16 19 48 34 43 33 22 99 396 611 902 578 374 536 822 844 784 735 494 345 314 378 416 487 497 388 188 23 2 50 154 246 377 348 190 150 56 4 0 0 0 0 0 1 0 8
30 5 0 11 84 114 140 38 55 29 1 59 394 854 777 489 414 560 889 1006 937 863 709 721 490 486 589 633 622 513 248 61 87 161 345 402 485 233 78 1 0 0 0 0 0 5 1 0 0
7 0 5 17 95 165 39 109 37 20 5 25 32 216 657 638 431 407 663 924 937 966 1211 960 780 655 718 816 862 894 672 549 149 257 617 619 394 103 10 0 0 0 0 0 0 14 3 0 0
1 17 86 145 114 147 100 34 36 60 7 0 3 26 243 547 746 635 473 801 969 971 1141 1214 1126 851 824 953 1012 1062 1018 997 879 545 532 393 362 35 12 2 0 0 0 0 0 7 1 0 0
24 44 174 117 170 10 24 11 39 12 0 0 25 77 115 178 490 798 829 572 899 1181 1220 1350 1278 1248 1081 1427 1356 1482 1455 1307 1270 493 169 254 202 137 43 9 0 0 0 0 0 0 0 0 0
74 67 93 124 99 70 91 66 23 0 0 0 7 33 159 175 157 542 852 987 790 1110 1562 1895 1451 1329 1331 1694 1809 1866 1802 1586 1458 899 500 72 205 0 0 0 0 0 0 0 0 0 0 0 0
33 75 85 83 108 150 97 111 98 1 40 0 0 2 10 125 209 429 770 1090 1222 1273 1777 2067 1825 1626 1538 1555 1654 1574 1412 1098 983 774 345 158 21 0 0 0 0 0 0 0 0 0 0 0 0
10 93 73 102 120 187 149 145 52 7 0 0 0 0 2 50 267 391 440 692 1068 1336 1637 1825 1873 1854 1774 1772 1687 1520 903 478 305 291 79 47 7 4 4 1 0 0 0 0 5 0 0 0 0
28 37 82 111 95 77 156 169 69 23 14 0 0 1 13 121 180 374 458 522 617 1021 1330 1634 1704 1794 1762 1746 1682 982 587 385 165 98 42 0 0 0 0 0 0 0 0 0 1 0 0 0 0

GFSSGP_con_sbcape_066.txt.gz
CAPE
0 0 0 0 0 0 0 0 0 0 9 221 18 126 18 50 431 292 191 100 26 0 1012 1555 1498 1534 1544 1392 1139 927 816 745 739 621 617 640 808 959 1061 961 570 364 175 2 0 0 0 0 0
0 0 0 0 0 0 0 0 0 5 69 205 198 69 22 99 1235 624 1015 8 0 21 1063 1712 1327 1406 1473 1252 965 813 770 723 585 575 609 648 791 946 1100 872 391 296 227 0 0 0 0 0 0
0 0 0 0 0 0 0 0 0 0 0 86 76 361 224 994 1369 1185 1686 1078 809 1380 1392 1735 1238 1224 1326 1051 851 754 678 506 493 579 732 808 952 1043 1091 794 292 348 273 43 0 0 0 0 0
0 0 0 0 0 0 0 0 0 0 143 55 2 94 1157 1203 1370 1294 1332 1853 1475 1362 1084 791 1001 966 933 823 786 682 506 443 537 673 951 1230 1266 1169 1056 575 369 420 237 12 0 0 0 0 0
0 0 0 0 0 0 0 0 0 0 82 16 9 34 25 58 912 1045 762 292 239 348 488 1 1 538 695 812 706 512 488 533 656 880 1131 1206 1299 1042 948 513 365 293 167 0 0 0 0 0 0
0 0 0 0 0 5 0 0 32 1 49 1 0 4 55 677 431 319 379 314 49 18 1 0 0 7 217 389 301 298 407 453 540 708 847 1009 1041 906 680 365 255 180 119 38 0 0 0 0 0
0 0 0 0 3 3 95 35 114 217 154 301 11 77 247 59 110 57 97 60 111 20 1 0 0 5 12 40 65 116 246 293 379 428 405 425 388 337 337 278 237 184 124 52 1 0 0 0 0
0 0 0 0 5 43 22 0 58 13 20 51 39 787 333 159 27 12 5 5 2 37 9 3 0 0 0 0 18 111 233 211 236 240 181 184 229 277 273 251 220 189 109 22 5 0 0 0 0
0 0 0 3 18 72 25 1 10 61 7 22 56 1038 611 80 37 6 4 4 4 3 2 7 3 2 0 0 0 3 337 269 209 174 174 82 110 78 79 172 163 131 74 35 0 0 0 0 0
0 0 0 0 0 0 0 0 6 156 0 0 0 207 388 142 61 46 9 6 7 7 5 4 2 2 1 4 0 0 50 111 116 86 65 61 41 117 120 161 127 88 51 6 0 0 0 0 0
0 0 0 0 0 0 0 0 12 2 0 0 0 189 559 572 108 25 8 8 7 8 9 6 5 0 0 2 0 5 32 88 100 131 129 100 147 109 75 43 15 0 0 0 0 0 0 0 0
0 0 0 0 0 0 0 0 6 130 65 3 0 734 522 409 81 6 6 9 5 4 9 6 2 2 0 1 2 13 25 68 77 216 175 181 169 140 59 19 4 0 0 0 0 0 0 0 0
0 0 0 0 0 0 3 13 12 179 434 719 997 612 464 322 82 7 5 5 8 7 7 3 6 3 7 0 29 50 59 77 150 228 260 219 182 141 84 75 3 0 0 0 0 0 0 0 0
0 2 0 0 0 0 0 4 216 26 0 849 874 663 535 362 109 6 5 4 5 6 3 3 4 12 1 14 27 41 80 157 188 267 362 421 230 250 107 176 7 0 0 0 0 0 0 0 0
0 0 0 0 0 0 0 2 12 1 24 959 804 637 450 309 307 1 2 4 2 2 2 1 7 0 5 0 2 40 49 145 194 230 386 409 411 363 277 118 87 1 0 0 0 0 0 0 0
0 0 0 0 1 2 0 4 5 13 28 620 909 739 511 434 261 20 1 3 1 1 7 0 1 8 35 63 23 111 88 84 156 214 240 347 323 273 267 117 54 1 0 0 0 0 0 0 0
0 0 0 4 7 10 77 3 0 0 0 100 702 695 361 438 118 60 21 1 0 0 0 0 0 4 93 147 121 136 120 138 93 159 271 274 232 212 195 152 29 0 0 0 0 0 0 0 0
2 4 11 6 0 27 23 29 0 0 139 110 452 587 378 401 311 113 98 41 12 0 0 0 0 6 54 153 206 134 68 78 70 73 163 183 69 258 245 57 40 0 0 0 0 0 0 0 0
16 0 9 11 5 20 13 48 92 18 124 672 480 564 540 230 259 263 136 5 0 0 0 0 6 85 108 25 31 4 64 12 0 0 33 345 411 436 288 70 63 0 0 0 0 0 0 0 0
0 0 7 20 7 0 0 13 32 173 111 242 422 435 524 337 285 142 53 2 0 7 51 59 58 120 76 21 0 0 4 5 0 10 44 345 409 442 392 316 116 0 0 0 0 0 0 0 0
0 0 3 43 10 10 1 2 32 0 113 128 456 369 571 556 352 256 148 69 44 3 22 27 37 33 90 80 20 1 3 0 0 8 111 461 503 408 306 250 295 0 0 0 0 0 0 0 0
2 0 7 15 23 26 5 4 53 4 7 149 202 472 255 500 370 258 280 111 80 35 48 42 3 0 51 203 180 84 0 0 0 0 63 501 522 400 313 260 168 0 0 0 0 0 0 0 0
16 0 12 0 4 33 40 31 53 4 10 0 180 470 352 313 466 388 205 316 151 161 110 164 214 125 137 185 245 217 49 7 0 44 56 443 340 206 151 170 125 0 0 0 0 0 0 0 0
5 1 0 0 2 30 30 26 23 20 27 52 156 459 675 387 352 578 608 536 535 425 426 252 333 307 329 413 345 441 176 105 13 55 97 383 303 206 190 53 0 0 0 0 0 0 0 0 0
0 0 9 52 82 144 76 98 119 14 10 15 7 394 580 522 332 313 692 815 781 759 727 654 472 418 389 626 610 420 762 257 289 124 230 365 278 93 19 0 0 0 0 0 0 0 0 0 0
0 0 41 30 1 130 28 67 35 5 1 0 0 11 163 474 582 407 257 821 869 877 961 970 845 674 582 641 909 903 711 956 529 556 466 184 159 73 2 0 0 0 0 0 0 0 0 0 0
14 21 16 41 37 121 2 131 48 4 0 0 0 3 108 136 300 596 615 483 906 900 1074 1186 1072 983 812 752 784 879 1078 865 934 917 431 133 126 135 24 0 0 0 0 0 0 0 0 0 0
0 7 49 80 5 36 10 28 68 7 0 1 0 2 30 122 182 252 643 803 658 1031 1116 1252 1250 1221 1166 1110 1086 1111 1175 1199 1104 943 506 333 125 0 0 0 0 0 0 0 0 0 0 0 0
0 4 53 59 71 123 220 104 27 2 1 0 8 1 9 67 237 287 499 891 919 914 1127 1476 1476 1362 1295 1183 1190 1121 1413 894 582 206 157 166 8 0 0 0 0 0 0 0 0 0 0 0 0
4 3 72 142 99 109 132 75 8 15 4 6 0 3 6 7 112 361 502 521 670 1234 1247 1656 1754 1693 1595 1486 1315 1328 926 306 93 1 5 0 0 0 0 0 0 0 0 0 0 0 0 0 0

GFSSGP_con_sbcape_069.txt.gz
CAPE
0 0 0 0 0 0 0 0 0 0 13 113 108 156 116 159 478 654 538 23 59 5 5 95 642 1767 1720 1406 1113 1007 981 970 892 785 790 1073 1147 1014 765 523 255 158 2 0 0 0 0 0 0
0 0 0 0 0 0 0 0 0 0 81 157 19 38 35 1070 1283 669 416 182 238 113 16 8 3 478 1690 1380 1073 1024 1110 1011 927 852 1064 1191 1141 805 507 282 185 196 5 0 0 0 0 0 0
0 0 0 0 0 0 0 0 0 30 110 64 0 95 713 216 1095 1326 786 274 47 48 4 1 68 840 1523 1240 944 960 923 856 834 860 1105 1262 1143 650 438 273 215 173 0 0 0 0 0 0 0
0 0 0 0 0 0 0 0 8 72 70 33 27 169 362 6 773 734 288 484 854 844 433 566 727 830 1206 1145 979 850 714 695 721 839 1089 1315 1154 589 455 334 257 180 0 0 0 0 0 0 0
0 0 0 0 0 0 0 0 17 6 28 109 83 104 78 326 533 242 402 381 353 220 63 0 3 74 2 1007 962 663 614 646 712 910 1030 1134 938 561 455 318 179 96 0 0 0 0 0 0 0
0 0 0 0 0 0 3 16 79 113 63 176 23 108 142 248 139 69 308 177 75 47 3 0 9 0 1 36 559 487 563 651 918 1006 1066 1022 697 485 403 209 96 79 39 0 0 0 0 0 0
0 0 0 0 0 0 18 11 114 176 121 230 36 5 348 67 15 19 126 152 83 5 4 0 0 2 1 71 28 163 260 677 841 861 813 740 353 285 212 131 109 93 42 0 0 0 0 0 0
0 0 0 0 0 0 26 5 66 9 51 155 200 497 311 71 2 1 1 1 9 18 4 0 1 0 0 0 3 61 112 238 373 405 292 178 144 139 110 82 103 75 32 0 0 0 0 0 0
0 0 0 0 0 5 27 1 37 0 3 0 553 594 255 59 2 3 3 1 1 4 7 3 1 1 1 2 3 38 158 270 220 183 91 60 29 22 26 77 83 86 45 26 0 0 0 0 0
0 0 0 0 0 0 6 17 5 31 0 0 391 433 147 143 36 4 4 3 3 4 5 3 1 0 0 4 2 10 81 64 77 53 6 6 7 23 41 75 76 84 61 32 1 0 0 0 0
0 0 0 0 0 0 0 0 5 0 8 0 10 453 240 193 151 11 6 3 3 4 6 6 3 5 0 0 0 0 31 78 58 24 0 8 10 23 24 14 9 1 1 0 0 0 0 0 0
0 0 0 0 0 0 0 0 4 0 0 30 32 470 573 162 49 4 6 4 3 3 3 2 1 2 0 0 0 0 47 93 47 6 36 9 6 4 1 0 0 0 0 0 0 0 0 0 0
0 0 0 0 0 0 0 14 118 0 0 0 377 517 445 193 23 2 6 7 6 6 8 8 3 0 0 0 0 14 45 34 54 69 74 36 20 0 1 0 0 0 0 0 0 0 0 0 0
0 0 0 0 0 0 0 3 53 0 0 5 582 420 246 203 29 4 3 5 4 5 5 4 5 2 1 0 0 1 16 25 96 82 81 80 46 3 1 0 0 0 0 0 0 0 0 0 0
0 0 0 0 0 0 0 0 0 0 0 71 814 442 406 306 22 0 2 6 4 2 1 2 5 0 0 0 0 0 17 60 95 126 141 97 77 7 12 0 0 0 0 0 0 0 0 0 0
0 0 0 0 0 0 0 0 0 13 227 598 572 442 376 251 20 1 1 1 1 3 2 5 10 0 0 0 0 0 8 39 84 100 108 125 149 45 4 0 0 0 0 0 0 0 0 0 0
0 0 0 0 0 0 0 0 0 6 23 36 516 481 368 167 10 0 0 0 0 0 0 0 0 0 0 0 2 4 3 15 6 24 41 73 111 35 45 0 0 0 0 0 0 0 0 0 0
0 0 0 0 0 3 0 0 17 1 0 46 23 82 381 105 17 0 0 0 0 0 0 0 0 0 0 0 0 9 0 1 0 0 5 28 31 85 26 4 0 0 0 0 0 0 0 0 0
0 0 0 0 0 1 0 5 4 14 47 21 0 72 191 134 52 0 0 0 0 0 0 0 0 0 0 0 0 7 0 0 0 0 0 0 0 67 8 0 0 0 0 0 0 0 0 0 0
0 0 0 2 0 0 0 0 24 1 0 0 5 36 165 252 60 10 0 0 0 0 0 0 0 0 0 0 0 0 0 0 0 0 0 17 10 43 29 0 0 0 0 0 0 0 0 0 0
0 0 0 0 0 0 0 0 10 4 22 0 15 149 67 249 78 18 0 0 0 0 0 0 0 0 0 0 0 0 0 0 0 0 0 73 129 157 164 5 4 0 0 0 0 0 0 0 0
0 0 0 4 1 0 0 0 0 0 0 4 69 215 76 172 139 30 0 0 0 0 0 0 0 0 0 0 0 0 0 0 0 0 0 109 142 165 131 118 47 0 0 0 0 0 0 0 0
0 7 0 7 0 0 0 0 2 0 0 7 23 152 73 26 17 1 0 0 0 0 0 0 0 0 0 0 0 0 0 0 0 0 0 94 122 108 129 50 34 0 0 0 0 0 0 0 0
0 0 0 0 0 0 0 4 0 0 0 0 3 58 51 57 73 30 2 0 1 0 0 0 0 0 0 0 3 11 0 0 0 0 0 36 124 92 68 81 19 0 0 0 0 0 0 0 0
0 0 0 0 0 0 34 7 0 0 0 0 0 41 3 14 78 69 56 0 0 0 0 0 0 1 0 0 3 13 23 0 0 0 0 31 66 148 111 8 0 0 0 0 0 0 0 0 0
0 0 0 0 0 22 5 1 0 0 0 0 0 58 80 3 45 108 68 101 9 2 0 1 3 15 0 0 5 1 7 1 0 0 0 81 102 76 0 0 0 0 0 0 0 0 0 0 0
0 0 1 25 3 0 13 6 5 0 0 0 0 10 114 62 13 45 129 105 179 55 25 25 3 0 25 21 72 82 35 60 9 17 3 66 78 3 0 0 0 0 0 0 0 0 0 0 0
0 5 13 39 0 1 28 20 0 0 0 0 0 0 0 0 0 0 5 325 317 341 310 180 150 115 88 108 102 233 202 90 191 89 5 0 4 0 0 0 0 1 0 0 0 0 0 0 0
0 0 16 30 5 0 23 10 0 0 0 0 0 0 0 0 0 0 2 36 452 508 416 376 391 421 352 272 178 205 254 281 153 28 19 45 0 0 0 0 1 0 0 0 0 0 0 0 0
0 0 4 13 14 10 2 32 4 0 0 0 0 0 0 2 4 54 29 37 140 404 425 612 597 492 396 318 305 280 98 96 34 21 35 0 0 0 1 0 1 0 0 0 0 0 0 0 0

GFSSGP_con_sbcape_072.txt.gz
CAPE
0 0 0 0 0 0 0 0 0 0 0 28 38 141 939 878 771 492 408 165 115 441 1251 1704 1615 1593 1517 1225 1279 1184 1117 1036 1026 1163 1284 1232 986 775 507 290 167 30 0 0 2 5 6 15 2
0 0 0 0 0 0 0 0 0 0 4 52 45 467 634 905 966 440 805 650 254 289 47 549 287 570 502 1228 1211 1227 1224 1018 1167 1418 1385 1186 955 688 454 299 96 29 0 0 0 0 0 0 0
0 0 0 0 0 0 0 0 0 26 33 30 35 587 407 319 839 1217 940 384 303 138 21 18 282 70 916 1032 1049 1227 1098 923 1269 1470 1357 1067 854 645 504 218 75 15 0 0 0 0 0 0 0
0 0 0 0 0 0 0 0 0 25 29 19 95 203 217 77 263 620 578 677 562 702 141 0 128 108 255 749 947 1059 975 931 1188 1355 1167 993 820 745 462 191 71 2 0 0 0 0 0 0 0
0 0 0 0 0 0 0 0 0 30 89 132 50 93 66 93 424 174 351 357 655 349 131 437 41 32 16 16 54 856 819 933 1182 1272 872 782 760 652 386 176 39 0 0 0 0 0 0 0 0
0 0 0 0 0 0 0 0 41 96 152 126 110 96 142 73 0 54 181 20 14 18 57 61 19 10 16 0 2 477 590 779 1052 1034 699 655 635 446 284 119 15 0 0 0 0 0 0 0 0
0 0 0 0 0 0 0 0 100 45 120 177 78 20 233 37 1 5 2 32 2 2 22 3 1 2 0 0 8 110 159 652 894 749 538 482 360 190 131 53 9 0 0 0 0 0 0 0 0
0 0 0 0 0 0 0 3 11 5 52 190 357 362 7 0 1 1 0 4 2 2 2 4 5 0 0 0 0 11 75 355 523 444 350 252 133 77 50 0 0 0 0 0 0 0 0 0 0
0 0 0 0 0 0 0 5 1 0 0 207 452 466 72 0 0 0 1 3 6 3 1 8 8 3 1 2 3 0 10 143 339 282 184 58 0 0 0 3 0 5 0 0 0 0 0 0 0
0 0 0 0 0 0 0 0 0 14 3 0 248 245 42 0 0 1 1 3 6 5 2 3 5 1 1 4 3 1 1 23 84 50 30 6 0 0 0 35 43 38 2 0 0 0 0 0 0
0 0 0 0 0 0 0 23 0 14 63 8 8 172 209 127 5 1 2 3 5 4 4 1 0 4 0 2 0 0 3 14 13 27 32 38 15 4 10 15 8 1 0 0 0 0 0 0 0
0 0 0 0 0 0 0 8 35 4 79 41 39 113 39 139 41 3 2 3 3 6 6 5 4 0 2 0 0 4 13 14 0 5 6 2 0 0 0 0 0 0 0 0 0 0 0 0 0
0 0 0 0 0 0 0 14 13 0 2 67 329 283 214 11 4 1 1 3 3 2 4 5 2 0 0 0 0 0 4 5 1 28 9 0 0 0 0 0 0 0 0 0 0 0 0 0 0
0 0 0 0 0 0 0 0 0 0 0 221 452 308 169 25 0 4 4 5 5 5 6 4 3 0 0 0 0 0 0 0 20 37 4 0 0 0 0 0 0 0 0 0 0 0 0 0 0
0 0 0 0 0 0 0 0 0 0 0 364 264 226 162 101 0 1 2 3 4 6 10 3 5 7 2 0 0 0 0 0 10 39 27 0 0 0 0 0 0 0 0 0 0 0 0 0 0
0 0 0 0 0 0 0 0 0 0 1 398 348 177 206 209 0 0 1 3 2 4 6 6 9 4 0 0 0 0 0 0 21 51 30 21 0 0 0 0 0 0 0 0 0 0 0 0 0
0 0 0 0 0 0 0 0 0 30 267 389 285 246 209 133 0 0 1 1 2 1 4 11 2 0 0 0 0 0 0 0 30 38 44 29 14 0 0 0 0 0 0 0 0 0 0 0 0
0 0 0 0 0 0 0 0 0 2 29 345 281 286 105 100 0 0 0 0 1 1 0 3 0 0 0 0 0 0 0 7 12 17 24 33 24 10 0 0 0 0 0 0 0 0 0 0 0
0 0 0 0 0 6 1 0 0 0 0 18 91 21 44 8 0 0 0 0 0 0 0 2 0 0 0 0 0 0 0 0 0 1 16 7 0 0 0 0 0 0 0 0 0 0 0 0 0
0 0 0 0 0 0 0 0 0 1 0 4 175 105 56 16 0 0 0 0 0 0 0 0 0 0 0 0 0 0 0 0 0 0 0 0 0 0 0 0 0 0 0 0 0 0 0 0 0
0 0 0 0 0 0 0 0 0 0 0 0 29 17 36 18 0 0 0 0 0 0 0 0 0 0 0 0 0 0 0 0 0 0 0 0 0 0 0 0 0 0 0 0 0 0 0 0 0
0 0 0 0 0 0 0 0 0 0 0 0 1 0 18 80 0 0 0 0 0 0 0 0 0 0 0 0 0 0 0 0 0 0 0 0 0 0 0 0 0 0 0 0 0 0 0 0 0
0 0 0 1 0 0 0 0 0 0 0 0 0 1 64 141 1 0 0 0 0 0 0 0 0 0 0 0 0 0 0 0 0 0 0 0 5 16 19 26 0 0 0 0 0 0 0 0 0
0 0 0 0 0 0 0 0 0 0 0 0 1 14 99 167 33 6 0 0 0 0 0 0 0 0 0 0 0 0 0 0 0 0 0 0 6 31 71 69 40 1 0 0 0 0 0 0 0
0 0 0 0 0 0 1 0 0 0 0 0 10 44 88 172 83 24 0 0 0 0 0 0 0 0 0 0 0 0 0 0 0 0 0 0 13 80 94 45 8 0 0 0 0 0 0 0 0
0 0 0 0 0 0 0 0 0 0 0 0 0 23 87 82 69 47 0 0 0 0 0 0 0 0 0 0 0 0 0 0 0 0 0 0 0 27 88 19 1 0 0 0 0 0 0 0 0
0 0 0 0 0 0 0 0 0 0 0 0 0 0 21 22 23 13 0 0 0 0 0 0 0 0 0 0 0 0 0 3 2 0 0 0 0 18 1 0 0 0 0 0 0 0 0 1 0
0 0 19 6 4 0 0 0 0 0 0 0 0 0 0 3 44 46 21 0 0 0 0 0 0 0 0 0 0 0 0 3 23 0 0 0 0 0 0 0 0 0 0 0 0 0 0 0 0
0 0 36 22 0 0 0 0 0 0 0 0 0 0 0 0 0 7 34 55 15 0 0 1 0 1 0 1 4 0 13 15 10 0 0 0 0 0 1 0 0 0 0 1 0 0 0 0 0
0 0 1 8 0 0 0 0 0 0 0 0 0 0 0 0 0 0 0 5 40 60 26 0 20 7 1 15 60 41 5 7 3 2 1 4 3 0 0 0 0 0 1 0 0 0 0 0 0

GFSSGP_con_sbcape_075.txt.gz
CAPE
0 0 0 0 0 0 0 0 0 0 0 0 0 294 547 667 455 226 295 229 333 976 1532 1611 1572 1698 1587 1492 1425 1402 1538 1574 1499 1314 1139 1031 921 763 552 390 308 316 278 21 22 28 37 17 14
0 0 0 0 0 0 0 0 0 0 0 0 115 463 378 727 615 418 485 365 563 557 410 745 395 820 1507 1505 1433 1364 1437 1724 1643 1451 1158 1040 861 678 483 279 158 313 287 34 25 13 5 2 11
0 0 0 0 0 0 0 0 0 0 0 0 19 294 252 410 739 1016 678 725 487 414 214 398 156 100 228 578 424 618 968 1078 1623 1454 1246 1032 788 705 440 149 70 253 251 22 6 0 0 8 0
0 0 0 0 0 0 0 0 0 0 3 11 27 118 167 73 478 521 534 656 246 356 230 371 224 91 310 628 710 376 585 806 1177 1379 1163 946 850 680 408 113 33 195 191 4 0 0 0 0 0
0 0 0 0 0 0 0 0 0 0 14 23 1 18 79 35 299 104 423 477 838 279 301 107 216 136 95 141 141 577 610 814 952 1235 933 827 772 621 305 66 23 59 18 0 0 0 3 0 0
0 0 0 0 0 0 0 0 0 0 14 30 84 103 124 119 0 167 168 12 22 69 269 65 192 21 11 4 3 80 325 377 870 977 820 768 582 448 181 37 0 0 0 0 0 0 0 0 0
0 0 0 0 0 0 0 0 0 41 83 79 54 52 118 14 1 31 37 2 1 15 29 18 27 7 15 51 13 62 129 313 601 714 661 495 313 224 97 21 0 0 0 0 0 0 0 0 0
0 0 0 0 0 0 0 0 3 45 57 79 420 514 10 0 2 13 4 2 1 2 2 1 1 0 0 0 31 154 144 133 223 358 464 280 209 138 80 0 0 0 0 0 0 0 0 0 0
0 0 0 0 0 0 0 0 0 0 12 220 403 513 47 3 1 3 4 3 3 3 3 3 3 1 0 0 18 23 106 174 194 234 281 94 88 65 2 0 0 0 0 0 0 0 0 0 0
0 0 0 0 0 0 0 0 0 4 0 1 242 286 1 3 1 1 3 4 4 4 6 2 2 2 0 3 0 0 23 50 103 131 105 61 3 4 2 0 0 0 0 0 0 0 0 0 0
0 0 0 0 0 0 0 0 0 2 0 0 5 86 30 12 1 0 4 1 1 2 3 4 2 1 0 1 0 1 1 13 3 63 25 9 35 4 0 0 0 0 0 0 0 0 0 0 0
0 0 0 0 0 0 0 0 0 0 0 7 0 89 75 13 5 1 2 3 3 3 2 2 1 0 0 0 0 3 9 8 2 53 29 16 10 0 0 0 0 0 0 0 0 0 0 0 0
0 0 0 0 0 0 0 0 0 0 11 48 61 58 55 21 11 2 1 2 4 3 4 5 0 0 0 0 2 2 3 15 14 31 22 0 0 0 0 0 0 0 0 0 0 0 0 0 0
0 0 0 0 0 0 0 0 0 0 3 0 107 74 32 1 1 3 2 2 3 4 6 6 0 0 0 0 0 0 0 0 0 0 0 0 0 0 0 0 0 0 0 0 0 0 0 0 0
0 0 0 0 0 0 0 0 0 0 0 0 195 68 50 0 2 0 0 2 2 4 6 4 0 0 0 0 0 6 0 0 0 1 11 0 0 0 0 0 0 0 0 0 0 0 0 0 0
0 0 0 0 0 0 0 0 0 0 0 0 173 50 29 32 0 0 0 1 1 5 5 6 10 1 4 1 4 34 8 3 17 12 4 0 0 0 0 0 0 0 0 0 0 0 0 0 0
0 0 0 0 0 0 0 0 0 0 0 0 120 27 19 28 0 1 0 0 1 2 8 5 7 6 11 10 11 1 0 7 28 20 14 0 0 0 0 0 0 0 0 0 0 0 0 0 0
0 0 0 0 0 0 0 0 0 0 0 14 178 83 42 25 0 1 0 0 1 2 8 8 5 4 1 0 0 0 1 16 50 41 35 6 0 0 0 0 0 0 0 0 0 0 0 0 0
0 0 0 0 0 0 0 0 0 0 0 0 71 161 42 28 0 0 0 0 0 2 3 5 1 1 0 0 0 0 0 0 13 43 40 11 0 0 0 0 0 0 0 0 0 0 0 0 0
0 0 0 0 0 0 0 0 0 0 0 0 0 16 30 11 0 0 0 1 1 0 1 4 0 0 0 0 0 0 0 0 6 2 6 6 4 0 0 0 0 0 0 0 0 0 0 0 0
0 0 0 0 0 0 0 0 0 0 0 0 0 2 0 5 0 0 1 0 1 0 1 0 0 0 0 0 0 0 0 0 0 0 0 1 0 0 0 0 0 0 0 0 0 0 0 0 0
0 0 0 0 0 0 0 0 0 0 0 0 0 0 0 0 0 0 0 0 0 0 0 0 0 0 0 0 0 0 0 0 0 0 0 0 0 0 0 0 0 0 0 0 0 0 0 0 0
0 0 0 0 0 0 0 0 0 0 0 0 0 0 0 0 0 0 0 0 0 0 0 0 0 0 0 0 0 0 0 0 0 0 0 0 0 0 0 0 0 0 0 0 0 0 0 0 0
0 0 0 0 0 0 0 0 0 0 0 0 0 0 0 0 0 0 0 0 0 0 0 0 0 0 0 0 0 0 0 0 0 0 0 0 0 0 0 0 0 0 0 0 0 0 0 0 0
0 0 0 0 0 0 0 0 0 0 0 0 0 0 0 0 0 0 0 0 0 0 0 0 0 0 0 0 0 0 0 0 0 0 0 0 0 0 1 3 9 3 3 0 0 0 0 0 0
0 0 0 0 0 0 0 0 0 0 0 0 0 0 0 0 2 0 0 0 0 0 0 0 0 0 0 0 0 0 0 0 0 0 0 0 0 0 2 7 5 7 0 0 0 0 0 0 0
0 0 0 0 0 0 0 0 0 0 0 0 0 0 15 2 25 2 0 0 0 0 0 0 0 0 0 0 0 0 0 0 0 0 0 0 0 0 0 10 23 1 0 0 0 0 0 0 0
0 0 0 0 0 0 0 0 0 0 0 0 0 0 0 8 48 52 3 0 0 0 0 0 0 0 0 0 0 0 0 0 0 0 0 0 0 0 0 0 0 0 0 0 0 0 0 1 1
0 0 0 0 0 0 0 0 0 0 0 0 0 0 0 1 0 20 12 1 0 0 0 0 0 0 0 0 0 0 0 0 0 0 0 0 0 0 0 0 0 0 0 0 0 0 0 0 1
0 0 0 0 3 0 0 0 0 0 0 0 0 0 0 0 0 7 3 0 0 0 0 0 0 0 0 0 0 0 0 0 0 0 0 0 0 0 0 0 9 0 0 0 0 0 2 0 2

GFSSGP_con_sbcape_078.txt.gz
CAPE
0 0 0 0 0 0 0 0 0 0 0 0 22 24 127 227 144 26 212 175 269 1408 1538 1338 1297 1474 1603 1236 1248 1503 1808 1842 1637 1615 1472 1415 1203 956 726 685 593 567 426 49 26 19 16 18 19
0 0 0 0 0 0 0 0 0 0 0 0 27 153 218 448 447 211 312 357 399 738 1077 735 986 1048 987 857 910 978 1779 1691 1658 1615 1458 1306 1071 804 767 650 515 544 466 61 24 30 15 9 12
0 0 0 0 0 0 0 0 0 0 0 0 0 127 110 141 574 737 447 420 327 444 528 560 523 329 335 342 180 663 1302 1518 1560 1444 1394 1272 1009 860 735 544 481 555 612 252 175 70 23 4 10
0 0 0 0 0 0 0 0 0 0 0 0 0 1 50 6 214 301 183 391 511 414 387 514 423 388 403 315 111 38 641 1147 1389 1307 1274 1137 936 709 525 453 463 524 316 20 20 32 6 2 6
0 0 0 0 0 0 0 0 0 0 0 0 0 0 18 3 142 7 236 192 670 374 226 425 267 151 130 278 96 112 167 817 959 1208 968 941 752 442 323 349 398 222 24 3 13 6 0 0 0
0 0 0 0 0 0 0 0 0 0 0 2 22 12 15 53 0 98 53 61 137 261 267 278 408 419 319 550 711 494 388 599 807 896 837 821 528 291 251 297 166 6 0 19 18 3 0 0 0
0 0 0 0 0 0 0 0 0 0 7 31 33 8 0 11 0 68 24 2 5 8 228 68 138 46 30 28 176 374 504 492 578 619 702 546 302 180 168 113 6 0 5 91 2 0 0 0 0
0 0 0 0 0 0 0 0 0 0 0 29 99 86 0 0 4 7 1 1 1 1 1 68 9 0 0 20 97 101 245 235 288 343 387 344 198 142 50 7 0 0 0 20 0 0 0 0 0
0 0 0 0 0 0 0 0 0 0 0 20 117 218 1 0 5 3 2 1 1 2 1 1 0 0 0 0 75 94 240 148 97 164 218 204 65 28 0 0 0 0 0 0 0 0 0 0 0
0 0 0 0 0 0 0 0 0 0 0 0 53 31 2 13 28 3 2 2 2 2 3 1 0 0 0 0 0 82 45 41 68 103 130 116 33 1 0 0 0 0 0 0 5 14 0 0 0
0 0 0 0 0 0 0 0 0 0 0 0 4 28 27 19 9 3 2 1 1 2 2 2 1 0 0 0 0 2 0 4 29 34 115 25 0 1 0 0 0 0 0 0 1 3 0 0 0
0 0 0 0 0 0 0 0 0 0 0 8 0 5 7 15 17 0 2 1 1 2 2 2 1 0 0 0 0 1 19 14 1 32 26 37 2 0 0 0 0 0 0 0 0 0 0 0 0
0 0 0 0 0 0 0 0 0 0 0 6 9 20 23 24 7 0 0 2 1 2 2 2 1 0 0 0 0 0 11 19 20 26 26 13 6 0 0 0 0 0 0 0 0 0 0 0 0
0 0 0 0 0 0 0 0 0 0 0 37 27 34 30 23 3 0 1 3 4 2 4 2 0 0 0 0 0 0 3 16 34 28 30 9 1 0 0 0 0 0 0 0 0 0 0 0 0
0 0 0 0 0 0 0 0 0 0 0 0 60 35 9 20 1 0 0 0 1 3 5 1 0 1 0 0 0 1 0 5 48 26 0 0 0 0 0 0 0 0 0 0 0 0 0 0 0
0 0 0 0 0 0 0 0 0 0 0 0 26 23 31 2 0 0 0 2 3 5 4 2 3 1 1 0 0 9 0 3 26 31 1 0 0 0 0 0 0 0 0 0 0 0 0 0 0
0 0 0 0 0 0 0 0 0 0 0 0 20 35 14 0 0 0 0 1 5 2 5 5 4 3 9 5 16 15 9 0 2 26 12 0 0 0 0 0 0 0 0 0 0 0 0 0 0
0 0 0 0 0 0 0 0 0 0 0 0 8 10 6 0 0 0 0 0 4 2 4 7 4 6 14 8 5 2 3 3 20 24 15 0 0 0 0 0 0 0 0 0 0 0 0 0 0
0 0 0 0 0 0 0 0 0 0 0 0 0 20 2 4 0 0 0 0 5 4 10 9 4 7 9 3 0 6 15 7 21 22 40 2 0 0 0 0 0 0 0 0 0 0 0 0 0
0 0 0 0 0 0 0 0 0 0 0 0 0 13 0 0 3 3 1 1 2 4 11 3 3 3 0 0 1 0 0 0 26 44 26 7 0 0 0 0 0 0 0 0 0 0 0 0 0
0 0 0 0 0 0 0 0 0 0 0 0 0 0 0 5 19 1 1 0 1 4 4 1 0 0 0 0 0 0 0 0 6 19 26 30 16 1 0 0 0 0 0 0 0 0 0 0 0
0 0 0 0 0 0 0 0 0 0 0 0 0 0 0 1 1 0 0 0 0 0 0 1 0 0 0 0 0 0 0 3 7 1 9 1 9 12 0 0 0 0 0 0 0 0 0 0 0
0 0 0 0 0 0 0 0 0 0 0 0 0 0 0 0 0 0 0 0 0 0 0 0 0 0 0 0 0 0 0 0 0 0 0 0 0 0 0 0 0 0 0 0 0 0 0 0 0
0 0 0 0 0 0 0 0 0 0 0 0 0 0 0 0 0 0 0 0 0 0 0 0 0 0 0 0 0 0 0 0 0 0 0 0 0 0 0 0 0 0 0 0 0 0 0 0 0
0 0 0 0 0 0 0 0 0 0 0 0 0 0 0 0 0 0 0 0 0 0 0 0 0 0 0 0 0 0 0 0 0 0 0 0 0 0 0 0 0 0 0 0 0 0 0 0 0
0 0 0 0 0 0 0 0 0 0 0 0 0 0 0 0 0 0 0 0 0 0 0 0 0 0 0 0 0 0 0 0 0 0 0 0 0 0 0 0 0 0 0 0 0 0 0 0 0
0 0 0 0 0 0 0 0 0 0 0 0 0 0 0 0 0 0 0 0 0 0 0 0 0 0 0 0 0 0 0 0 0 0 0 0 0 0 0 0 0 0 0 0 0 0 0 0 0
0 0 0 0 0 0 0 0 0 0 0 0 0 0 0 0 0 0 0 0 0 0 0 0 0 0 0 0 0 0 0 0 0 0 0 0 0 0 0 0 0 0 0 0 0 0 0 0 0
0 0 0 0 0 0 0 0 0 0 0 0 0 0 0 0 0 0 0 0 0 0 0 0 0 0 0 0 0 0 0 0 0 0 0 0 0 0 0 0 0 0 0 0 0 0 0 0 0
0 0 0 0 0 0 0 0 0 0 0 0 0 0 0 0 0 0 0 0 0 0 0 0 0 0 0 0 0 0 0 0 0 0 0 0 0 0 0 0 0 0 0 0 0 0 0 0 0

GFSSGP_con_sbcape_081.txt.gz
CAPE
0 0 0 0 0 0 0 0 0 0 0 0 25 2 78 244 113 48 411 448 452 1558 1918 1793 1652 1806 1775 1771 2020 2002 2005 1987 1829 1591 1595 1607 1537 1429 1225 968 822 626 378 18 21 27 42 28 32
0 0 0 0 0 0 0 0 0 0 0 0 297 240 217 248 606 419 513 411 453 440 1612 1798 1577 1681 1671 1733 1755 1977 2117 2004 1805 1754 1712 1595 1447 1246 1119 858 654 555 403 26 20 18 30 22 18
0 0 0 0 0 0 0 0 0 0 0 0 0 73 149 306 741 842 549 332 446 450 670 1431 1311 1327 1399 1243 946 1324 1579 895 1568 1802 1737 1488 1338 1305 1120 748 587 481 327 22 26 22 11 10 18
0 0 0 0 0 0 0 0 0 0 0 0 0 0 47 57 641 430 267 380 571 730 621 659 928 1156 1280 1083 982 727 591 815 1047 1602 1606 1418 1336 1276 1009 680 487 502 437 374 25 13 8 10 9
0 0 0 0 0 0 0 0 0 0 0 0 0 0 0 1 96 64 247 206 668 743 469 445 694 919 730 631 780 630 464 569 683 1314 1397 1257 1262 1143 815 625 585 481 446 329 67 6 2 5 6
0 0 0 0 0 0 0 0 0 0 0 0 0 0 0 56 14 64 75 19 195 573 427 380 281 408 460 846 484 318 560 494 781 869 1077 1081 951 851 684 518 287 182 286 245 22 2 1 2 2
0 0 0 0 0 0 0 0 0 0 0 0 0 0 0 20 17 85 16 13 13 145 411 579 527 517 693 466 417 169 269 412 361 695 718 608 530 501 502 228 86 141 255 110 6 0 2 4 1
0 0 0 0 0 0 0 0 0 0 0 2 2 28 34 9 20 85 12 2 3 3 304 178 125 34 21 237 90 338 242 125 239 389 289 227 260 362 141 76 118 210 187 73 2 0 3 3 0
0 0 0 0 0 0 0 0 0 0 0 2 86 140 47 15 4 20 0 3 4 4 2 80 15 0 0 27 95 152 340 204 232 325 194 102 183 118 59 20 151 252 127 21 0 0 0 0 0
0 0 0 0 0 0 0 0 0 0 0 0 57 42 17 9 19 23 30 41 4 3 2 1 2 0 0 0 112 370 102 134 107 169 60 38 22 20 12 30 106 177 77 33 0 0 0 0 0
0 0 0 0 0 0 0 0 0 0 0 0 2 41 23 22 45 45 21 5 6 3 3 2 0 0 0 0 44 143 187 83 22 21 34 14 49 24 7 3 7 64 105 17 0 0 0 0 0
0 0 0 0 0 0 0 0 0 0 0 0 0 33 22 35 46 34 10 7 6 4 5 4 1 0 0 0 2 3 107 6 10 31 16 30 67 17 8 0 0 0 21 80 1 0 0 0 0
0 0 0 0 0 0 0 0 0 0 0 0 3 7 19 20 35 11 0 1 4 4 5 4 1 0 0 0 1 10 4 7 6 44 64 16 4 0 0 0 0 0 0 1 0 0 0 0 0
0 0 0 0 0 0 0 0 0 0 0 0 2 0 16 22 23 7 0 0 5 3 5 3 1 0 0 0 1 6 6 3 20 21 43 11 0 0 0 0 0 0 0 0 0 0 0 0 0
0 0 0 0 0 0 0 0 0 0 0 16 38 30 20 18 5 3 5 0 2 3 5 2 1 0 3 0 2 8 1 11 2 47 40 29 0 0 0 0 0 0 0 0 0 0 0 0 0
0 0 0 0 0 0 0 0 0 0 0 7 42 51 6 11 3 3 0 2 0 7 5 2 1 0 4 0 2 8 16 34 33 48 39 22 2 0 0 0 0 0 0 0 0 0 0 0 0
0 0 0 0 0 0 0 0 0 0 0 0 0 17 2 1 0 1 0 1 1 7 7 5 4 2 3 0 5 6 1 18 12 48 39 23 2 0 0 0 0 0 0 0 0 0 0 0 0
0 0 0 0 0 0 0 0 0 0 0 0 5 28 3 0 2 2 0 1 6 6 12 6 4 7 6 8 8 3 12 17 49 70 31 6 6 0 0 0 0 0 0 0 0 0 0 0 0
0 0 0 0 0 0 0 0 0 0 0 0 1 69 103 120 59 1 0 1 3 15 16 7 5 7 17 8 19 9 19 41 53 61 29 36 16 0 0 0 0 0 0 0 0 0 0 0 0
0 0 0 0 0 0 0 0 0 0 0 0 2 62 161 259 34 3 1 5 2 11 20 12 6 7 8 7 5 6 7 39 26 42 32 37 29 2 0 0 0 0 0 0 0 0 0 0 0
0 0 0 0 0 0 0 0 0 0 0 0 0 17 104 267 149 16 3 5 1 13 17 11 5 7 5 10 1 0 0 0 22 26 23 60 16 0 0 1 1 2 0 1 0 0 0 0 0
0 0 0 0 0 0 0 0 0 0 0 0 0 0 32 206 265 36 2 6 3 8 19 13 6 5 5 1 5 4 4 6 6 7 23 34 29 0 0 13 9 18 4 0 1 0 0 0 0
0 0 0 0 0 0 0 0 0 0 0 0 0 0 0 52 284 165 1 1 0 1 11 7 9 8 5 1 0 0 9 10 1 4 40 68 47 31 8 19 21 27 5 7 9 0 0 0 0
0 0 0 0 0 0 0 0 0 0 0 0 0 0 0 1 142 198 9 3 0 0 3 7 3 10 9 5 11 0 2 11 1 3 62 78 64 42 53 26 7 13 14 12 9 11 1 0 0
0 0 0 0 0 0 0 0 0 0 0 0 0 0 0 0 39 118 7 2 1 2 0 2 1 8 7 1 1 1 0 4 2 18 34 36 35 7 21 23 61 55 36 40 53 36 3 0 1
0 0 0 0 0 0 0 0 0 0 0 0 0 0 0 0 3 90 58 0 1 1 0 0 3 6 7 6 0 0 0 0 0 0 10 3 20 0 0 8 42 43 48 51 57 51 36 12 2
0 0 0 0 0 0 0 0 0 0 0 0 0 0 0 0 0 30 40 4 0 0 2 0 3 5 5 5 8 2 0 0 0 0 0 0 0 0 0 0 0 16 18 33 54 94 49 8 15
0 0 0 0 0 0 0 0 0 0 0 0 0 0 0 0 0 5 30 4 0 0 0 2 1 0 0 2 4 2 0 0 0 0 0 0 0 0 0 0 0 1 25 50 50 38 37 18 5
0 0 0 0 0 0 0 0 0 0 0 0 0 0 0 0 0 4 28 21 0 0 0 0 0 0 0 0 0 0 0 0 0 0 0 0 0 0 0 0 1 14 27 31 23 3 1 1 1
0 0 0 0 0 0 0 0 0 0 0 0 0 0 0 0 0 16 34 32 2 0 0 0 0 0 0 0 0 0 0 0 0 0 0 1 1 0 0 0 2 13 5 0 0 1 0 0 0

GFSSGP_con_sbcape_084.txt.gz
CAPE
0 0 0 0 0 0 0 0 0 0 0 0 0 0 5 60 2 27 1202 1236 1299 1462 1773 1717 1702 1840 1944 2167 2041 1877 1950 2036 1935 1686 1475 1658 1718 1692 1549 1326 1111 979 803 213 180 43 22 24 14
0 0 0 0 0 0 0 0 0 0 0 0 0 87 256 18 561 855 1244 1152 1143 1135 1805 1964 1695 1813 1934 1927 1909 1917 2137 2062 1872 1703 1717 1789 1788 1761 1470 1149 804 665 681 114 137 44 32 25 13
0 0 0 0 0 0 0 0 0 0 0 0 0 15 72 80 861 1119 1140 948 1048 1040 1260 2067 1648 1758 1914 1956 1876 1412 1218 1748 1692 1689 1918 1897 1848 1666 1367 958 666 598 519 172 92 37 34 20 16
0 0 0 0 0 0 0 0 0 0 0 0 0 0 78 217 984 1287 829 829 760 1091 1152 1492 1381 1509 1839 1345 1351 755 702 960 827 1073 1206 1823 1712 1575 1222 872 737 564 519 197 25 33 28 13 11
0 0 0 0 0 0 0 0 0 0 0 0 0 0 25 112 450 549 538 406 637 885 1022 1515 1022 1285 1556 1069 720 831 1042 778 678 706 911 1259 1534 1304 1031 814 584 519 323 169 17 12 8 5 1
0 0 0 0 0 0 0 0 0 0 0 0 0 1 42 290 173 286 250 263 534 884 918 872 868 863 896 968 753 544 639 795 710 404 728 1080 1254 1111 898 776 668 568 316 92 13 13 4 2 0
0 0 0 0 0 0 0 0 0 0 0 0 0 0 94 321 256 241 155 263 347 667 931 768 886 860 323 701 381 525 618 680 495 364 479 713 877 772 841 770 625 540 208 7 5 5 5 2 0
0 0 0 0 0 0 0 0 0 0 0 0 0 0 10 429 256 301 288 249 115 234 488 674 669 913 709 628 369 184 413 353 443 438 351 399 411 526 428 366 492 295 144 4 3 3 2 1 0
0 0 0 0 0 0 0 0 0 0 0 0 37 61 365 196 175 215 186 95 128 29 173 472 406 472 213 404 406 284 292 343 242 196 253 168 195 395 208 215 283 193 76 3 0 1 1 0 0
0 0 0 0 0 0 0 0 0 0 0 0 16 119 240 240 249 308 371 523 412 336 4 20 8 13 151 290 209 175 527 234 160 95 200 96 120 165 186 250 209 143 12 0 1 2 0 0 0
0 0 0 0 0 0 0 0 0 0 0 0 0 2 283 260 328 235 320 290 383 35 6 5 2 2 1 11 167 319 1108 545 217 83 79 137 76 121 262 273 259 104 0 0 0 0 0 0 0
0 0 0 0 0 0 0 0 0 0 0 0 0 0 90 235 289 261 356 230 141 5 8 6 2 2 0 26 99 275 505 441 390 3 1 22 1 28 165 213 135 85 22 0 0 0 1 0 0
0 0 0 0 0 0 0 0 0 0 0 0 0 0 83 218 227 334 207 77 50 5 10 10 5 0 1 4 112 68 285 116 15 0 3 2 18 2 70 159 169 117 85 41 6 4 0 0 0
0 0 0 0 0 0 0 0 0 0 0 0 0 11 63 181 278 348 191 20 24 22 7 9 9 3 11 13 8 6 12 4 1 6 10 9 11 23 26 40 28 127 163 94 25 2 0 0 0
0 0 0 0 0 0 0 0 0 0 0 0 0 31 71 190 248 306 140 3 5 6 8 10 8 4 8 27 9 10 6 11 9 1 2 24 50 68 31 0 0 3 20 42 7 10 0 0 0
0 0 0 0 0 0 0 0 0 0 0 0 0 51 115 203 232 283 41 1 7 6 5 9 7 5 19 10 11 7 13 11 23 12 24 50 60 16 0 0 0 0 0 0 0 0 0 0 0
0 0 0 0 0 0 0 0 0 0 0 0 1 64 172 183 184 221 5 2 7 3 8 11 9 9 19 13 8 13 16 3 39 33 36 40 18 1 0 0 0 0 0 0 0 0 0 0 0
0 0 0 0 0 0 0 0 0 0 0 0 0 67 119 142 161 215 2 4 9 7 12 8 6 6 19 18 13 22 28 31 20 52 29 10 0 0 13 5 0 0 0 0 0 0 0 0 0
0 0 0 0 0 0 0 0 0 0 0 0 0 37 120 147 190 300 3 7 6 14 13 6 3 16 50 17 12 28 26 52 39 38 39 34 0 0 0 10 0 0 0 0 0 0 0 0 0
0 0 0 0 0 0 0 0 0 0 0 0 0 35 107 204 357 316 27 13 9 14 20 7 3 6 12 38 24 14 27 36 32 41 58 42 13 0 1 18 0 0 0 1 0 0 0 0 0
0 0 0 0 0 0 0 0 0 0 0 0 0 1 61 216 522 435 211 46 59 19 21 13 8 3 13 23 7 4 13 70 74 107 52 56 47 7 6 8 17 22 77 62 39 3 10 1 0
0 0 0 0 0 0 0 0 0 0 0 0 0 24 55 166 350 583 375 150 98 15 16 22 13 8 10 26 16 4 3 14 53 78 54 63 100 92 25 32 38 90 58 55 80 36 38 29 47
0 0 0 0 0 0 0 0 0 0 0 0 0 0 40 148 367 694 518 272 173 7 9 20 20 14 8 14 11 4 10 5 66 19 15 24 112 116 56 54 57 89 65 78 102 77 94 66 99
0 0 0 0 0 0 0 0 0 0 0 0 0 0 0 63 292 628 597 302 223 6 2 21 17 18 7 12 20 23 9 7 15 0 1 0 81 107 135 76 84 90 78 86 154 182 162 128 141
0 0 0 0 0 0 0 0 0 0 0 0 0 0 0 22 161 552 685 504 193 4 5 3 15 20 14 12 21 30 14 1 2 9 0 0 52 56 135 144 62 82 98 131 217 290 320 307 252
0 0 0 0 10 3 0 0 0 0 0 0 0 0 0 7 125 467 669 652 191 43 1 3 4 7 18 15 27 42 39 35 16 1 0 59 94 115 117 198 223 230 240 280 342 400 433 378 354
0 0 0 0 0 0 0 2 0 0 0 0 0 0 0 0 78 327 561 597 306 146 11 4 5 11 6 7 14 22 38 45 80 42 27 78 140 80 162 188 247 274 351 406 392 356 345 476 480
0 0 0 0 0 0 0 2 1 0 0 0 0 0 0 0 19 246 462 590 417 204 36 3 5 28 56 48 17 17 17 23 27 56 59 81 127 96 94 140 184 222 221 222 250 267 339 393 564
0 0 0 0 1 1 1 1 7 0 0 0 0 0 0 0 17 198 341 478 508 317 98 0 14 35 57 48 65 36 15 12 16 72 84 65 169 84 75 68 89 68 65 98 186 288 319 303 302
0 0 0 1 0 8 4 0 8 0 0 0 0 0 0 0 51 192 256 345 404 422 238 110 48 44 65 51 62 79 55 13 29 89 166 208 161 79 34 40 36 30 28 43 84 165 215 135 51

GFSSGP_con_sbcape_087.txt.gz
CAPE
0 0 0 0 0 0 0 0 0 0 0 0 0 0 0 0 0 91 1234 1549 1739 1867 1845 1721 1614 1682 2064 2319 2080 1851 1838 1980 2014 1725 1603 1683 1750 1656 1510 1437 1282 1144 983 449 296 213 119 75 71
0 0 0 0 0 0 0 0 0 0 0 0 0 0 0 0 55 355 1055 1454 1538 1782 2090 2032 1592 1757 1949 2169 1754 1822 2008 2134 1997 1704 1696 1833 1906 1715 1614 1387 1102 1077 1023 395 155 49 55 43 21
0 0 0 0 0 0 0 0 0 0 0 0 0 0 2 4 166 668 1564 1349 1362 1637 1890 2261 1615 1688 2002 1902 1684 1595 1687 1416 1582 1612 1859 1970 2007 1814 1574 1303 1072 1022 942 392 144 75 28 8 16
0 0 0 0 0 0 0 0 0 0 0 0 0 0 4 412 410 1297 1246 1185 1121 1299 1873 1598 1445 1700 1983 1667 1313 1198 861 702 839 1300 1476 1692 1565 1660 1156 981 874 868 926 540 174 87 17 11 7
0 0 0 0 0 0 0 0 0 0 0 0 0 0 12 259 789 937 988 787 1040 1252 1486 1869 1211 1367 1939 1985 1226 678 385 444 126 69 535 970 1102 1302 1078 864 781 795 744 499 161 38 2 0 0
0 0 0 0 0 0 0 0 0 0 0 0 0 0 7 495 422 582 619 536 748 1115 1333 1474 1105 871 1054 1427 917 551 496 194 156 154 601 637 748 660 755 722 654 525 283 174 80 31 1 0 0
0 0 0 0 0 0 0 0 0 0 0 0 0 0 48 585 358 685 472 506 661 874 1067 1387 1659 1010 337 764 638 522 373 332 501 254 312 249 443 416 538 685 539 417 192 66 16 13 5 0 0
0 0 0 0 0 0 0 0 0 0 0 0 0 0 5 640 736 635 555 531 538 661 913 1102 1431 1439 1056 978 214 208 291 226 221 308 175 138 197 359 399 534 477 273 128 37 13 5 0 0 0
0 0 0 0 0 0 0 0 0 0 0 0 0 0 284 572 464 562 563 419 455 529 689 887 1095 1118 897 916 691 188 192 192 176 140 83 2 168 288 395 343 252 137 57 10 10 4 1 0 0
0 0 0 0 0 0 0 0 0 0 0 0 1 2 42 358 341 496 567 637 701 535 554 546 586 805 955 563 609 481 411 340 386 192 163 122 143 249 367 335 124 74 56 15 8 2 0 0 0
0 0 0 0 0 0 0 0 0 0 0 0 0 0 11 286 352 424 423 427 673 483 306 220 64 15 510 682 464 382 636 402 236 178 117 93 117 125 342 299 238 85 4 0 0 0 0 0 0
0 0 0 0 0 0 0 0 0 0 0 0 0 0 0 0 249 341 387 512 389 276 22 31 6 2 3 1 31 504 828 676 192 55 40 111 90 88 311 314 176 21 5 0 0 0 5 0 0
0 0 0 0 0 0 0 0 0 0 0 0 0 0 0 0 80 285 399 510 298 305 3 4 9 5 3 5 34 69 370 627 159 100 37 70 47 57 99 190 158 27 31 21 2 12 0 0 0
0 0 0 0 0 0 0 0 0 0 0 0 0 0 0 18 143 267 550 401 204 182 37 1 10 9 5 1 2 110 186 291 106 36 3 2 0 32 82 185 159 207 102 67 59 32 0 0 0
0 0 0 0 0 0 0 0 0 0 0 0 0 0 0 21 184 332 573 360 180 155 97 9 10 9 4 26 10 9 68 10 9 3 2 0 0 3 31 152 194 241 220 233 152 47 0 0 0
0 0 0 0 0 0 0 0 0 0 0 0 0 0 1 55 253 365 450 276 147 138 55 2 4 4 12 16 13 9 5 5 1 4 4 0 0 0 0 86 173 237 261 164 86 40 2 0 0
0 0 0 0 0 0 0 0 0 0 0 0 0 0 22 184 323 387 445 211 153 105 29 1 5 4 16 20 13 4 4 9 4 3 2 0 0 0 3 81 89 97 118 102 91 55 39 11 0
0 0 0 0 0 5 0 0 0 0 0 0 0 0 15 245 316 323 388 162 180 66 4 13 7 5 29 16 14 8 3 3 2 4 0 0 9 21 63 52 25 7 0 45 23 33 11 9 0
0 0 0 1 1 0 0 0 0 0 0 0 0 0 0 108 207 321 414 175 231 85 5 11 9 9 31 10 14 19 23 18 1 0 0 4 37 42 50 36 43 1 2 0 9 19 24 0 0
0 0 0 0 0 0 0 0 0 0 0 0 0 0 2 68 212 403 428 168 183 87 6 8 9 8 20 16 12 5 3 10 10 6 6 21 21 37 105 140 62 20 8 8 28 64 7 0 0
0 0 0 0 0 3 0 0 0 0 0 0 0 0 0 26 340 491 549 211 56 54 2 2 10 15 27 26 17 16 29 51 56 18 3 25 27 40 68 206 83 107 84 109 173 140 65 41 1
0 0 0 0 0 3 3 2 0 0 0 0 0 0 0 5 245 606 663 392 233 228 3 21 8 12 24 37 14 10 3 9 12 2 9 58 97 42 2 57 124 98 111 156 188 163 248 221 88
0 0 0 0 0 0 0 0 0 0 0 0 0 0 0 1 84 613 789 545 458 382 6 19 15 9 16 33 11 11 0 0 0 0 17 83 111 102 41 6 146 257 223 299 343 314 196 177 180
1 0 0 0 0 0 0 0 0 1 0 0 0 0 0 0 13 405 805 667 601 351 63 20 19 13 14 16 15 4 4 3 28 18 23 42 51 51 55 70 192 205 303 310 380 343 255 322 338
0 4 22 14 15 4 0 0 8 0 0 0 0 0 0 0 1 343 882 748 649 390 64 19 16 12 11 13 21 13 4 6 44 12 2 2 8 14 59 119 263 254 320 276 291 372 409 455 391
0 3 25 41 88 85 44 19 10 0 0 0 0 0 0 0 0 259 796 806 661 482 75 3 4 12 18 13 21 25 23 7 15 30 0 0 0 7 62 229 241 228 285 315 381 437 559 599 686
0 0 0 15 10 22 11 31 23 0 0 0 0 0 0 0 1 133 558 900 744 570 229 35 1 15 17 21 19 19 27 57 36 6 0 0 0 0 11 226 156 279 337 401 461 542 689 694 802
0 0 0 0 11 37 37 16 15 6 0 0 0 1 0 0 0 106 417 955 865 525 367 138 35 18 16 16 25 28 61 70 70 57 13 38 0 29 97 158 283 289 412 592 504 546 627 613 763
0 0 0 0 16 8 51 63 31 25 6 15 13 0 0 0 0 46 398 782 925 577 494 199 81 39 121 14 16 38 40 158 210 160 52 81 12 66 92 140 246 355 492 531 438 521 517 444 539
1 0 0 0 3 37 50 28 31 38 20 23 0 0 0 7 0 36 432 667 834 716 587 308 97 70 348 321 136 109 35 43 105 375 367 268 160 122 164 180 249 273 279 311 337 398 277 374 424

GFSSGP_con_sbcape_090.txt.gz
CAPE
0 0 0 0 0 0 0 0 0 0 0 0 0 0 0 0 0 370 1135 1481 1739 1955 1530 1339 1588 1964 2248 2224 1962 1787 1785 1904 1941 1599 1630 1721 1635 1505 1499 1414 1253 1186 1211 758 590 432 309 83 258
0 0 0 0 0 0 0 0 0 0 0 0 0 0 0 0 42 789 1628 1305 1668 1824 2316 1960 1441 1742 2226 2294 2054 1888 1886 2023 1987 1741 1790 1896 1755 1679 1643 1490 1292 1172 1133 689 500 396 208 99 317
0 0 0 0 0 0 0 0 0 0 0 0 0 0 0 2 110 1049 1598 1274 1271 1737 1975 1806 1472 1604 1902 2201 2046 1984 1880 1651 1624 1775 1892 1981 1885 1825 1759 1405 1195 1255 1177 576 375 287 86 116 172
0 0 0 0 0 0 0 0 0 0 0 0 0 0 0 139 8 1333 1231 1060 1056 1502 1927 1483 1499 1678 1926 1919 2029 1907 1738 1212 840 50 12 1560 1925 1776 1579 1214 1083 1055 1007 577 249 108 46 48 56
0 0 0 0 0 0 0 0 0 0 0 0 0 0 0 77 907 981 1149 911 1055 1480 2005 1903 1351 1604 1913 1964 1859 1758 1226 792 308 28 1 65 1072 1189 989 1012 1040 950 901 538 94 45 38 27 11
0 0 0 0 0 0 0 0 0 0 0 0 0 0 0 230 520 935 1058 768 889 1241 1895 1550 1183 1149 1499 1856 1379 1065 565 373 14 6 0 12 304 484 478 648 746 880 659 421 144 62 35 17 0
0 0 0 0 0 0 0 0 0 0 0 0 0 0 26 255 564 995 767 741 862 930 1255 1704 1292 925 751 1137 856 475 630 94 186 46 0 27 197 254 411 369 684 596 405 232 61 31 18 0 0
0 0 0 0 0 0 0 0 0 0 0 0 0 0 5 478 793 625 556 590 797 767 1081 1236 1457 1022 921 789 664 500 456 355 116 152 83 20 154 170 249 275 332 364 239 102 26 0 0 0 0
0 0 0 0 0 0 0 0 0 0 0 0 0 0 96 899 647 556 797 641 707 610 738 719 626 1240 1005 907 373 307 498 366 272 229 98 28 41 89 174 145 188 187 77 32 9 0 0 0 0
0 0 0 0 0 0 0 0 0 0 0 0 0 0 31 460 238 318 419 585 775 657 747 569 552 872 932 845 335 291 362 290 108 59 20 18 18 43 137 124 141 123 43 14 8 0 0 0 0
0 0 0 0 0 0 0 0 0 0 0 0 0 0 0 172 247 221 212 272 907 936 499 321 93 111 630 710 457 388 343 116 92 43 36 13 54 100 101 144 72 24 12 3 0 0 0 0 0
0 0 0 0 0 0 0 0 0 0 0 0 0 0 0 0 0 73 108 201 222 614 312 160 0 1 1 122 201 240 215 154 75 67 55 17 97 106 108 74 15 0 0 0 0 0 0 0 0
0 0 0 0 0 0 0 0 0 0 0 0 0 0 0 0 0 0 81 178 380 448 69 0 1 0 5 2 51 3 110 298 85 75 56 17 60 66 86 73 1 0 0 0 0 0 0 0 0
0 0 0 0 0 0 0 0 0 0 0 0 0 0 0 0 0 0 118 302 482 313 47 0 7 1 0 1 0 43 31 135 127 34 24 9 31 39 47 37 5 0 0 0 0 0 0 0 0
0 0 0 0 0 0 0 0 0 0 0 0 0 0 0 0 0 31 190 595 401 195 83 0 2 3 10 0 2 0 56 30 29 68 21 17 8 40 19 13 12 11 22 0 27 0 0 0 0
0 0 0 0 0 0 0 0 0 0 0 0 0 0 0 0 0 77 249 557 208 104 33 0 2 0 15 6 17 23 15 19 1 0 8 1 1 0 20 14 68 34 53 46 26 5 0 0 0
0 0 0 0 0 0 0 0 0 0 0 0 0 0 0 7 11 188 353 415 130 77 6 0 1 1 8 15 8 2 1 0 2 1 0 0 0 0 25 27 72 108 102 59 41 14 7 0 0
0 0 0 0 0 0 0 0 0 0 0 0 0 0 0 15 59 275 392 339 98 106 0 0 0 12 17 4 2 3 2 2 1 1 1 0 0 0 0 0 3 19 34 45 20 19 40 6 2
0 0 0 0 0 0 4 4 0 0 0 0 0 0 0 0 85 372 476 286 205 67 0 0 2 15 9 5 3 2 3 3 4 3 0 0 0 0 0 0 0 0 5 8 21 52 57 0 0
0 0 0 0 0 0 0 0 0 0 0 0 0 0 0 1 35 351 587 270 271 47 0 0 8 15 14 6 2 1 1 0 0 0 5 0 0 0 0 0 0 0 0 2 28 6 0 0 0
0 0 0 0 0 0 0 0 0 0 0 0 0 0 0 6 45 366 631 340 319 32 0 0 2 14 15 8 3 6 2 2 1 3 4 2 0 0 0 0 0 4 0 1 0 0 0 0 0
0 0 0 0 1 0 0 0 0 0 0 0 0 0 0 0 47 365 641 437 219 114 0 0 9 13 11 5 2 0 0 0 1 0 0 3 0 0 0 0 17 0 0 19 2 39 5 23 0
0 2 0 0 0 5 0 5 0 0 0 0 0 0 0 0 0 408 658 594 217 101 0 0 8 12 15 3 3 0 0 1 2 3 0 0 0 0 28 85 71 47 18 30 29 85 165 91 87
8 1 2 8 3 4 0 2 0 0 0 3 0 0 0 0 0 395 766 642 406 212 1 1 6 11 18 12 0 0 0 0 6 0 0 0 0 30 28 38 34 39 44 69 123 103 160 82 70
3 19 38 8 5 3 0 0 0 0 0 4 1 0 0 1 3 81 883 632 469 328 12 3 7 9 8 17 12 0 0 0 0 0 0 0 2 44 70 49 19 45 80 75 175 160 95 110 156
1 22 32 3 29 2 2 3 0 0 0 0 0 0 0 2 7 88 836 713 595 456 53 0 6 5 12 13 20 5 0 0 0 0 0 0 0 0 17 26 46 36 74 116 151 180 203 199 166
18 5 3 39 10 41 0 0 0 5 0 0 0 0 1 0 0 0 731 827 617 519 121 0 4 9 7 6 13 16 5 1 0 0 0 0 0 0 2 15 42 60 97 122 137 112 161 165 226
0 16 38 43 1 6 0 0 2 71 78 0 1 0 6 1 1 3 310 945 680 605 137 10 3 6 5 9 9 14 12 1 1 2 0 0 0 0 0 15 29 32 41 102 111 114 131 190 211
0 0 0 0 5 23 16 30 41 42 15 57 45 36 6 4 1 30 205 985 731 701 186 31 0 5 4 9 11 13 18 6 0 5 1 0 0 0 0 0 5 26 35 50 114 142 137 184 173
2 0 0 0 9 55 26 0 0 0 0 18 35 37 13 0 26 32 241 1028 921 685 354 99 22 7 11 3 9 9 11 22 14 4 0 0 0 0 0 0 0 1 41 43 51 108 118 101 120

GFSSGP_con_sbcape_093.txt.gz
CAPE
0 0 0 0 0 0 0 0 0 0 0 0 0 0 0 0 37 195 1001 1396 1529 1084 1320 1527 1617 2068 2023 1921 1847 1736 1453 1799 1699 1887 1834 1639 1522 1463 1452 1356 1140 1065 1178 840 781 645 630 664 720
0 0 0 0 0 0 0 0 0 0 0 0 0 0 0 0 597 1125 1211 1694 1527 1299 1126 1199 1573 2003 2262 2033 1904 1860 1994 2147 1905 1941 1940 1774 1658 1635 1586 1325 1147 1419 1427 892 563 405 548 638 743
0 0 0 0 0 0 0 0 0 0 0 0 0 0 0 44 808 1391 1096 1493 1575 1589 1511 1199 1354 1808 2209 2151 2037 1919 2027 2059 1866 1503 157 89 1025 1857 1675 1432 1302 1358 1434 826 575 325 405 590 450
0 0 0 0 0 0 0 0 0 0 0 0 0 0 0 13 594 1233 977 928 1298 1621 1544 1170 1213 1539 2058 2240 2208 2060 2001 1836 440 76 45 2 0 983 1661 1365 1249 1382 1272 645 519 356 417 321 171
0 0 0 0 0 0 0 0 0 0 0 0 0 0 0 864 952 845 848 888 834 1550 1391 1366 1413 1605 1823 2114 2323 2113 1906 1659 250 84 58 51 0 2 1049 915 1253 1141 1007 794 433 230 240 210 175
0 0 0 0 0 0 0 0 0 0 0 0 0 0 0 507 660 638 485 437 526 1032 1153 1237 1327 1533 1727 1779 1692 1896 1630 965 405 180 67 10 0 0 360 578 882 945 720 484 315 190 202 132 40
0 0 0 0 0 0 0 0 0 0 0 0 0 0 0 208 529 396 261 298 356 431 954 935 1092 1092 1143 1502 1076 797 819 608 379 243 40 0 2 94 347 522 634 790 462 347 224 110 94 54 6
0 0 0 0 0 0 0 0 0 0 0 0 0 0 10 521 436 202 149 249 237 300 462 781 755 633 510 846 641 497 424 320 189 120 20 4 0 98 255 196 395 438 364 283 126 52 47 24 0
0 0 0 0 0 0 0 0 0 0 0 0 0 0 42 500 128 50 71 76 90 106 266 450 846 812 606 391 585 573 478 186 175 108 48 7 15 111 138 175 266 294 247 137 64 35 16 0 0
0 0 0 0 0 0 0 0 0 0 0 0 0 0 348 370 216 162 220 157 106 79 66 93 311 800 698 545 93 190 323 132 14 50 31 12 14 4 79 126 118 154 151 66 23 23 2 0 0
0 0 0 0 0 0 0 0 0 0 0 0 0 0 425 211 99 43 97 105 109 95 57 31 13 3 499 363 159 36 44 12 9 36 7 3 6 32 27 91 71 40 19 0 0 0 0 0 0
0 0 0 0 0 0 0 0 0 0 0 0 0 0 52 17 0 0 0 0 104 111 0 0 0 0 9 301 203 176 14 1 8 29 4 0 32 13 3 2 0 0 0 0 0 0 0 0 0
0 0 0 0 0 0 0 0 0 0 0 0 0 0 0 0 0 0 0 0 22 2 0 0 0 0 0 1 69 68 30 10 7 24 0 27 32 24 13 1 0 0 0 0 0 0 0 0 0
0 0 0 0 0 0 0 0 0 0 0 0 0 0 0 0 0 0 0 0 15 0 0 0 0 0 0 0 0 0 1 18 5 22 1 8 35 58 8 0 0 0 0 0 0 0 0 0 0
0 0 0 0 0 0 0 0 0 0 0 0 0 0 0 0 0 0 0 0 1 0 0 0 0 0 0 0 0 0 0 5 23 6 29 4 40 43 0 0 0 0 0 0 0 0 0 0 0
0 0 0 0 0 0 0 0 0 0 0 0 0 0 0 0 0 0 0 0 0 0 0 0 0 0 2 0 0 0 0 0 56 4 5 9 20 10 0 0 0 0 0 0 0 0 0 0 0
0 0 0 0 0 0 0 0 0 0 0 0 0 0 0 0 0 0 0 0 0 0 0 0 0 0 3 2 0 0 1 0 1 2 8 5 12 10 0 0 0 10 0 0 1 0 0 0 0
0 0 0 0 0 0 0 0 0 0 0 0 0 0 0 0 0 0 0 0 0 0 0 0 0 1 2 1 1 1 1 0 1 1 0 3 3 1 2 0 0 23 0 3 0 0 0 0 0
0 0 0 0 0 0 0 0 0 0 0 0 0 0 0 0 0 0 0 0 0 0 0 0 0 2 1 1 1 1 1 1 0 1 0 0 0 0 1 0 3 38 2 0 0 0 0 0 0
0 0 0 0 0 0 0 0 0 0 0 0 0 0 0 0 0 3 0 0 0 0 0 0 0 6 1 1 0 0 1 1 1 1 1 0 0 0 0 0 0 5 5 3 0 0 0 0 0
0 0 0 0 0 0 0 0 0 0 0 0 0 0 0 0 2 25 0 0 0 0 0 0 0 13 2 0 0 0 0 2 2 0 0 2 1 0 0 0 0 0 1 0 0 0 0 0 0
0 0 0 0 0 0 0 0 0 0 0 0 0 0 0 0 24 52 0 0 0 0 0 0 0 8 2 0 1 0 0 0 1 0 0 0 2 0 0 0 0 0 0 0 0 9 0 0 0
0 0 0 0 0 0 0 0 0 0 0 0 0 0 0 0 15 61 0 0 0 0 0 0 0 6 1 0 0 0 0 0 0 1 1 0 0 0 0 0 0 0 0 0 0 2 0 0 0
0 0 6 2 0 0 0 0 0 0 0 0 0 0 0 0 24 133 14 0 0 0 0 0 0 7 1 0 0 0 0 0 0 0 1 0 0 0 0 0 0 0 0 11 3 3 12 9 4
0 0 7 4 2 0 0 0 0 0 0 0 0 0 0 0 4 163 53 0 0 0 0 0 0 17 2 0 0 0 0 0 0 0 0 0 0 0 0 0 0 0 5 30 4 16 50 24 20
0 0 10 11 11 39 4 2 0 0 0 0 0 0 0 0 55 284 162 9 0 0 0 0 0 13 8 1 0 0 0 0 0 0 0 0 0 0 0 0 5 11 3 24 35 31 18 21 10
0 0 7 40 29 36 0 0 0 0 0 0 0 0 0 0 38 360 203 79 6 0 0 0 0 3 11 9 0 0 0 0 0 0 0 0 0 0 0 0 0 0 25 34 51 24 10 11 9
0 4 21 23 2 0 0 0 0 0 0 0 0 0 0 0 5 433 256 123 62 0 0 0 0 0 3 14 5 0 0 0 0 0 0 0 0 0 0 0 0 3 16 31 23 20 19 25 6
0 0 2 0 1 1 1 0 1 0 0 0 0 0 4 0 0 64 402 240 214 0 0 0 0 0 4 9 12 7 1 0 0 0 0 0 0 0 0 0 0 1 5 24 26 12 18 27 28
0 0 0 0 0 0 0 0 0 0 0 0 0 0 2 6 0 0 497 351 263 5 0 0 0 0 5 8 4 11 7 1 0 0 0 0 0 0 0 0 0 0 0 8 28 27 37 19 37

GFSSGP_con_sbcape_096.txt.gz
CAPE
0 0 0 0 0 0 0 0 0 0 0 0 0 0 0 0 0 0 448 1005 854 951 1231 1683 1817 1812 1768 1763 1644 1631 2001 1915 1931 1824 1698 1684 1664 1593 1480 1414 1405 1506 1488 969 846 1142 940 710 884
0 0 0 0 0 0 0 0 0 0 0 0 0 0 0 445 694 915 1177 1316 987 1012 1167 1286 1882 1903 1922 1862 1775 1685 2033 1912 2047 1970 1824 1775 1727 1709 1601 1389 1220 1453 1561 1058 1052 1060 828 867 757
0 0 0 0 0 0 0 0 0 0 0 0 0 0 0 292 929 1000 930 1550 1297 997 1051 1185 1584 2056 2005 1935 1894 1856 2088 1989 2021 1406 1129 650 1165 1756 1672 1392 1435 1454 1475 1012 883 927 853 803 438
0 0 0 0 0 0 0 0 0 0 0 0 0 0 0 167 1063 1229 1418 1437 1563 1529 914 1128 1441 1880 2201 2166 2027 2018 2121 1800 553 588 397 317 490 389 824 1087 1382 1504 1483 1192 773 998 815 509 259
0 0 0 0 0 0 0 0 0 0 0 0 0 0 65 784 765 761 1009 1334 1359 1375 983 876 1141 1571 2196 2425 2268 2071 2043 1035 538 235 209 117 170 86 64 283 638 1102 1319 1225 881 790 574 355 210
0 0 0 0 0 0 0 0 0 0 0 0 0 0 70 670 778 487 305 726 1299 1126 1025 1123 1308 1451 1663 2273 2269 2037 1872 740 388 204 182 129 10 50 29 4 462 624 782 812 615 476 386 314 102
0 0 0 0 0 0 0 0 0 0 0 0 0 0 124 484 443 198 95 108 603 876 884 913 1219 1520 1530 1593 1664 1938 1559 524 472 346 236 268 60 34 0 64 217 597 610 512 423 350 271 104 3
0 0 0 0 0 0 0 0 0 0 0 0 0 0 434 230 379 49 24 33 81 404 537 534 432 560 627 1063 977 1063 931 490 511 456 297 83 76 86 42 206 140 408 501 350 293 195 88 4 5
0 0 0 0 0 0 0 0 0 0 0 0 0 0 0 356 63 3 20 0 8 30 284 330 401 411 348 529 632 542 453 301 263 218 9 6 0 63 45 139 268 327 272 252 140 91 20 6 0
0 0 0 0 0 0 0 0 0 0 0 0 0 9 298 294 165 58 27 46 9 20 69 66 435 594 412 465 516 296 172 25 0 0 0 0 7 7 85 122 214 165 131 158 58 54 0 0 0
0 0 0 0 0 0 0 0 0 0 0 0 0 0 326 227 92 84 27 72 59 5 15 22 151 413 347 135 6 49 167 0 0 0 0 0 14 85 136 135 133 87 83 23 2 1 0 0 0
0 0 0 0 0 0 0 0 0 0 0 0 0 0 231 236 92 102 75 1 0 1 0 0 0 0 125 56 80 99 116 14 3 2 0 0 9 18 35 79 31 25 0 0 0 0 0 0 0
0 0 0 0 0 0 0 0 0 0 0 0 0 0 192 161 115 19 27 0 0 10 0 0 0 0 0 72 35 66 17 47 17 15 2 2 5 23 65 10 1 0 0 0 0 0 0 0 0
0 0 0 0 0 0 0 0 0 0 0 0 0 0 1 43 24 0 0 0 1 0 0 0 0 0 0 0 1 23 4 6 23 7 1 30 13 5 3 0 0 0 0 0 0 0 0 0 0
0 0 0 0 0 0 0 0 0 0 0 0 0 0 0 0 0 0 0 0 0 0 0 0 0 0 0 0 0 1 2 7 21 10 0 24 24 4 1 0 0 0 0 0 0 0 0 0 0
0 0 0 0 0 0 0 0 0 0 0 0 0 0 0 0 0 0 0 8 0 0 0 0 0 0 0 0 0 0 0 15 24 18 1 14 26 6 0 0 0 0 0 0 0 0 0 0 0
0 0 0 0 0 0 0 0 0 0 0 0 0 0 0 0 0 0 0 4 0 0 0 0 0 0 0 0 0 0 1 3 16 16 10 6 22 3 0 0 0 0 0 0 0 0 0 0 0
0 0 0 0 0 0 0 0 0 0 0 0 0 0 0 0 0 0 0 0 0 0 0 0 0 0 0 0 1 1 1 1 7 30 26 3 22 1 0 0 0 0 0 0 0 0 0 0 0
0 0 0 0 0 0 0 0 0 0 0 0 0 0 0 0 0 0 0 0 0 0 0 0 0 0 1 0 0 0 0 0 1 1 6 3 11 1 0 0 0 0 0 0 0 0 0 0 0
0 0 0 0 0 0 0 0 0 0 0 0 0 0 0 0 0 0 0 0 0 0 0 0 0 0 0 1 0 0 0 0 0 0 0 10 3 2 0 0 0 0 0 0 0 0 0 0 0
0 0 0 0 0 0 0 0 0 0 0 0 0 0 0 0 0 0 0 0 0 0 0 0 0 0 0 0 0 1 1 1 1 0 0 0 1 0 1 0 0 1 0 0 0 0 0 0 0
0 0 0 0 0 0 0 0 0 0 0 0 0 0 0 0 0 1 0 0 0 0 0 0 0 1 0 0 0 0 0 0 0 0 1 1 0 1 0 0 0 0 0 0 4 0 0 0 0
0 0 0 0 0 0 0 0 0 0 0 0 0 0 0 0 0 0 0 0 0 0 0 0 0 0 1 0 0 0 0 0 0 0 1 1 2 0 0 0 0 0 0 0 11 0 0 0 0
0 0 1 0 0 0 0 0 0 0 0 0 0 0 0 0 0 0 0 0 0 0 0 0 0 0 0 0 0 0 0 0 0 0 0 1 3 5 0 0 0 0 0 0 1 8 0 1 0
0 0 0 0 0 0 0 0 0 0 0 0 0 0 0 0 0 3 0 0 0 0 0 0 0 0 0 0 0 0 0 0 0 0 0 0 0 0 0 0 0 0 0 0 4 27 52 3 0
0 0 0 0 0 0 11 1 0 0 0 0 0 0 0 0 2 5 12 0 0 0 0 0 0 0 0 0 0 0 0 0 0 0 0 0 0 0 0 0 0 0 0 0 13 36 33 21 3
0 0 0 3 0 0 0 0 0 0 0 0 0 0 0 0 26 53 32 1 0 0 0 0 0 0 1 0 0 0 0 0 0 0 0 0 0 0 0 0 0 0 0 0 7 13 8 27 18
0 0 5 1 0 1 0 0 0 0 0 0 0 0 0 0 203 114 80 15 0 0 0 0 0 0 0 0 0 0 0 0 0 0 0 0 0 0 0 0 0 0 0 0 4 8 13 10 12
0 0 12 1 8 2 0 0 7 21 11 0 0 0 0 0 113 294 193 83 10 0 0 0 0 0 0 0 0 0 0 0 0 0 0 0 0 0 0 0 0 0 0 8 6 5 18 18 9
0 0 0 7 0 0 0 0 20 10 41 0 0 0 0 0 0 269 263 165 3 0 0 0 0 0 0 1 1 0 0 0 0 0 0 0 0 0 0 0 0 0 0 0 21 25 14 15 4

GFSSGP_con_sbcape_099.txt.gz
CAPE
0 0 0 0 0 0 0 0 0 0 0 0 0 0 0 0 0 0 287 866 754 1077 1463 1462 1577 1715 1708 1737 1740 1937 2084 2036 2026 1990 1952 1972 1981 1964 1913 1755 1565 1628 1197 1243 1226 1327 1188 1071 1088
0 0 0 0 0 0 0 0 0 0 0 0 0 0 0 37 536 694 1215 939 773 1005 1440 1525 1527 1689 1808 1715 1818 2069 2142 2028 2029 1970 1976 1998 1967 1951 1927 1831 1751 1612 1315 918 1231 1183 1139 914 993
0 0 0 0 0 0 0 0 0 0 0 0 0 0 0 80 689 810 867 1022 827 944 1123 1553 1550 1660 1842 1805 1754 2011 2068 2113 1989 1951 1914 1869 1906 1775 1807 1687 1661 1658 1605 1137 1290 1190 996 837 621
0 0 0 0 0 0 0 0 0 0 0 0 0 0 0 224 832 865 1266 1195 886 911 943 1147 1626 1667 1901 1962 1898 2002 1999 1961 1885 1705 1801 1982 1976 1858 1571 1507 1609 1669 1591 1459 1287 972 816 555 382
0 0 0 0 0 0 0 0 0 0 0 0 0 0 0 671 679 1043 1468 1474 1279 1042 725 1015 1435 1830 2014 2171 2120 2065 1932 1321 1261 1139 1303 1499 1779 1715 1528 1461 1300 1174 1320 1371 1267 925 438 386 233
0 0 0 0 0 0 0 0 0 0 0 0 0 0 93 369 732 1012 1081 1182 1332 1055 729 811 1228 1707 2157 2235 2069 1965 1540 1002 793 602 729 960 1100 1042 1129 1275 1043 1081 1236 1046 829 618 317 400 145
0 0 0 0 0 0 0 0 0 0 0 0 0 0 0 544 437 268 570 999 1008 893 758 778 999 1287 1725 2102 1985 1794 1135 725 565 549 439 328 302 164 529 732 797 891 739 665 602 405 309 149 35
0 0 0 0 0 0 0 0 0 0 0 0 0 0 55 448 183 25 150 553 746 727 749 819 865 945 1295 1364 1508 1442 927 583 434 458 460 395 352 248 247 265 365 586 586 381 361 307 196 25 2
0 0 0 0 0 0 0 0 0 0 0 0 0 0 0 295 0 15 10 35 296 407 363 290 183 215 205 888 873 1047 778 496 386 506 422 204 41 37 62 153 320 405 328 258 376 215 46 0 0
0 0 0 0 0 0 0 0 0 0 0 0 0 0 43 270 42 119 21 61 21 84 113 81 44 39 36 413 520 487 670 509 361 307 114 1 0 1 44 196 357 413 290 281 285 168 3 0 0
0 0 0 0 0 0 0 0 0 0 0 0 0 0 73 101 34 37 22 3 9 7 19 34 65 38 37 146 53 219 40 2 1 0 0 0 0 0 45 44 130 167 121 127 135 8 0 0 0
0 0 0 0 0 0 0 0 0 0 0 0 0 0 24 75 41 0 0 4 22 0 0 0 51 33 15 0 1 46 103 0 1 1 0 0 1 16 93 91 21 41 68 74 29 0 0 0 0
0 0 0 0 0 0 0 0 0 0 0 0 0 0 0 21 77 52 12 0 0 0 0 0 0 5 2 1 0 0 47 5 1 1 0 0 0 40 100 100 77 96 14 10 0 0 0 0 0
0 0 0 0 0 0 0 0 0 0 0 0 0 0 0 11 41 15 0 0 0 2 0 0 0 0 1 0 0 0 0 1 1 2 1 0 1 22 47 26 62 38 1 0 0 0 0 0 0
0 0 0 0 0 0 0 0 0 0 0 0 0 0 0 0 0 8 0 0 0 6 0 0 0 0 0 1 0 1 0 0 1 1 4 3 3 1 19 13 1 0 0 0 0 0 0 0 0
0 0 0 0 0 0 0 0 0 0 0 0 0 0 0 0 0 0 0 0 0 0 0 0 0 0 0 1 1 1 1 0 0 17 4 14 5 1 0 2 0 0 0 0 0 0 0 0 0
0 0 0 0 0 0 0 0 0 0 0 0 0 0 0 0 0 0 0 0 0 0 0 0 0 0 0 0 0 0 0 11 20 12 2 11 7 0 1 1 0 0 0 0 0 0 0 0 0
0 0 0 0 0 0 0 0 0 0 0 0 0 0 0 0 0 0 0 0 0 0 0 0 0 0 0 0 0 1 2 5 4 12 7 15 17 0 1 0 0 0 0 0 0 0 0 0 0
0 0 0 0 0 0 0 0 0 0 0 0 0 0 0 0 0 0 0 0 0 0 0 0 0 1 0 0 0 1 0 0 0 17 12 5 23 0 0 0 0 0 0 0 0 0 0 0 0
0 0 0 0 0 0 0 0 0 0 0 0 0 0 0 0 0 0 0 0 0 0 0 0 0 0 0 0 0 0 0 0 0 1 1 15 30 0 0 0 0 0 0 0 0 0 0 0 0
0 0 0 0 0 0 0 0 0 0 0 0 0 0 0 0 0 0 0 0 0 0 0 0 0 0 0 0 0 1 0 0 0 0 0 1 40 2 0 0 0 0 0 0 0 0 0 0 0
0 0 0 0 0 0 0 0 0 0 0 0 0 0 0 0 0 0 0 0 0 0 0 0 0 0 0 0 0 0 0 0 0 0 0 0 0 1 1 0 0 0 0 0 0 0 1 0 0
0 0 0 0 0 0 0 0 0 0 0 0 0 0 0 0 0 0 0 0 0 0 0 0 0 0 0 0 0 0 0 0 0 0 1 1 0 2 1 0 0 0 0 0 0 0 1 0 0
0 0 0 0 0 0 0 0 0 0 0 0 0 0 0 0 0 0 0 0 0 0 0 0 0 0 0 0 0 0 0 0 0 1 1 1 1 0 1 1 0 4 20 0 0 0 0 0 1
0 0 0 0 0 0 0 0 0 0 0 0 0 0 0 0 0 0 0 0 0 0 0 0 0 0 0 0 0 0 0 0 0 0 1 2 2 1 0 2 5 12 0 5 2 1 0 0 3
0 0 0 0 0 0 0 0 0 0 0 0 0 0 0 0 0 0 0 0 0 0 0 0 0 0 1 0 0 0 0 0 0 0 0 1 3 3 1 0 0 0 0 0 5 5 10 1 6
0 0 0 0 0 1 0 0 0 0 0 0 0 0 0 0 0 0 0 0 0 0 0 0 0 0 0 0 0 0 0 0 0 0 0 0 0 2 1 2 6 4 3 0 0 1 9 31 33
0 0 0 0 0 0 0 0 0 3 2 0 0 0 0 0 0 0 4 0 0 0 0 0 0 0 0 0 0 0 0 0 0 0 0 0 0 0 0 0 0 0 0 0 0 3 10 32 48
0 0 0 0 0 13 0 0 18 0 0 0 0 6 0 0 0 60 11 0 0 0 0 0 0 0 0 1 0 0 0 0 0 0 0 0 0 0 0 0 0 0 0 0 0 0 0 35 30
0 0 0 3 0 0 0 0 45 0 10 15 6 25 0 0 0 0 60 0 0 0 0 0 0 0 0 0 0 0 0 0 0 0 0 0 0 0 0 0 0 0 0 0 0 0 0 3 9

GFSSGP_con_sbcape_102.txt.gz
CAPE
0 0 0 0 0 0 0 0 0 0 0 0 0 0 0 0 0 0 152 706 716 976 1207 1292 1544 1663 1693 1707 1763 1859 2137 2290 2337 2237 2149 2127 2113 2043 1985 1958 1920 2003 2032 1695 1555 1679 1452 1206 1291
0 0 0 0 0 0 0 0 0 0 0 0 0 0 0 0 226 407 931 773 890 1087 1087 1287 1507 1645 1746 1797 1858 1973 2170 2311 2283 2292 2267 2247 2225 2119 2101 2088 1639 1801 2033 1851 1460 1543 1397 1299 946
0 0 0 0 0 0 0 0 0 0 0 0 0 0 0 0 481 453 801 858 871 1126 1134 1286 1474 1544 1752 1835 1962 2100 2077 2127 2178 2207 2315 2366 2351 2213 2149 1898 1633 1610 1697 1678 1436 1337 1322 1178 913
0 0 0 0 0 0 0 0 0 0 0 0 0 0 0 24 597 530 881 808 856 937 1169 1331 1417 1523 1765 1827 2070 2130 2089 1927 1973 2064 2246 2314 2352 2333 2038 1692 1452 1306 1487 1611 1327 1272 1119 824 596
0 0 0 0 0 0 0 0 0 0 0 0 0 0 0 464 512 883 1037 872 743 719 774 1175 1376 1541 1849 1975 1984 2069 1986 1800 1862 1985 2042 2132 2199 1976 1622 1336 1354 1381 1432 1616 1422 1187 925 605 366
0 0 0 0 0 0 0 0 0 0 0 0 0 0 0 127 806 1182 1135 893 787 643 571 896 1457 1579 1844 1975 1874 1856 1631 1617 1542 1675 1884 2064 2024 1742 1530 1512 1416 1415 1330 1286 1148 770 762 437 224
0 0 0 0 0 0 0 0 0 0 0 0 0 0 0 244 393 621 865 914 927 593 502 626 1139 1676 1864 1890 1814 1695 1311 1165 968 1147 1389 1424 1304 1364 1606 1523 1333 976 915 1096 967 734 495 280 100
0 0 0 0 0 0 0 0 0 0 0 0 0 0 0 37 83 128 508 729 737 565 449 477 668 1091 1492 1588 1675 1417 1071 797 690 467 537 279 277 371 541 909 892 1071 1037 939 633 433 241 131 42
0 0 0 0 0 0 0 0 0 0 0 0 0 0 0 2 1 169 385 511 679 668 428 419 569 628 748 1167 1404 1150 960 599 572 609 432 156 103 131 160 243 438 606 470 454 297 194 77 31 8
0 0 0 0 0 0 0 0 0 0 0 0 0 0 12 27 78 338 512 793 804 978 604 245 308 218 151 550 956 892 958 583 447 381 303 93 11 10 70 81 195 473 277 241 239 49 59 0 0
0 0 0 0 0 0 0 0 0 0 0 0 0 0 11 34 15 102 122 329 564 477 291 59 0 2 3 308 500 478 508 644 376 270 78 0 0 3 26 1 74 111 156 136 150 9 0 0 0
0 0 0 0 0 0 0 0 0 0 0 0 0 0 0 60 20 63 13 0 0 0 129 40 0 0 0 9 43 175 34 110 80 34 0 0 1 0 3 19 99 109 43 120 40 0 0 0 0
0 0 0 0 0 0 0 0 0 0 0 0 0 0 0 1 64 70 15 2 0 0 0 0 0 0 0 1 0 3 23 25 3 0 0 0 0 1 1 31 35 57 33 11 0 0 0 0 0
0 0 0 0 0 0 0 0 0 0 0 0 0 0 0 0 0 10 0 0 0 0 0 0 0 0 0 0 0 0 45 17 0 0 1 0 0 3 10 32 15 22 1 0 0 0 0 0 0
0 0 0 0 0 0 0 0 0 0 0 0 0 0 0 0 0 0 0 0 0 0 0 0 0 0 0 8 0 0 0 1 1 1 0 1 0 0 20 7 15 9 1 0 0 0 0 0 0
0 0 0 0 0 0 0 0 0 0 0 0 0 0 0 0 0 0 0 0 0 0 0 0 0 0 0 0 0 0 0 1 1 1 0 2 6 1 3 1 14 14 0 0 0 0 0 0 0
0 0 0 0 0 0 0 0 0 0 0 0 0 0 0 0 0 0 0 0 0 0 0 0 0 0 0 1 0 0 1 0 1 0 1 3 10 0 0 3 0 0 0 0 0 0 0 0 0
0 0 0 0 0 0 0 0 0 0 0 0 0 0 0 0 0 0 0 0 0 0 0 0 0 0 0 0 0 0 1 0 1 1 1 7 14 0 0 0 1 0 0 0 0 0 0 0 0
0 0 0 0 0 0 0 0 0 0 0 0 0 0 0 0 0 0 0 0 0 0 0 0 0 0 0 1 1 0 0 0 0 1 15 14 16 1 1 1 1 2 0 0 0 0 0 0 0
0 0 0 0 0 0 0 0 0 0 0 0 0 0 0 0 0 0 0 0 0 0 0 0 0 0 0 1 1 0 0 0 0 11 24 15 32 1 1 0 0 0 0 0 0 0 0 0 0
0 0 0 0 0 0 0 0 0 0 0 0 0 0 0 0 0 0 0 0 0 0 1 0 0 0 1 0 0 0 0 0 0 0 2 11 41 1 2 2 0 0 0 0 0 0 0 0 0
0 0 0 0 0 0 0 0 0 0 0 0 0 0 0 0 0 0 0 0 0 0 0 0 0 0 0 0 0 0 0 0 0 0 0 0 10 3 0 0 0 0 0 0 0 0 0 0 0
0 0 0 0 0 0 0 0 0 0 0 0 0 0 0 0 0 0 0 0 0 0 0 0 0 0 0 0 0 0 0 0 0 0 0 0 0 2 1 0 1 0 0 0 0 0 0 0 1
0 0 0 0 0 0 0 0 0 0 0 0 0 0 0 0 0 0 0 0 0 0 0 0 0 0 0 0 0 0 0 0 0 1 1 1 2 3 2 3 0 0 0 0 0 0 0 0 2
0 0 0 0 0 0 0 0 0 0 0 0 0 0 0 0 0 0 0 0 0 0 0 0 0 0 0 0 0 0 0 0 0 0 0 0 1 0 6 0 0 0 0 0 0 1 4 3 5
0 0 0 0 0 0 0 0 0 0 0 0 0 0 0 0 0 0 0 0 0 0 0 0 0 0 0 0 0 0 0 0 0 0 1 1 1 0 0 0 0 0 1 0 0 0 5 18 16
0 0 0 0 0 0 0 0 0 0 0 0 0 0 0 0 0 0 0 0 0 0 0 0 0 0 0 0 0 0 0 0 0 0 0 0 0 1 0 0 1 2 1 9 14 1 16 11 1
0 0 0 0 0 0 0 0 0 0 0 0 0 0 0 0 0 0 0 0 0 0 0 1 0 0 0 0 0 0 0 0 0 0 0 0 1 1 1 1 1 3 4 9 13 20 20 11 2
0 0 0 0 0 0 0 0 0 0 0 0 0 0 0 0 0 0 0 6 0 0 0 0 0 0 0 0 0 0 0 0 0 0 0 0 0 1 0 3 3 4 4 12 21 6 3 2 0
0 0 0 0 0 0 0 0 23 0 2 1 5 0 0 0 0 0 0 0 0 0 0 2 0 0 0 0 0 0 0 0 0 0 0 0 0 0 0 0 2 9 3 1 0 0 0 0 2

GFSSGP_con_sbcape_105.txt.gz
CAPE
0 0 0 0 0 0 0 0 0 0 0 0 0 0 0 0 0 0 274 1168 1227 1404 1323 1408 1279 1490 1609 1637 1858 2087 2378 2403 2351 2281 2239 2221 2185 2128 2135 2171 2114 2063 2091 1745 1815 1967 1817 1565 1409
0 0 0 0 0 0 0 0 0 0 0 0 0 0 0 0 20 245 796 1170 1297 1391 1385 1587 1288 1542 1694 1686 1875 2184 2497 2525 2457 2410 2385 2356 2315 2233 2275 2159 2144 2137 2145 2052 1703 1750 1526 1593 1380
0 0 0 0 0 0 0 0 0 0 0 0 0 0 0 0 382 367 1085 1330 1321 1273 1311 1546 1431 1498 1734 1762 1839 2189 2335 2379 2393 2388 2500 2514 2408 2346 2183 1945 1696 2041 1951 2177 1860 1657 1654 1303 1124
0 0 0 0 0 0 0 0 0 0 0 0 0 0 0 0 414 421 1164 1445 1467 1339 1299 1233 1381 1497 1722 1892 2001 2069 2224 2141 2227 2323 2493 2529 2523 2428 1943 1845 1809 1694 1579 1929 2050 1712 1433 1079 839
0 0 0 0 0 0 0 0 0 0 0 0 0 0 0 527 650 799 1348 1493 1571 1565 1284 1245 1289 1481 1725 2012 2171 2160 2011 1999 2126 2251 2385 2463 2465 2373 1851 1475 1318 1437 1528 1605 1841 1583 1096 859 678
0 0 0 0 0 0 0 0 0 0 0 0 0 0 0 301 938 1248 1401 1553 1532 1564 1630 1770 1386 1458 1618 1786 1952 1970 1821 1717 1895 2101 2200 2347 2301 2010 1651 1402 1309 1127 1409 1539 1496 1238 898 676 502
0 0 0 0 0 0 0 0 0 0 0 0 0 0 0 104 893 1444 1381 1352 1302 1308 1452 1887 1874 1795 1576 1645 1614 1678 1656 1615 1683 1846 1803 1877 1752 1414 1523 1259 1250 1433 1210 1225 1293 1013 653 517 255
0 0 0 0 0 0 0 0 0 0 0 0 0 0 0 0 713 1299 1399 1471 1425 1272 1311 1446 2020 1976 2126 2136 1510 1482 1292 1264 1264 1362 1401 1144 1200 1184 1087 1245 1265 1300 1167 985 980 813 460 252 96
0 0 0 0 0 0 0 0 0 0 0 0 0 0 0 46 531 1233 1374 1044 1043 953 1347 1344 1560 2012 1927 2226 2049 1355 1190 920 804 992 795 614 1403 1290 1128 1089 666 818 867 1158 894 488 187 69 46
0 0 0 0 0 0 0 0 0 0 0 0 0 0 45 200 844 1329 1278 1349 1169 1371 1118 1281 1373 1576 1927 1833 2149 1698 1759 1506 1051 1162 1286 1328 1012 1062 1040 760 475 744 624 678 490 215 75 37 30
0 0 0 0 0 0 0 0 0 0 0 0 0 0 0 244 653 1281 1220 1310 1343 1393 1245 751 851 1307 1354 1539 1703 1693 1450 1170 1012 1215 748 558 260 347 523 601 536 727 529 914 201 156 116 29 38
0 0 0 0 0 0 0 0 0 0 0 0 0 0 0 0 377 918 1162 1043 1069 1121 1158 698 625 1094 1119 1199 1245 1189 1215 832 901 625 948 750 324 176 263 232 240 353 727 635 139 241 35 0 35
0 0 0 0 0 0 0 0 0 0 0 0 0 0 0 0 0 332 828 829 697 831 1079 791 771 1006 795 458 691 917 736 400 413 622 315 732 498 115 482 237 192 444 580 596 66 4 2 0 4
0 0 0 0 0 0 0 0 0 0 0 0 0 0 0 0 0 3 383 552 406 377 602 695 830 841 579 288 109 428 226 103 88 244 341 370 695 539 100 139 242 303 214 275 1 0 0 0 4
0 0 0 0 0 0 0 0 0 0 0 0 0 0 0 0 0 0 9 313 419 406 340 182 554 694 566 436 29 95 268 286 50 5 5 102 224 82 30 171 272 145 2 2 0 0 0 0 3
0 0 0 0 0 0 0 0 0 0 0 0 0 0 0 0 0 0 0 2 37 149 145 100 76 427 484 276 32 72 169 227 154 28 9 8 21 20 101 155 10 5 3 1 0 0 0 0 8
0 0 0 0 0 0 0 0 0 0 0 0 0 0 0 0 0 0 0 0 0 0 46 97 113 230 269 170 21 2 9 11 56 92 6 9 7 9 75 103 7 2 3 0 1 1 0 1 4
0 0 0 0 0 0 0 0 0 0 0 0 0 0 0 0 0 0 0 0 0 0 0 39 153 192 144 4 2 5 4 4 8 8 12 15 4 7 38 31 1 2 1 2 2 0 0 5 5
0 0 0 0 0 0 0 0 0 0 0 0 0 0 0 0 0 0 0 0 0 0 0 9 75 119 13 0 0 2 6 3 5 12 7 3 7 19 8 4 1 6 1 1 1 1 0 12 47
0 0 0 0 0 0 0 0 0 0 0 0 0 0 0 0 0 0 0 0 0 0 0 1 26 18 130 16 17 21 13 4 4 9 4 1 12 12 2 2 1 1 0 2 0 0 1 2 0
0 0 0 0 0 0 0 0 0 0 0 0 0 0 0 0 0 0 0 0 0 0 0 0 2 2 103 87 4 4 1 4 4 3 8 7 26 5 3 1 4 2 0 2 0 0 0 1 1
0 0 0 0 0 0 0 0 0 0 0 0 0 0 0 0 0 0 0 0 0 0 0 0 4 3 30 5 3 3 1 2 0 0 1 18 54 10 3 1 4 3 3 2 0 1 0 0 6
0 0 0 0 0 0 0 0 0 0 0 0 0 0 0 0 0 0 0 0 0 0 0 0 2 4 3 5 3 3 1 3 3 2 0 8 30 17 1 1 2 1 1 0 0 0 0 4 43
0 0 0 0 0 0 0 0 0 0 0 0 0 0 0 0 0 0 0 0 0 0 0 3 3 4 4 6 4 1 2 2 3 2 2 7 1 1 15 2 3 0 0 0 2 3 1 2 36
0 0 0 0 0 0 0 0 0 0 0 0 0 0 0 0 0 0 0 0 0 0 4 6 5 4 6 3 1 1 2 2 1 5 3 7 4 3 5 3 2 0 0 0 0 0 15 58 36
0 0 0 0 0 0 0 0 0 0 0 0 0 0 0 0 0 0 0 0 0 0 0 7 1 3 4 2 0 1 3 1 1 3 3 7 13 6 29 5 2 3 0 0 0 0 0 3 19
0 0 0 0 0 0 0 0 0 0 0 0 0 0 0 0 0 0 0 0 0 0 2 9 3 2 4 2 3 1 2 1 2 5 2 3 9 7 22 4 1 1 4 5 0 0 0 0 15
0 0 0 0 0 0 0 0 0 0 0 0 0 0 0 0 0 0 0 0 0 0 9 8 5 2 3 2 5 4 2 2 3 6 2 0 9 8 14 8 0 0 3 1 0 0 0 6 4
0 0 0 0 0 0 0 0 0 0 0 0 0 0 0 0 0 0 0 0 0 2 16 2 6 4 2 2 6 2 3 5 5 6 6 3 6 5 9 2 1 2 2 1 0 0 0 0 8
0 0 0 0 0 0 0 0 0 0 0 0 0 0 0 0 0 0 0 0 3 1 9 7 3 2 2 4 3 2 2 6 6 7 10 12 4 10 12 4 2 3 5 4 2 2 2 17 6

GFSSGP_con_sbcape_108.txt.gz
CAPE
0 0 0 0 0 0 0 0 0 0 0 0 0 0 0 0 0 0 447 1062 1051 1174 1513 1241 899 1363 1600 1744 1937 2172 2154 2258 2330 2277 2263 2321 2354 2375 2331 2215 2181 2186 2259 2025 1844 1924 1945 1750 1664
0 0 0 0 0 0 0 0 0 0 0 0 0 0 0 0 0 203 797 1216 1130 1368 1752 1683 1073 1383 1653 1819 2086 2351 2442 2481 2457 2441 2464 2483 2469 2410 2404 2311 2178 2199 2327 2252 1975 1994 1924 1696 1470
0 0 0 0 0 0 0 0 0 0 0 0 0 0 0 0 4 146 413 1283 1251 1336 1747 1913 1130 1448 1667 1729 2044 2346 2533 2437 2454 2498 2593 2596 2565 2552 2494 2353 2200 2324 2393 2092 1987 1926 1856 1580 1282
0 0 0 0 0 0 0 0 0 0 0 0 0 0 0 4 63 124 955 1193 1259 1334 1608 1280 1129 1452 1712 1789 2048 2317 2421 2370 2391 2436 2634 2703 2658 2630 2378 2080 2165 1986 1994 2219 2280 2011 1623 1284 1011
0 0 0 0 0 0 0 0 0 0 0 0 0 0 0 109 494 399 1081 1315 1189 1394 1639 2084 1311 1453 1754 1936 1986 2205 2180 2217 2307 2458 2569 2617 2615 2296 2080 1922 2001 1936 2086 2016 1960 1838 1350 1068 941
0 0 0 0 0 0 0 0 0 0 0 0 0 0 0 404 827 697 1386 1710 1530 1763 1959 2129 1490 1490 1618 1880 1946 1874 1964 2040 2212 2380 2456 2549 2309 1983 1884 1692 1826 1707 1776 1711 1764 1466 1012 960 840
0 0 0 0 0 0 0 0 0 0 0 0 0 0 0 30 1093 1355 1550 1971 2221 2032 2136 2363 2249 1965 1424 1534 1732 1753 1655 1844 1988 2141 2280 2337 2127 1609 1590 1610 1470 1106 1429 1252 1486 1244 841 807 607
0 0 0 0 0 0 0 0 0 0 0 0 0 0 0 0 1344 1504 1529 1939 2285 1975 2035 2293 2314 2221 2073 2151 1397 1513 1507 1476 1725 1959 1997 1736 1653 1425 1312 1325 1083 1020 1388 1179 1366 820 653 480 259
0 0 0 0 0 0 0 0 0 0 0 0 0 0 0 85 1135 1654 1590 1676 1994 1796 1757 2030 2174 2206 2129 2128 1888 1253 1193 1293 1281 1598 1261 1173 2079 1768 1600 1156 949 1077 1039 1079 943 578 437 134 50
0 0 0 0 0 0 0 0 0 0 0 0 0 0 0 46 585 1283 1514 1437 1662 1827 1736 1749 2019 2120 2226 2043 2413 2277 2179 1913 2185 1913 1885 2031 1683 1588 1257 990 671 748 576 705 751 507 101 84 80
0 0 0 0 0 0 0 0 0 0 0 0 0 0 0 0 1 407 868 1162 1148 1409 1634 1662 2048 2172 2186 2127 1958 2267 2231 2343 2316 2214 2132 2045 1712 1581 1487 1612 1003 1002 642 610 834 383 321 150 67
0 0 0 0 0 0 0 0 0 0 0 0 0 0 0 0 0 0 76 668 933 1197 1528 1819 1830 2154 2171 1973 1929 1986 1776 2295 2027 2188 2038 1931 1678 1582 1436 1527 1013 874 760 835 835 281 426 207 54
0 0 0 0 0 0 0 0 0 0 0 0 0 0 0 0 0 0 0 9 513 1346 1661 1785 1586 2145 2081 2113 1740 1649 1882 1851 1717 1725 1866 1790 1435 1435 1269 987 899 887 828 1005 417 676 167 106 65
0 0 0 0 0 0 0 0 0 0 0 0 0 0 0 0 0 0 0 0 270 887 1464 1747 1653 1965 2066 2113 1468 1643 1612 1445 1730 1653 1435 1560 1621 1140 1443 1147 773 817 924 974 573 623 326 117 67
0 0 0 0 0 0 0 0 0 0 0 0 0 0 0 0 0 0 0 0 122 452 730 1430 1937 2022 2134 1885 1464 1485 1279 1214 1465 1144 818 1140 1222 1296 1180 1214 873 1027 664 617 494 128 182 86 10
0 0 0 0 0 0 0 0 0 0 0 0 0 0 0 0 0 0 0 0 0 6 167 753 1052 1644 2041 1721 1313 879 767 942 721 571 521 662 658 1069 1022 945 754 520 609 172 7 1 2 2 2
0 0 0 0 0 0 0 0 0 0 0 0 0 0 0 0 0 0 0 0 0 0 0 192 906 1124 1678 1732 1297 801 778 684 1039 725 458 219 475 707 550 695 282 129 16 4 4 2 0 2 0
0 0 0 0 0 0 0 0 0 0 0 0 0 0 0 0 0 0 0 0 0 0 0 0 207 833 1027 1771 1281 544 678 620 781 842 649 655 509 292 465 492 210 5 2 2 2 4 3 5 0
0 0 0 0 0 0 0 0 0 0 0 0 0 0 0 0 0 0 0 0 0 0 0 0 19 567 774 1003 605 296 299 357 308 708 544 583 379 490 151 191 58 3 2 2 5 7 4 9 5
0 0 0 0 0 0 0 0 0 0 0 0 0 0 0 0 0 0 0 0 0 0 0 0 109 521 763 552 303 501 385 266 359 424 641 306 306 215 29 10 12 2 5 10 15 3 2 1 20
0 0 0 0 0 0 0 0 0 0 0 0 0 0 0 0 0 0 0 0 0 0 0 0 116 404 711 677 267 416 421 287 251 257 355 285 165 69 11 14 12 6 3 3 2 2 4 12 36
0 0 0 0 0 0 0 0 0 0 0 0 0 0 0 0 0 0 0 0 0 0 0 2 67 302 539 628 250 468 522 288 306 109 84 101 59 27 18 34 14 4 1 2 2 3 4 7 23
0 0 0 0 0 0 0 0 0 0 0 0 0 0 0 0 0 0 0 0 0 0 31 41 91 231 200 476 311 536 771 682 546 397 160 15 29 38 28 6 3 1 2 1 4 7 8 3 1
0 0 0 0 0 0 0 0 0 0 0 0 0 0 0 0 0 0 0 0 0 0 0 204 165 135 52 134 343 582 926 702 285 24 15 6 12 31 12 4 4 5 6 2 5 5 3 1 2
0 0 27 22 2 0 0 0 0 0 0 0 0 0 0 0 0 0 0 0 0 0 0 95 159 69 13 20 126 463 822 486 309 152 8 5 9 16 36 5 7 5 3 14 8 17 2 0 1
0 1 8 11 23 3 0 0 0 0 0 0 0 0 0 0 0 0 0 0 0 0 0 13 152 15 6 12 16 129 259 451 178 18 0 7 12 26 8 3 10 2 4 9 7 2 3 8 5
2 7 9 25 6 1 6 2 0 0 0 0 0 0 0 0 0 0 0 0 0 0 0 2 66 5 8 11 6 7 56 221 72 3 3 11 11 19 38 3 4 4 2 2 0 1 3 3 12
0 0 3 14 1 0 0 0 0 9 12 8 0 0 0 0 3 0 0 0 0 0 0 0 85 5 10 8 4 6 78 97 18 8 7 14 10 26 28 45 5 4 1 2 1 0 0 0 5
0 0 0 1 0 0 0 8 0 8 1 0 0 6 26 37 3 5 4 0 0 0 0 3 8 4 12 8 5 15 31 29 8 14 10 9 11 20 26 43 10 3 3 3 2 1 3 2 4
0 0 0 0 0 0 0 2 46 25 5 11 32 52 54 21 14 10 3 0 0 0 0 1 6 10 11 9 10 7 8 12 5 9 5 7 12 12 19 10 7 1 2 2 1 3 1 3 6

GFSSGP_con_sbcape_111.txt.gz
CAPE
0 0 0 0 0 0 0 0 0 0 0 0 0 0 0 0 0 26 396 777 362 995 1315 1217 1222 1567 1583 1671 1819 2036 2204 2250 2264 2301 2324 2362 2408 2461 2462 2359 2276 2401 2442 2076 1933 1887 1852 1711 1703
0 0 0 0 0 0 0 0 0 0 0 0 0 0 0 0 0 196 585 570 398 1035 1458 1438 1104 1543 1748 1919 2107 2171 2327 2378 2394 2395 2453 2503 2495 2573 2542 2353 2151 2340 2487 2265 1988 2030 1907 1910 1582
0 0 0 0 0 0 0 0 0 0 0 0 0 0 0 0 0 3 505 311 514 939 1404 1757 1074 1388 1702 1934 2157 2291 2353 2392 2425 2424 2560 2629 2604 2617 2539 2236 2134 2360 2572 2515 2120 2046 1993 1754 1407
0 0 0 0 0 0 0 0 0 0 0 0 0 0 0 0 0 15 487 432 485 828 1122 901 1088 1344 1672 1944 2205 2404 2394 2301 2328 2389 2612 2685 2712 2700 2536 2227 2244 2513 2642 2641 2416 2099 1692 1357 1208
0 0 0 0 0 0 0 0 0 0 0 0 0 0 0 0 4 169 506 635 574 919 1580 1886 1136 1399 1718 1888 2162 2334 2321 2263 2335 2429 2523 2631 2695 2684 2305 2222 2297 2238 2212 2173 1994 1744 1407 1200 1080
0 0 0 0 0 0 0 0 0 0 0 0 0 0 0 3 6 411 833 833 836 1242 1815 2395 1315 1424 1630 1797 1893 2044 2082 2159 2258 2365 2494 2571 2564 2368 2203 2132 2112 1936 1987 2021 1816 1533 1263 1075 1003
0 0 0 0 0 0 0 0 0 0 0 0 0 0 0 0 33 566 1007 1100 1328 1616 2065 2592 2123 1701 1365 1527 1662 1672 1827 1963 2086 2274 2307 2303 2195 1916 1934 1948 1588 1721 1849 1727 1725 1312 1005 984 879
0 0 0 0 0 0 0 0 0 0 0 0 0 0 0 14 914 1128 1022 1368 1570 1774 1954 2497 2496 2161 1998 1817 1475 1543 1544 1692 1854 1988 2016 1688 1469 1610 1465 1414 1319 1489 1364 1601 1498 965 783 726 512
0 0 0 0 0 0 0 0 0 0 0 0 0 0 0 0 592 1082 1008 1220 1726 1581 1705 2091 2293 2291 2352 2240 1836 1320 1353 1377 1550 1680 1636 1787 1956 1757 1649 1351 1025 798 871 1249 1199 837 608 350 139
0 0 0 0 0 0 0 0 0 0 0 0 0 0 0 0 129 918 963 1115 1494 1487 1338 1601 1950 2000 2097 1853 2332 1981 2012 1994 1774 1879 2230 2490 1875 1794 1633 1324 796 871 858 660 837 400 172 197 547
0 0 0 0 0 0 0 0 0 0 0 0 0 0 0 0 0 200 534 480 1087 1299 1102 1035 1869 2079 2035 1630 1926 2056 2157 2142 2104 2097 2107 2137 2186 2265 1812 1936 1748 1497 625 740 602 514 633 629 425
0 0 0 0 0 0 0 0 0 0 0 0 0 0 0 0 0 0 40 234 324 870 1187 1150 1435 2018 2381 1689 1597 1731 2411 2221 2316 2293 3022 2586 2391 2119 1882 1513 1533 1580 1048 863 955 1197 1006 680 444
0 0 0 0 0 0 0 0 0 0 0 0 0 0 0 0 0 0 0 0 0 231 823 1320 1576 2089 2330 2400 1817 1907 2549 2156 2341 2127 2265 2290 1987 1940 1655 1696 1452 1223 953 1011 995 1040 945 640 299
0 0 0 0 0 0 0 0 0 0 0 0 0 0 0 0 0 0 0 0 0 5 340 1401 1855 2207 2257 2266 2363 2215 2376 2323 2158 2030 2035 2404 2228 2057 2127 1922 1681 1544 1258 1169 1270 1165 795 496 276
0 0 0 0 0 0 0 0 0 0 0 0 0 0 0 0 0 0 0 0 0 0 26 1339 1989 2569 2335 2228 2126 2024 1814 1827 2112 1822 2112 2111 2105 2088 1896 1616 1595 1580 1317 1145 1081 1007 968 658 157
0 0 0 0 0 0 0 0 0 0 0 0 0 0 0 0 0 0 0 0 0 0 4 254 1288 2129 2276 2605 2335 2029 1606 1674 1626 1729 1818 1744 1911 1939 1566 1434 1342 1453 1390 1210 880 723 412 181 49
0 0 0 0 0 0 0 0 0 0 0 0 0 0 0 0 0 0 0 0 0 0 0 11 1019 1605 2266 2695 2369 2362 1848 1543 1453 1343 1129 1390 1229 1292 1287 1303 1513 1456 970 792 596 47 84 20 18
0 0 0 0 0 0 0 0 0 0 0 0 0 0 0 0 0 0 0 0 0 0 0 0 74 1132 1735 2175 2609 2040 1548 1367 1309 1196 1144 1230 1226 1023 1232 1083 1260 988 373 80 20 3 1 0 2
0 0 0 0 0 2 1 0 0 0 0 0 0 0 0 0 0 0 0 0 0 0 0 0 0 221 1366 1347 1867 2212 1264 1031 1045 1386 1215 1045 917 820 687 608 652 376 28 7 4 2 4 3 5
2 1 0 0 0 0 1 1 0 0 0 0 0 0 0 0 0 0 0 0 0 0 0 0 0 0 258 965 1331 1772 772 714 878 1046 1291 1073 1033 694 607 625 206 2 3 5 5 1 1 1 2
1 0 0 0 0 0 0 0 0 0 0 0 0 0 0 0 0 0 0 0 0 0 0 0 0 4 232 789 1315 998 819 595 686 736 1025 995 898 593 721 539 153 4 3 3 3 2 1 2 1
0 0 0 0 1 0 0 0 0 0 0 0 0 0 0 0 0 0 0 0 0 0 0 2 0 45 213 814 1132 773 739 542 542 782 785 823 804 663 404 314 18 3 2 3 5 13 1 0 0
0 0 0 5 4 0 0 0 0 0 0 0 0 0 0 0 0 0 0 0 0 0 0 0 130 135 222 571 1073 952 616 877 1028 959 895 512 634 371 452 170 10 5 3 3 1 3 0 0 0
0 0 0 1 5 8 0 0 0 0 0 0 0 0 1 2 0 0 0 0 0 0 0 0 83 276 261 563 833 986 697 1233 1132 1210 1031 394 590 571 242 97 18 18 6 5 2 2 1 6 5
3 10 4 3 5 0 0 0 0 0 0 0 4 8 0 2 0 0 0 0 0 0 0 0 0 178 342 483 461 795 759 1301 1426 1380 1020 528 357 321 144 6 15 12 9 6 3 2 3 3 14
2 7 10 7 4 0 0 3 0 0 0 31 22 35 4 0 0 0 1 1 0 0 0 0 0 0 274 305 143 438 592 820 1154 945 624 311 156 179 13 5 5 4 6 8 3 3 4 4 7
11 6 0 0 3 11 13 6 18 1 27 52 30 3 1 1 6 17 10 5 0 0 0 0 0 0 90 266 140 317 447 598 776 1088 751 252 42 22 40 19 16 17 6 9 8 5 4 5 6
11 5 11 13 1 2 12 19 36 0 32 49 13 6 1 3 22 7 14 5 0 0 0 0 0 0 32 175 68 151 99 587 737 882 393 126 4 20 21 11 4 1 1 2 3 6 6 6 12
0 19 15 7 4 4 5 14 67 21 29 58 64 51 22 32 23 31 12 8 1 0 0 0 0 0 142 71 21 43 0 277 516 567 224 22 7 14 20 36 19 6 4 2 0 1 1 2 4
0 0 17 16 8 8 1 1 17 85 85 82 94 82 119 126 8 4 12 12 7 0 0 0 0 1 51 6 13 17 1 113 388 283 8 8 17 11 10 21 8 5 2 2 0 0 0 0 1

GFSSGP_con_sbcape_114.txt.gz
CAPE
0 0 0 0 0 0 0 0 0 0 0 0 0 0 0 0 30 195 397 749 1266 1044 1029 1089 1279 1546 1656 1677 1839 2031 2198 2129 2131 2150 2196 2199 2270 2295 2309 2232 2268 2326 2604 2269 2123 1938 1779 1797 1671
0 0 0 0 0 0 0 0 0 0 0 0 0 0 0 0 49 310 525 539 1200 1258 1182 1123 1213 1493 1675 1755 2006 2203 2329 2234 2214 2244 2291 2310 2352 2402 2355 2253 2152 2406 2558 2266 2102 2067 2003 1919 1679
0 0 0 0 0 0 0 0 0 0 0 0 0 0 0 0 0 146 467 526 1066 1152 1344 1241 1161 1393 1706 1841 2059 2163 2247 2174 2250 2256 2388 2466 2494 2479 2441 2182 2070 2458 2667 2545 2245 2190 1932 1728 1470
0 0 0 0 0 0 0 0 0 0 0 0 0 0 0 24 0 280 285 401 823 1043 1646 717 1050 1353 1732 1966 2204 2224 2227 2074 2148 2220 2386 2543 2617 2552 2406 2059 2074 2556 2771 2399 2654 1852 1632 1472 1322
0 0 0 0 0 0 0 0 0 0 0 0 0 0 0 0 0 203 340 456 1026 1743 1656 1109 1012 1349 1720 2039 2287 2327 2192 2114 2130 2244 2357 2451 2558 2447 2241 2001 2101 2208 2190 2141 1888 1839 1483 1287 1230
0 0 0 0 0 0 0 0 0 0 0 0 0 0 0 0 5 271 737 1153 1601 2743 2263 1322 1173 1355 1541 1867 2022 2073 2056 2061 2090 2176 2248 2436 2431 2024 2158 2029 2074 1966 1929 2046 1681 1535 1338 1176 1098
0 0 0 0 0 0 0 0 0 0 0 0 0 0 0 0 111 548 940 1553 2020 2608 2751 1810 1579 1433 1307 1354 1536 1770 1900 1980 1816 2085 2072 2260 2067 1736 1743 1906 1850 1590 1676 1539 1433 1264 1128 1071 996
0 0 0 0 0 0 0 0 0 0 0 0 0 0 0 2 323 632 875 1103 1843 2192 2885 2326 2022 1723 1612 1437 1251 1460 1624 1804 1876 1983 1828 2083 1676 1625 1527 1575 1494 1418 1481 1356 1434 1048 875 903 641
0 0 0 0 0 0 0 0 0 0 0 0 0 0 0 40 896 743 1100 1203 1695 1895 2154 2557 2313 2019 1899 1731 1440 1097 1333 1526 1664 1770 1809 1520 1972 1789 1672 1443 1209 1264 1178 1156 1353 842 687 601 466
0 0 0 0 0 0 0 0 0 0 0 0 0 0 0 0 324 804 668 1217 1812 1756 1653 2176 2266 2207 2197 1824 1729 1638 1602 1513 1712 1917 1851 1660 2077 1839 1537 1370 961 891 564 869 852 646 495 285 233
0 0 0 0 0 0 0 0 0 0 0 0 0 0 0 0 0 603 561 701 1582 1671 1337 1418 2251 2482 2216 1593 2062 1851 1909 1720 1637 1771 1955 2009 1959 1765 1395 1382 953 899 555 626 441 234 365 531 472
0 0 0 0 0 0 0 0 0 0 0 0 0 0 0 0 0 1 241 385 657 1320 1260 1055 1943 2427 2289 1844 1959 1942 1756 1924 1775 1768 1788 2041 2039 1872 1737 1452 1297 1110 792 575 527 520 433 638 370
0 0 0 0 0 0 0 0 0 0 0 0 0 0 0 0 0 0 0 21 155 651 1184 1012 1517 2232 2462 2506 1713 1900 2110 2022 1950 1952 1983 1947 2080 1854 1735 1536 1381 1109 955 676 618 616 709 494 357
0 0 0 0 0 0 0 0 0 0 0 0 0 0 0 0 0 0 0 0 0 16 810 1257 1334 2133 2369 2350 2321 1777 2540 2037 2066 2000 2013 2383 2123 1819 1606 1534 1365 1259 1128 933 681 699 584 540 378
0 0 0 0 0 0 0 0 0 0 0 0 0 0 0 0 0 0 0 0 0 0 10 1442 1715 2271 2454 2514 2236 2365 1965 2296 1883 2050 1989 2116 2154 2000 1650 1520 1454 1260 985 790 703 597 578 423 286
0 0 0 0 0 0 2 0 0 0 0 0 0 0 0 0 0 0 0 0 0 0 0 1441 1650 2445 2417 2401 2342 1988 1978 2086 2157 1872 1673 1764 2059 1959 1577 1376 1306 1234 882 746 686 548 341 270 91
0 0 0 0 0 0 1 0 0 0 0 0 0 0 0 0 0 0 0 0 0 0 0 119 1846 2736 2570 2335 2494 2258 1993 1912 1611 1880 1816 1682 1757 1817 1485 1436 1287 1200 804 601 471 422 304 188 87
0 0 0 0 0 0 0 0 0 0 0 0 0 0 0 0 0 0 0 0 0 0 0 205 1592 2110 2692 2393 2266 2500 2078 1726 1557 1496 1486 1336 1102 1538 1258 1004 1282 1158 813 472 354 185 245 73 22
0 0 0 0 0 0 0 0 0 0 0 0 0 0 0 0 0 0 0 0 0 0 0 0 110 1684 2088 2201 2444 2297 2233 1636 1381 1322 1223 956 935 1117 985 896 915 740 429 58 38 2 3 2 3
0 0 2 6 2 0 0 0 0 0 1 0 0 0 0 0 0 0 0 0 0 0 1 3 0 0 756 1635 1611 2030 2081 1750 1291 1119 1224 1163 1169 1089 671 838 539 438 100 1 1 0 0 0 2
0 0 4 0 0 0 0 0 0 0 0 0 1 0 0 0 0 0 1 3 12 2 19 0 0 1 43 2 1101 1439 1254 829 607 627 681 1257 1064 859 672 497 273 75 0 0 1 0 0 0 1
2 0 0 8 2 0 0 0 0 0 0 0 0 0 0 0 0 0 2 10 13 4 23 0 31 31 34 376 428 1295 917 750 613 563 533 998 914 695 589 522 103 0 0 1 1 1 0 0 0
1 7 20 1 0 0 0 0 0 0 0 0 0 0 0 0 0 0 4 8 3 0 4 9 37 112 92 316 546 1182 1020 857 500 356 382 448 596 586 402 488 65 1 0 0 0 1 0 0 0
9 11 9 0 0 0 0 0 0 0 0 0 0 0 6 8 3 1 2 0 0 8 27 13 0 0 195 328 577 1163 849 701 492 570 456 468 593 548 555 282 35 1 1 0 0 0 0 0 0
30 25 0 1 3 0 0 0 0 0 1 0 1 5 128 49 7 0 0 0 13 24 44 21 0 0 0 486 315 999 1033 702 592 787 787 607 452 450 373 221 19 3 1 0 0 1 1 0 0
14 0 0 0 0 0 0 0 0 0 0 0 29 147 97 24 38 15 45 24 14 0 0 0 0 0 0 0 324 397 957 618 544 854 968 434 336 320 341 224 33 1 3 1 0 1 1 0 0
10 3 1 0 1 27 0 0 1 0 4 37 91 67 11 32 76 64 43 7 0 0 0 0 0 0 0 0 0 330 273 446 412 905 750 465 318 230 239 86 1 3 0 1 1 1 1 1 1
11 2 2 0 0 2 4 1 1 0 80 57 8 21 64 55 83 29 0 0 0 0 0 0 0 0 0 0 0 123 10 177 357 605 457 436 276 115 87 4 2 1 0 1 0 1 1 1 1
11 6 1 0 5 0 0 0 1 2 82 9 5 80 169 154 95 7 1 0 0 0 0 0 0 0 0 0 0 65 0 95 259 430 376 269 126 76 84 3 11 5 1 3 1 1 1 1 1
1 3 19 36 0 0 4 0 27 38 96 102 288 218 118 7 0 0 0 0 0 0 0 0 0 0 0 0 2 4 1 12 165 263 231 57 11 47 24 1 1 1 0 0 0 1 0 1 2

GFSSGP_con_sbcape_117.txt.gz
CAPE
0 0 0 0 0 0 0 0 0 0 0 0 0 0 0 0 176 124 902 826 769 899 1097 1200 1278 1457 1520 1643 1709 1876 1970 2052 2063 2052 1992 2060 2118 2159 2110 2141 2269 2613 2709 2359 2077 1936 1898 1655 1624
0 0 0 0 0 0 0 0 0 0 0 0 0 0 0 4 252 545 792 759 772 806 971 1057 1185 1381 1526 1647 1788 1975 2189 2175 2125 2150 2150 2203 2233 2238 2221 2117 2028 2324 2566 2548 2192 2012 1924 1666 1542
0 0 0 0 0 0 0 0 0 0 0 0 0 0 0 23 274 207 835 903 671 876 915 1090 1133 1342 1553 1753 1900 2014 2121 2058 2087 2148 2286 2315 2360 2367 2329 2004 2016 2482 2593 2514 2248 2187 2004 1632 1360
0 0 0 0 0 0 0 0 0 0 0 0 0 0 0 4 191 276 1085 802 804 1018 943 898 1104 1294 1600 1862 1965 2012 1925 1667 1987 2093 2335 2426 2505 2502 2243 1895 2082 2609 2686 2705 2573 2381 1828 1337 1209
0 0 0 0 0 0 0 0 0 0 0 0 0 0 0 105 77 266 825 833 803 964 684 833 1066 1341 1688 2027 2057 1978 1624 1585 1961 2062 2277 2400 2450 2319 2065 1820 2016 2099 2065 2555 2199 1988 1500 1214 1089
0 0 0 0 0 0 0 0 0 0 0 0 0 0 0 69 66 89 413 1108 1375 818 702 853 1100 1330 1663 1960 1975 1885 1809 1857 1936 2042 2121 2285 2208 2019 1956 1788 1870 1932 1901 1703 1675 1546 1329 1156 1061
0 0 0 0 0 0 0 0 0 0 0 0 0 0 0 2 30 138 844 1891 1664 1204 761 863 1048 1188 1444 1624 1762 1741 1726 1783 1863 1989 2049 2128 2024 1839 1880 1771 1823 1587 1384 1373 1317 1179 1113 1048 983
0 0 0 0 0 0 0 0 0 0 0 0 0 0 0 0 63 545 958 1991 2065 1433 985 874 845 846 832 1077 1521 1599 1628 1700 1638 1840 1795 2018 1783 1534 1593 1695 1612 1541 1241 1220 1172 1047 974 977 874
0 0 0 0 0 0 0 0 0 0 0 0 0 0 154 191 116 523 926 1182 1853 1984 1342 1140 1042 897 787 769 1110 1350 1483 1606 1452 1720 1280 1558 1382 1320 1323 1341 1281 1378 1146 1096 942 770 794 783 536
0 0 0 0 0 0 0 0 0 0 0 0 0 0 25 496 310 340 823 1059 1404 1681 1689 1470 1191 1105 1004 1214 864 737 1054 1041 1142 1440 1187 1251 1417 1311 1362 1227 1142 1190 1005 984 839 673 504 350 129
0 0 0 0 0 0 0 0 0 0 0 0 0 0 0 0 491 249 454 1137 1356 1347 1743 1645 1498 1331 1278 1442 768 852 811 861 1064 1311 1263 1045 1417 1312 1147 880 771 675 585 594 573 337 130 108 1
0 0 0 0 0 0 0 0 0 0 0 0 0 0 0 0 0 443 132 773 1281 1291 1189 1640 1537 1516 1457 999 1028 1004 1046 911 911 943 1147 1173 1205 1068 804 682 480 337 51 201 110 0 94 161 103
0 0 0 0 0 0 0 0 0 0 0 0 0 0 0 0 0 0 171 28 1280 1216 1029 1356 1529 1644 1548 1036 1497 1198 1218 1221 1167 1044 1107 1196 1226 1087 915 724 581 521 188 113 115 43 31 97 104
0 0 0 0 0 0 0 0 0 0 0 0 0 0 0 0 0 0 0 0 16 1196 949 826 1376 1698 1552 1437 1082 1111 1168 1263 1196 1114 1222 995 1280 1101 958 814 642 493 416 136 191 104 71 133 29
0 0 0 0 0 0 0 0 0 0 0 0 0 0 0 0 0 0 0 0 0 12 889 503 1298 1592 1569 1313 1328 979 1413 1324 1326 1240 1308 1422 1314 1114 943 800 657 570 469 237 135 120 87 88 88
0 0 0 0 0 0 0 0 0 0 0 0 0 0 0 0 0 0 0 0 0 0 176 477 1229 1729 1971 1584 1262 1227 1485 1440 1231 1386 1220 1516 1494 1214 944 878 707 543 329 108 178 112 42 43 35
0 0 0 0 0 0 0 0 0 0 0 0 0 0 0 0 0 0 0 0 0 0 0 810 1243 1639 1796 1625 1530 1211 1018 1449 1333 1165 1202 1005 1398 1282 958 869 678 582 291 115 52 10 24 71 31
0 0 0 0 0 0 0 0 0 0 0 0 0 0 0 0 0 0 0 0 0 0 0 556 1244 1764 1879 1850 1534 1328 1171 923 943 1360 1241 975 1032 1291 891 807 709 591 196 5 32 82 0 21 12
0 0 0 0 0 0 0 0 0 0 0 0 0 0 0 0 0 0 0 0 0 0 0 59 1832 1802 1733 1583 1579 1428 1553 1169 762 612 1044 1113 1088 1216 1011 852 564 682 329 188 91 87 50 1 0
0 0 0 0 0 4 2 6 0 0 0 0 0 0 0 0 0 0 0 0 0 0 0 0 903 1908 1911 1823 1635 1501 1310 1152 1163 579 474 678 609 883 1078 902 464 245 170 132 13 0 0 0 1
0 0 0 0 0 5 0 1 0 0 0 0 0 0 0 0 0 0 0 0 0 0 0 0 0 137 850 1488 1197 737 580 265 526 415 380 432 441 604 793 574 286 146 9 1 0 0 0 0 1
1 0 0 0 0 40 0 0 0 0 0 0 0 0 0 0 0 0 0 0 0 0 0 0 0 0 0 0 477 957 972 798 361 301 297 342 731 743 725 494 183 8 0 0 0 0 0 0 0
0 0 0 0 1 4 0 0 0 0 0 0 0 0 0 0 0 0 0 0 0 0 0 1 0 0 0 0 0 588 505 751 166 113 223 198 506 719 658 444 110 10 0 0 0 1 0 0 0
0 0 5 39 31 2 0 0 0 0 0 0 0 0 0 0 0 0 0 0 0 0 0 0 0 0 0 0 0 644 477 341 166 87 100 189 242 492 275 426 104 26 0 0 0 0 0 0 0
0 0 89 34 46 0 0 0 0 0 0 0 0 0 0 0 0 0 0 0 0 0 0 0 0 0 0 0 0 0 279 216 84 72 59 78 122 366 461 328 70 2 0 0 0 0 0 0 0
0 127 4 7 0 0 0 0 0 0 0 0 0 0 0 0 3 0 0 0 0 0 0 0 0 0 0 0 0 0 0 191 159 123 233 112 180 429 426 275 71 5 0 0 0 1 0 0 0
16 68 55 51 45 2 0 0 0 0 2 6 0 0 10 34 1 0 0 0 0 0 0 0 0 0 0 0 0 0 0 0 279 227 230 373 404 339 276 217 42 1 0 0 0 1 0 0 0
26 16 9 39 33 46 49 0 0 1 8 2 20 18 5 0 0 0 0 0 0 0 0 0 0 0 0 0 0 0 0 0 108 89 116 318 266 219 210 178 39 1 1 1 1 1 0 1 0
37 12 12 0 1 0 4 0 3 2 19 10 32 0 0 0 0 0 0 0 0 0 0 0 0 0 0 0 0 0 0 0 0 4 41 135 83 57 109 24 0 0 0 0 1 1 0 1 1
22 2 0 0 0 0 0 1 6 98 63 115 9 0 0 0 0 0 0 0 0 0 0 0 0 0 0 0 0 0 0 0 0 0 26 133 35 0 0 0 0 0 0 1 0 1 0 1 1

GFSSGP_con_sbcape_120.txt.gz
CAPE
0 0 0 0 0 0 0 0 0 0 0 0 0 0 0 0 18 59 726 749 846 951 1001 1139 1279 1492 1689 1772 1640 1710 1837 1929 1908 1927 1884 1930 1970 2060 2230 2342 2424 2499 2374 2027 1952 1906 1723 1739 1748
0 0 0 0 0 0 0 0 0 0 0 0 0 0 0 308 347 853 791 759 859 986 1010 1076 1187 1391 1548 1678 1748 1827 2022 2003 2020 2012 2018 2081 2087 2052 2153 2245 2348 2568 2581 2151 2023 1919 1729 1690 1698
0 0 0 0 0 0 0 0 0 0 0 0 0 0 0 222 855 760 584 760 879 979 1013 1052 1156 1300 1482 1567 1766 1894 2007 1940 1954 2006 2176 2238 2268 2196 2076 1885 2044 2189 2405 2483 2111 2012 1716 1558 1373
0 0 0 0 0 0 0 0 0 0 0 0 0 0 0 241 739 698 731 643 745 843 902 976 1084 1271 1558 1765 1861 1975 1912 1806 1825 1954 2181 2339 2383 2299 1990 1755 2105 2377 2484 2593 2415 2079 1670 1232 1168
0 0 0 0 0 0 0 0 0 0 0 0 0 0 0 123 538 675 519 682 722 715 779 862 1028 1366 1688 1975 2011 1903 1783 1745 1785 1973 2123 2295 2357 2265 1827 1664 2086 2249 2442 2324 2134 1847 1391 1149 1086
0 0 0 0 0 0 0 0 0 0 0 0 0 0 0 241 782 481 482 773 723 557 710 837 1080 1434 1720 1897 1864 1615 1325 1625 1732 1926 2043 2202 2167 2008 1749 1622 1864 1865 2075 2039 1842 1506 1292 1079 1025
0 0 0 0 0 0 0 0 0 0 0 0 0 0 0 458 541 557 685 975 522 520 643 779 1070 1412 1610 1693 1675 1506 1460 1614 1701 1831 1951 2018 1854 1783 1645 1575 1705 1715 1657 1621 1532 1252 1159 1050 988
0 0 0 0 0 0 0 0 0 0 0 0 0 0 49 51 49 1045 1293 999 572 519 588 633 792 1066 1343 1485 1494 1502 1551 1569 1653 1709 1828 1826 1643 1613 1607 1503 1542 1436 1337 1386 1264 1144 1064 1015 943
0 0 0 0 0 0 0 0 0 0 0 0 0 0 3 3 707 1634 1714 1513 978 671 523 558 667 612 595 1026 1387 1420 1461 1454 1537 1618 1724 1657 1325 1275 1454 1376 1388 1303 1094 1128 1041 956 964 920 801
0 0 0 0 0 0 0 0 0 0 0 0 0 14 4 256 971 1385 1647 1783 1493 1008 670 595 604 531 423 1063 1186 1164 1379 1292 1100 1234 1157 1166 1105 926 1136 1200 1163 1190 951 923 750 725 864 671 295
0 0 0 0 0 0 0 0 0 0 0 0 0 27 159 441 646 1044 1399 1774 1813 1511 1046 860 649 545 576 811 606 747 873 686 699 1053 689 968 1134 1031 944 736 796 798 777 675 541 415 379 356 27
0 0 0 0 0 0 0 0 0 0 0 0 0 1 118 288 377 723 912 1259 1519 1839 1577 1135 821 736 704 649 498 579 659 606 707 1101 837 822 1053 882 748 523 428 398 179 309 184 67 32 54 0
0 0 0 0 0 0 0 0 0 0 0 0 0 0 0 110 220 405 763 950 1210 1634 1799 1449 1077 932 912 843 523 585 606 635 654 750 885 848 891 984 506 394 276 162 0 21 3 0 0 25 0
0 0 0 0 0 0 0 0 0 0 0 0 0 0 0 0 0 20 227 800 1092 1304 1376 1636 1417 1212 1114 1085 1006 780 726 668 618 645 892 937 877 909 463 374 348 227 0 0 0 0 0 2 7
0 0 0 0 0 0 0 0 0 0 0 0 0 0 0 0 0 0 0 80 1061 1150 1221 1444 1507 1412 1371 1134 1258 1009 983 967 853 810 794 860 890 801 660 399 337 284 176 0 0 0 0 0 0
0 0 0 0 0 0 0 0 0 0 0 0 0 0 0 0 0 0 0 0 82 1117 994 904 1581 1531 1504 1282 1034 940 1058 1114 1086 905 916 881 854 807 585 495 398 239 149 24 18 2 0 10 12
0 0 0 0 0 0 0 0 0 0 0 0 0 0 0 0 0 0 0 0 0 0 835 731 1157 1481 1552 1339 1125 907 1106 1174 1087 1059 1026 1066 999 853 729 630 323 197 95 56 48 28 45 16 2
0 0 0 0 0 0 0 0 0 0 0 0 0 0 0 0 0 0 0 0 0 0 0 492 793 1342 1649 1515 1216 843 1116 1139 1016 1178 1155 884 1227 878 760 572 379 250 58 0 1 1 0 93 97
0 0 0 0 0 0 0 0 0 0 0 0 0 0 0 0 0 0 0 0 0 0 0 342 691 1181 1617 1649 1480 921 1055 938 1021 1052 1152 906 986 1058 701 606 589 498 243 19 0 0 5 9 11
0 0 0 0 0 0 0 0 0 0 0 0 0 0 0 0 0 0 0 0 0 0 0 384 927 1256 1557 1681 1748 1329 883 752 949 923 924 984 733 884 1007 782 652 700 318 11 14 107 4 1 2
0 0 0 14 0 0 13 51 0 0 0 0 0 0 0 0 0 0 0 0 0 0 7 997 1562 1622 1609 1540 907 359 265 149 347 294 615 802 733 721 917 809 454 487 364 294 185 99 20 0 1
0 0 1 13 0 0 88 15 0 0 0 0 0 0 0 0 0 0 0 0 0 0 0 0 91 157 101 450 817 642 1152 1278 709 649 509 344 523 481 578 498 260 312 264 243 73 7 16 0 2
0 0 0 1 0 0 32 117 0 0 0 0 0 0 0 0 0 0 0 0 0 0 0 0 0 0 0 0 0 657 830 612 52 72 242 369 318 483 607 445 386 219 66 18 9 0 0 0 0
18 0 13 7 1 1 0 68 0 0 0 0 0 0 0 0 0 0 0 0 0 0 0 0 0 0 0 0 0 0 0 64 100 102 99 18 166 543 546 507 249 171 24 0 0 0 0 0 0
36 7 0 0 6 48 33 80 5 0 0 0 0 0 0 0 0 0 0 0 0 0 0 0 0 0 0 0 0 0 0 0 2 74 220 235 58 12 153 284 156 99 13 0 0 0 0 0 0
79 0 0 0 25 5 22 3 0 0 0 0 0 0 0 0 0 0 0 0 0 0 0 0 0 0 0 0 0 0 0 0 0 1 69 97 105 98 100 113 117 36 1 0 0 0 0 0 1
3 0 0 50 28 0 0 0 0 8 6 0 0 0 0 0 0 0 0 0 0 0 0 0 0 0 0 0 0 0 0 0 0 0 5 46 34 22 57 213 146 2 0 0 0 0 0 1 1
86 1 56 15 6 15 91 4 34 185 41 1 0 0 0 0 0 0 0 0 0 0 0 0 0 0 0 0 0 0 0 0 0 0 0 22 21 6 78 166 111 0 0 0 0 1 0 1 0
7 0 2 21 2 13 35 187 154 202 11 4 5 1 0 0 0 0 0 0 0 0 0 0 0 0 0 0 0 0 0 0 0 0 0 4 14 91 99 165 86 0 0 0 0 0 0 1 0
0 16 3 11 5 0 0 5 11 6 6 6 4 2 1 0 0 0 0 0 0 0 0 0 0 0 0 0 0 0 0 0 0 0 0 2 0 0 87 166 31 0 0 0 0 0 0 0 0